Wetterdaten: Mittwoch, 28.12.2016
Datum Zeit Temp. A. Feuchte A. Luftdruck Regen Wind Richtung Richtung Sonnenschein ET UV Solar Taupunkt Windchill Windben Empfang
28.12.2016 00:00 3,8 C 83 % 1037,4 hPa 0,0 l/m 25,4 km/h (4 Bft) W 261 0 min 0,000 mm 0,0 UV-I 0 W/m 1,2 C -6,7 C 32,2 km/h (5 Bft) 94,00 %
28.12.2016 00:02 3,7 C 83 % 1037,3 hPa 0,0 l/m 19,1 km/h (3 Bft) W 267 0 min 0,000 mm 0,0 UV-I 0 W/m 1,1 C -4,5 C 25,7 km/h (4 Bft) 100,00 %
28.12.2016 00:04 3,7 C 84 % 1037,3 hPa 0,0 l/m 24,1 km/h (4 Bft) SW 234 0 min 0,000 mm 0,0 UV-I 0 W/m 1,3 C -6,4 C 38,6 km/h (5 Bft) 95,74 %
28.12.2016 00:06 3,7 C 84 % 1037,2 hPa 0,0 l/m 24,6 km/h (4 Bft) W-SW 251 0 min 0,000 mm 0,0 UV-I 0 W/m 1,3 C -6,6 C 32,2 km/h (5 Bft) 97,87 %
28.12.2016 00:08 3,7 C 84 % 1037,3 hPa 0,0 l/m 21,3 km/h (4 Bft) W-SW 241 0 min 0,000 mm 0,0 UV-I 0 W/m 1,3 C -5,4 C 37,0 km/h (5 Bft) 97,87 %
28.12.2016 00:10 3,7 C 84 % 1037,2 hPa 0,0 l/m 18,4 km/h (3 Bft) W-SW 238 0 min 0,000 mm 0,0 UV-I 0 W/m 1,3 C -4,2 C 27,4 km/h (4 Bft) 96,00 %
28.12.2016 00:12 3,7 C 84 % 1037,2 hPa 0,0 l/m 22,7 km/h (4 Bft) W 263 0 min 0,000 mm 0,0 UV-I 0 W/m 1,3 C -5,9 C 32,2 km/h (5 Bft) 100,00 %
28.12.2016 00:14 3,7 C 84 % 1037,1 hPa 0,0 l/m 22,0 km/h (4 Bft) W 270 0 min 0,000 mm 0,0 UV-I 0 W/m 1,3 C -5,6 C 33,8 km/h (5 Bft) 100,00 %
28.12.2016 00:16 3,7 C 84 % 1037,1 hPa 0,0 l/m 20,4 km/h (4 Bft) W-SW 250 0 min 0,000 mm 0,0 UV-I 0 W/m 1,3 C -5,0 C 30,6 km/h (5 Bft) 100,00 %
28.12.2016 00:18 3,7 C 84 % 1037,0 hPa 0,0 l/m 20,7 km/h (4 Bft) W 274 0 min 0,000 mm 0,0 UV-I 0 W/m 1,3 C -5,1 C 37,0 km/h (5 Bft) 100,00 %
28.12.2016 00:20 3,7 C 84 % 1036,9 hPa 0,0 l/m 23,9 km/h (4 Bft) W 260 0 min 0,000 mm 0,0 UV-I 0 W/m 1,3 C -6,3 C 41,8 km/h (6 Bft) 97,87 %
28.12.2016 00:22 3,7 C 84 % 1036,9 hPa 0,0 l/m 16,3 km/h (3 Bft) W 265 0 min 0,000 mm 0,0 UV-I 0 W/m 1,3 C -3,2 C 24,1 km/h (4 Bft) 100,00 %
28.12.2016 00:24 3,7 C 84 % 1036,9 hPa 0,0 l/m 22,7 km/h (4 Bft) SW 215 0 min 0,000 mm 0,0 UV-I 0 W/m 1,3 C -5,9 C 38,6 km/h (5 Bft) 97,87 %
28.12.2016 00:26 3,7 C 84 % 1036,9 hPa 0,0 l/m 26,0 km/h (4 Bft) W 259 0 min 0,000 mm 0,0 UV-I 0 W/m 1,3 C -7,0 C 41,8 km/h (6 Bft) 97,87 %
28.12.2016 00:28 3,7 C 84 % 1036,9 hPa 0,0 l/m 22,6 km/h (4 Bft) W 281 0 min 0,000 mm 0,0 UV-I 0 W/m 1,3 C -5,9 C 35,4 km/h (5 Bft) 100,00 %
28.12.2016 00:30 3,7 C 84 % 1036,9 hPa 0,0 l/m 20,4 km/h (4 Bft) W-SW 249 0 min 0,000 mm 0,0 UV-I 0 W/m 1,3 C -5,0 C 29,0 km/h (5 Bft) 97,87 %
28.12.2016 00:32 3,7 C 84 % 1036,7 hPa 0,0 l/m 23,0 km/h (4 Bft) W-SW 251 0 min 0,000 mm 0,0 UV-I 0 W/m 1,3 C -6,0 C 35,4 km/h (5 Bft) 97,87 %
28.12.2016 00:34 3,7 C 84 % 1036,8 hPa 0,0 l/m 22,3 km/h (4 Bft) SW 234 0 min 0,000 mm 0,0 UV-I 0 W/m 1,3 C -5,8 C 32,2 km/h (5 Bft) 100,00 %
28.12.2016 00:36 3,7 C 84 % 1036,8 hPa 0,0 l/m 27,1 km/h (4 Bft) W-SW 250 0 min 0,000 mm 0,0 UV-I 0 W/m 1,3 C -7,4 C 37,0 km/h (5 Bft) 100,00 %
28.12.2016 00:38 3,7 C 84 % 1036,8 hPa 0,0 l/m 22,3 km/h (4 Bft) SW 236 0 min 0,000 mm 0,0 UV-I 0 W/m 1,3 C -5,8 C 37,0 km/h (5 Bft) 100,00 %
28.12.2016 00:40 3,7 C 85 % 1036,7 hPa 0,0 l/m 21,3 km/h (4 Bft) W-SW 257 0 min 0,000 mm 0,0 UV-I 0 W/m 1,4 C -5,4 C 30,6 km/h (5 Bft) 100,00 %
28.12.2016 00:42 3,7 C 85 % 1036,6 hPa 0,0 l/m 26,9 km/h (4 Bft) W-SW 245 0 min 0,000 mm 0,0 UV-I 0 W/m 1,4 C -7,3 C 41,8 km/h (6 Bft) 100,00 %
28.12.2016 00:44 3,7 C 85 % 1036,7 hPa 0,0 l/m 25,1 km/h (4 Bft) W-SW 243 0 min 0,000 mm 0,0 UV-I 0 W/m 1,4 C -6,7 C 33,8 km/h (5 Bft) 100,00 %
28.12.2016 00:46 3,7 C 85 % 1036,7 hPa 0,0 l/m 30,7 km/h (5 Bft) W-SW 245 0 min 0,000 mm 0,0 UV-I 0 W/m 1,4 C -8,4 C 49,9 km/h (6 Bft) 100,00 %
28.12.2016 00:48 3,7 C 85 % 1036,7 hPa 0,0 l/m 23,5 km/h (4 Bft) W-SW 244 0 min 0,000 mm 0,0 UV-I 0 W/m 1,4 C -6,2 C 33,8 km/h (5 Bft) 97,87 %
28.12.2016 00:50 3,7 C 85 % 1036,6 hPa 0,0 l/m 23,4 km/h (4 Bft) W-SW 240 0 min 0,000 mm 0,0 UV-I 0 W/m 1,4 C -6,2 C 32,2 km/h (5 Bft) 100,00 %
28.12.2016 00:52 3,7 C 85 % 1036,7 hPa 0,0 l/m 18,9 km/h (3 Bft) W-SW 240 0 min 0,000 mm 0,0 UV-I 0 W/m 1,4 C -4,4 C 32,2 km/h (5 Bft) 100,00 %
28.12.2016 00:54 3,7 C 85 % 1036,7 hPa 0,0 l/m 27,7 km/h (4 Bft) W 274 0 min 0,000 mm 0,0 UV-I 0 W/m 1,4 C -7,6 C 49,9 km/h (6 Bft) 100,00 %
28.12.2016 00:56 3,7 C 85 % 1036,6 hPa 0,0 l/m 24,4 km/h (4 Bft) W-SW 252 0 min 0,000 mm 0,0 UV-I 0 W/m 1,4 C -6,5 C 41,8 km/h (6 Bft) 100,00 %
28.12.2016 00:58 3,8 C 85 % 1036,6 hPa 0,0 l/m 24,8 km/h (4 Bft) W 268 0 min 0,000 mm 0,0 UV-I 0 W/m 1,5 C -6,5 C 45,1 km/h (6 Bft) 100,00 %
28.12.2016 01:00 3,8 C 86 % 1036,7 hPa 0,0 l/m 20,3 km/h (4 Bft) W-SW 242 0 min 0,000 mm 0,0 UV-I 0 W/m 1,7 C -4,8 C 27,4 km/h (4 Bft) 98,00 %
28.12.2016 01:02 3,8 C 85 % 1036,7 hPa 0,0 l/m 24,0 km/h (4 Bft) W-SW 237 0 min 0,025 mm 0,0 UV-I 0 W/m 1,5 C -6,2 C 33,8 km/h (5 Bft) 98,00 %
28.12.2016 01:04 3,8 C 85 % 1036,7 hPa 0,0 l/m 24,3 km/h (4 Bft) W-SW 246 0 min 0,000 mm 0,0 UV-I 0 W/m 1,5 C -6,3 C 33,8 km/h (5 Bft) 100,00 %
28.12.2016 01:06 3,8 C 85 % 1036,7 hPa 0,0 l/m 25,0 km/h (4 Bft) SW 235 0 min 0,000 mm 0,0 UV-I 0 W/m 1,5 C -6,6 C 35,4 km/h (5 Bft) 100,00 %
28.12.2016 01:08 3,8 C 85 % 1036,7 hPa 0,0 l/m 28,2 km/h (4 Bft) SW 221 0 min 0,000 mm 0,0 UV-I 0 W/m 1,5 C -7,6 C 37,0 km/h (5 Bft) 100,00 %
28.12.2016 01:10 3,8 C 85 % 1036,8 hPa 0,0 l/m 24,9 km/h (4 Bft) W 263 0 min 0,000 mm 0,0 UV-I 0 W/m 1,5 C -6,5 C 37,0 km/h (5 Bft) 97,37 %
28.12.2016 01:12 3,8 C 86 % 1036,7 hPa 0,0 l/m 24,5 km/h (4 Bft) SW 235 0 min 0,000 mm 0,0 UV-I 0 W/m 1,7 C -6,4 C 35,4 km/h (5 Bft) 100,00 %
28.12.2016 01:14 3,7 C 86 % 1036,7 hPa 0,0 l/m 23,6 km/h (4 Bft) W-SW 257 0 min 0,000 mm 0,0 UV-I 0 W/m 1,6 C -6,2 C 35,4 km/h (5 Bft) 100,00 %
28.12.2016 01:16 3,7 C 86 % 1036,8 hPa 0,0 l/m 26,3 km/h (4 Bft) W 259 0 min 0,000 mm 0,0 UV-I 0 W/m 1,6 C -7,1 C 38,6 km/h (5 Bft) 97,92 %
28.12.2016 01:18 3,7 C 86 % 1036,8 hPa 0,0 l/m 27,0 km/h (4 Bft) W-SW 242 0 min 0,000 mm 0,0 UV-I 0 W/m 1,6 C -7,3 C 38,6 km/h (5 Bft) 100,00 %
28.12.2016 01:20 3,7 C 86 % 1036,7 hPa 0,0 l/m 24,5 km/h (4 Bft) SW 226 0 min 0,000 mm 0,0 UV-I 0 W/m 1,6 C -6,5 C 38,6 km/h (5 Bft) 97,87 %
28.12.2016 01:22 3,7 C 86 % 1036,8 hPa 0,0 l/m 21,8 km/h (4 Bft) SW 228 0 min 0,000 mm 0,0 UV-I 0 W/m 1,6 C -5,6 C 32,2 km/h (5 Bft) 100,00 %
28.12.2016 01:24 3,7 C 87 % 1036,8 hPa 0,0 l/m 25,4 km/h (4 Bft) W-SW 255 0 min 0,000 mm 0,0 UV-I 0 W/m 1,7 C -6,8 C 43,5 km/h (6 Bft) 100,00 %
28.12.2016 01:26 3,7 C 87 % 1036,8 hPa 0,0 l/m 20,8 km/h (4 Bft) W 262 0 min 0,000 mm 0,0 UV-I 0 W/m 1,7 C -5,2 C 29,0 km/h (5 Bft) 100,00 %
28.12.2016 01:28 3,7 C 87 % 1036,9 hPa 0,0 l/m 28,7 km/h (4 Bft) W-SW 246 0 min 0,000 mm 0,0 UV-I 0 W/m 1,7 C -7,8 C 43,5 km/h (6 Bft) 100,00 %
28.12.2016 01:30 3,7 C 87 % 1036,9 hPa 0,0 l/m 27,6 km/h (4 Bft) SW 225 0 min 0,000 mm 0,0 UV-I 0 W/m 1,7 C -7,5 C 43,5 km/h (6 Bft) 93,62 %
28.12.2016 01:32 3,6 C 87 % 1037,0 hPa 0,0 l/m 28,6 km/h (4 Bft) W-SW 257 0 min 0,000 mm 0,0 UV-I 0 W/m 1,6 C -8,0 C 41,8 km/h (6 Bft) 100,00 %
28.12.2016 01:34 3,6 C 88 % 1037,0 hPa 0,0 l/m 22,9 km/h (4 Bft) W-SW 246 0 min 0,000 mm 0,0 UV-I 0 W/m 1,8 C -6,1 C 30,6 km/h (5 Bft) 100,00 %
28.12.2016 01:36 3,6 C 87 % 1036,9 hPa 0,0 l/m 26,5 km/h (4 Bft) W-SW 254 0 min 0,000 mm 0,0 UV-I 0 W/m 1,6 C -7,3 C 48,3 km/h (6 Bft) 100,00 %
28.12.2016 01:38 3,6 C 88 % 1036,8 hPa 0,0 l/m 20,5 km/h (4 Bft) W-SW 255 0 min 0,000 mm 0,0 UV-I 0 W/m 1,8 C -5,2 C 33,8 km/h (5 Bft) 100,00 %
28.12.2016 01:40 3,6 C 88 % 1036,9 hPa 0,0 l/m 26,1 km/h (4 Bft) W-SW 254 0 min 0,000 mm 0,0 UV-I 0 W/m 1,8 C -7,2 C 33,8 km/h (5 Bft) 100,00 %
28.12.2016 01:42 3,6 C 88 % 1037,0 hPa 0,0 l/m 24,8 km/h (4 Bft) W-SW 249 0 min 0,000 mm 0,0 UV-I 0 W/m 1,8 C -6,8 C 32,2 km/h (5 Bft) 95,74 %
28.12.2016 01:44 3,6 C 88 % 1037,0 hPa 0,0 l/m 22,9 km/h (4 Bft) W-SW 252 0 min 0,000 mm 0,0 UV-I 0 W/m 1,8 C -6,1 C 35,4 km/h (5 Bft) 98,11 %
28.12.2016 01:46 3,6 C 88 % 1037,0 hPa 0,0 l/m 25,9 km/h (4 Bft) W-SW 249 0 min 0,000 mm 0,0 UV-I 0 W/m 1,8 C -7,1 C 41,8 km/h (6 Bft) 95,74 %
28.12.2016 01:48 3,6 C 88 % 1037,0 hPa 0,0 l/m 24,4 km/h (4 Bft) W-SW 252 0 min 0,000 mm 0,0 UV-I 0 W/m 1,8 C -6,6 C 43,5 km/h (6 Bft) 97,87 %
28.12.2016 01:50 3,6 C 89 % 1037,1 hPa 0,0 l/m 23,0 km/h (4 Bft) W 267 0 min 0,000 mm 0,0 UV-I 0 W/m 2,0 C -6,1 C 41,8 km/h (6 Bft) 97,44 %
28.12.2016 01:52 3,5 C 89 % 1037,1 hPa 0,0 l/m 28,2 km/h (4 Bft) W 263 0 min 0,000 mm 0,0 UV-I 0 W/m 1,9 C -8,0 C 45,1 km/h (6 Bft) 97,92 %
28.12.2016 01:54 3,5 C 88 % 1037,1 hPa 0,0 l/m 26,4 km/h (4 Bft) W-SW 248 0 min 0,000 mm 0,0 UV-I 0 W/m 1,7 C -7,4 C 40,2 km/h (6 Bft) 97,92 %
28.12.2016 01:56 3,6 C 89 % 1037,1 hPa 0,0 l/m 30,4 km/h (5 Bft) W 273 0 min 0,000 mm 0,0 UV-I 0 W/m 2,0 C -8,5 C 43,5 km/h (6 Bft) 97,87 %
28.12.2016 01:58 3,6 C 88 % 1037,2 hPa 0,0 l/m 19,6 km/h (3 Bft) NW 314 0 min 0,000 mm 0,0 UV-I 0 W/m 1,8 C -4,8 C 30,6 km/h (5 Bft) 98,00 %
28.12.2016 02:00 3,6 C 88 % 1037,2 hPa 0,0 l/m 28,8 km/h (4 Bft) W-SW 241 0 min 0,026 mm 0,0 UV-I 0 W/m 1,8 C -8,0 C 43,5 km/h (6 Bft) 95,74 %
28.12.2016 02:02 3,6 C 88 % 1037,3 hPa 0,0 l/m 28,5 km/h (4 Bft) W-SW 249 0 min 0,000 mm 0,0 UV-I 0 W/m 1,8 C -7,9 C 41,8 km/h (6 Bft) 97,87 %
28.12.2016 02:04 3,6 C 88 % 1037,1 hPa 0,0 l/m 30,3 km/h (5 Bft) W 263 0 min 0,000 mm 0,0 UV-I 0 W/m 1,8 C -8,4 C 46,7 km/h (6 Bft) 95,74 %
28.12.2016 02:06 3,6 C 88 % 1037,1 hPa 0,0 l/m 26,0 km/h (4 Bft) W-SW 239 0 min 0,000 mm 0,0 UV-I 0 W/m 1,8 C -7,2 C 37,0 km/h (5 Bft) 97,87 %
28.12.2016 02:08 3,6 C 88 % 1037,3 hPa 0,0 l/m 22,1 km/h (4 Bft) W 260 0 min 0,000 mm 0,0 UV-I 0 W/m 1,8 C -5,8 C 40,2 km/h (6 Bft) 94,00 %
28.12.2016 02:10 3,7 C 88 % 1037,4 hPa 0,0 l/m 27,4 km/h (4 Bft) W-SW 246 0 min 0,000 mm 0,0 UV-I 0 W/m 1,9 C -7,5 C 46,7 km/h (6 Bft) 97,87 %
28.12.2016 02:12 3,7 C 88 % 1037,3 hPa 0,0 l/m 22,8 km/h (4 Bft) W-SW 252 0 min 0,000 mm 0,0 UV-I 0 W/m 1,9 C -5,9 C 41,8 km/h (6 Bft) 97,87 %
28.12.2016 02:14 3,7 C 88 % 1037,3 hPa 0,0 l/m 22,2 km/h (4 Bft) W-SW 246 0 min 0,000 mm 0,0 UV-I 0 W/m 1,9 C -5,7 C 33,8 km/h (5 Bft) 97,87 %
28.12.2016 02:16 3,7 C 88 % 1037,2 hPa 0,0 l/m 19,0 km/h (3 Bft) W 269 0 min 0,000 mm 0,0 UV-I 0 W/m 1,9 C -4,4 C 32,2 km/h (5 Bft) 95,74 %
28.12.2016 02:18 3,7 C 88 % 1037,2 hPa 0,0 l/m 23,9 km/h (4 Bft) W 266 0 min 0,000 mm 0,0 UV-I 0 W/m 1,9 C -6,3 C 33,8 km/h (5 Bft) 100,00 %
28.12.2016 02:20 3,7 C 88 % 1037,0 hPa 0,0 l/m 25,4 km/h (4 Bft) W 263 0 min 0,000 mm 0,0 UV-I 0 W/m 1,9 C -6,8 C 37,0 km/h (5 Bft) 98,00 %
28.12.2016 02:22 3,7 C 88 % 1037,0 hPa 0,0 l/m 25,6 km/h (4 Bft) W 259 0 min 0,000 mm 0,0 UV-I 0 W/m 1,9 C -6,9 C 32,2 km/h (5 Bft) 100,00 %
28.12.2016 02:24 3,7 C 88 % 1037,0 hPa 0,0 l/m 28,9 km/h (5 Bft) W 279 0 min 0,000 mm 0,0 UV-I 0 W/m 1,9 C -7,9 C 40,2 km/h (6 Bft) 97,37 %
28.12.2016 02:26 3,7 C 88 % 1037,0 hPa 0,0 l/m 24,4 km/h (4 Bft) W 259 0 min 0,000 mm 0,0 UV-I 0 W/m 1,9 C -6,5 C 35,4 km/h (5 Bft) 100,00 %
28.12.2016 02:28 3,7 C 88 % 1037,0 hPa 0,0 l/m 27,2 km/h (4 Bft) W-SW 248 0 min 0,000 mm 0,0 UV-I 0 W/m 1,9 C -7,4 C 53,1 km/h (7 Bft) 95,74 %
28.12.2016 02:30 3,7 C 87 % 1037,0 hPa 0,0 l/m 27,8 km/h (4 Bft) W-SW 257 0 min 0,000 mm 0,0 UV-I 0 W/m 1,7 C -7,6 C 40,2 km/h (6 Bft) 100,00 %
28.12.2016 02:32 3,7 C 87 % 1037,0 hPa 0,0 l/m 24,4 km/h (4 Bft) W 261 0 min 0,000 mm 0,0 UV-I 0 W/m 1,7 C -6,5 C 41,8 km/h (6 Bft) 97,87 %
28.12.2016 02:34 3,8 C 87 % 1037,0 hPa 0,0 l/m 25,8 km/h (4 Bft) W-SW 246 0 min 0,000 mm 0,0 UV-I 0 W/m 1,8 C -6,8 C 35,4 km/h (5 Bft) 100,00 %
28.12.2016 02:36 3,8 C 87 % 1036,9 hPa 0,0 l/m 22,1 km/h (4 Bft) SW 227 0 min 0,000 mm 0,0 UV-I 0 W/m 1,8 C -5,5 C 37,0 km/h (5 Bft) 97,87 %
28.12.2016 02:38 3,8 C 87 % 1037,0 hPa 0,0 l/m 22,5 km/h (4 Bft) W-SW 248 0 min 0,000 mm 0,0 UV-I 0 W/m 1,8 C -5,7 C 37,0 km/h (5 Bft) 100,00 %
28.12.2016 02:40 3,8 C 87 % 1037,0 hPa 0,0 l/m 26,3 km/h (4 Bft) W 259 0 min 0,000 mm 0,0 UV-I 0 W/m 1,8 C -7,0 C 40,2 km/h (6 Bft) 100,00 %
28.12.2016 02:42 3,8 C 87 % 1037,1 hPa 0,0 l/m 24,8 km/h (4 Bft) W 269 0 min 0,000 mm 0,0 UV-I 0 W/m 1,8 C -6,5 C 38,6 km/h (5 Bft) 97,87 %
28.12.2016 02:44 3,8 C 87 % 1036,9 hPa 0,0 l/m 22,9 km/h (4 Bft) W-SW 252 0 min 0,000 mm 0,0 UV-I 0 W/m 1,8 C -5,8 C 37,0 km/h (5 Bft) 97,87 %
28.12.2016 02:46 3,8 C 87 % 1036,9 hPa 0,0 l/m 24,4 km/h (4 Bft) W-SW 239 0 min 0,000 mm 0,0 UV-I 0 W/m 1,8 C -6,4 C 40,2 km/h (6 Bft) 98,00 %
28.12.2016 02:48 3,8 C 87 % 1036,8 hPa 0,0 l/m 26,8 km/h (4 Bft) W-NW 300 0 min 0,000 mm 0,0 UV-I 0 W/m 1,8 C -7,1 C 38,6 km/h (5 Bft) 100,00 %
28.12.2016 02:50 3,8 C 87 % 1036,8 hPa 0,0 l/m 30,4 km/h (5 Bft) SW 229 0 min 0,000 mm 0,0 UV-I 0 W/m 1,8 C -8,2 C 45,1 km/h (6 Bft) 100,00 %
28.12.2016 02:52 3,8 C 87 % 1036,8 hPa 0,0 l/m 27,4 km/h (4 Bft) W-SW 257 0 min 0,000 mm 0,0 UV-I 0 W/m 1,8 C -7,3 C 45,1 km/h (6 Bft) 97,87 %
28.12.2016 02:54 3,8 C 87 % 1036,7 hPa 0,0 l/m 23,8 km/h (4 Bft) W 263 0 min 0,000 mm 0,0 UV-I 0 W/m 1,8 C -6,2 C 37,0 km/h (5 Bft) 100,00 %
28.12.2016 02:56 3,8 C 86 % 1036,8 hPa 0,0 l/m 29,5 km/h (5 Bft) W-SW 257 0 min 0,000 mm 0,0 UV-I 0 W/m 1,7 C -7,9 C 38,6 km/h (5 Bft) 100,00 %
28.12.2016 02:58 3,9 C 86 % 1036,7 hPa 0,0 l/m 26,9 km/h (4 Bft) W-SW 246 0 min 0,000 mm 0,0 UV-I 0 W/m 1,8 C -7,0 C 41,8 km/h (6 Bft) 100,00 %
28.12.2016 03:00 3,9 C 86 % 1036,9 hPa 0,0 l/m 26,1 km/h (4 Bft) W-SW 248 0 min 0,025 mm 0,0 UV-I 0 W/m 1,8 C -6,8 C 37,0 km/h (5 Bft) 97,87 %
28.12.2016 03:02 3,9 C 86 % 1036,9 hPa 0,0 l/m 27,3 km/h (4 Bft) W-NW 284 0 min 0,000 mm 0,0 UV-I 0 W/m 1,8 C -7,2 C 41,8 km/h (6 Bft) 98,00 %
28.12.2016 03:04 3,9 C 86 % 1037,0 hPa 0,0 l/m 22,5 km/h (4 Bft) W 267 0 min 0,000 mm 0,0 UV-I 0 W/m 1,8 C -5,6 C 37,0 km/h (5 Bft) 100,00 %
28.12.2016 03:06 3,9 C 86 % 1036,9 hPa 0,0 l/m 21,4 km/h (4 Bft) W-SW 257 0 min 0,000 mm 0,0 UV-I 0 W/m 1,8 C -5,2 C 43,5 km/h (6 Bft) 100,00 %
28.12.2016 03:08 3,9 C 86 % 1036,9 hPa 0,0 l/m 27,3 km/h (4 Bft) W-SW 257 0 min 0,000 mm 0,0 UV-I 0 W/m 1,8 C -7,2 C 45,1 km/h (6 Bft) 100,00 %
28.12.2016 03:10 3,9 C 86 % 1036,8 hPa 0,0 l/m 28,1 km/h (4 Bft) W-NW 287 0 min 0,000 mm 0,0 UV-I 0 W/m 1,8 C -7,4 C 49,9 km/h (6 Bft) 100,00 %
28.12.2016 03:12 3,9 C 86 % 1037,0 hPa 0,0 l/m 21,8 km/h (4 Bft) W 261 0 min 0,000 mm 0,0 UV-I 0 W/m 1,8 C -5,3 C 32,2 km/h (5 Bft) 95,74 %
28.12.2016 03:14 3,9 C 86 % 1037,0 hPa 0,0 l/m 27,2 km/h (4 Bft) W-NW 293 0 min 0,000 mm 0,0 UV-I 0 W/m 1,8 C -7,1 C 46,7 km/h (6 Bft) 100,00 %
28.12.2016 03:16 4,0 C 85 % 1037,0 hPa 0,0 l/m 22,8 km/h (4 Bft) W 269 0 min 0,000 mm 0,0 UV-I 0 W/m 1,7 C -5,5 C 37,0 km/h (5 Bft) 97,87 %
28.12.2016 03:18 4,0 C 85 % 1036,9 hPa 0,0 l/m 21,2 km/h (4 Bft) W-NW 287 0 min 0,000 mm 0,0 UV-I 0 W/m 1,7 C -4,9 C 30,6 km/h (5 Bft) 100,00 %
28.12.2016 03:20 4,0 C 85 % 1036,9 hPa 0,0 l/m 19,1 km/h (3 Bft) W-SW 238 0 min 0,000 mm 0,0 UV-I 0 W/m 1,7 C -4,1 C 32,2 km/h (5 Bft) 98,39 %
28.12.2016 03:22 4,0 C 85 % 1036,8 hPa 0,0 l/m 22,0 km/h (4 Bft) W 261 0 min 0,000 mm 0,0 UV-I 0 W/m 1,7 C -5,2 C 37,0 km/h (5 Bft) 97,87 %
28.12.2016 03:24 4,0 C 85 % 1036,7 hPa 0,0 l/m 24,9 km/h (4 Bft) W 263 0 min 0,000 mm 0,0 UV-I 0 W/m 1,7 C -6,3 C 37,0 km/h (5 Bft) 95,74 %
28.12.2016 03:26 4,0 C 85 % 1036,9 hPa 0,0 l/m 24,8 km/h (4 Bft) W 264 0 min 0,000 mm 0,0 UV-I 0 W/m 1,7 C -6,2 C 41,8 km/h (6 Bft) 100,00 %
28.12.2016 03:28 4,1 C 85 % 1036,8 hPa 0,0 l/m 20,2 km/h (4 Bft) W-SW 254 0 min 0,000 mm 0,0 UV-I 0 W/m 1,8 C -4,4 C 35,4 km/h (5 Bft) 98,00 %
28.12.2016 03:30 4,1 C 85 % 1036,9 hPa 0,0 l/m 18,6 km/h (3 Bft) W 273 0 min 0,000 mm 0,0 UV-I 0 W/m 1,8 C -3,7 C 27,4 km/h (4 Bft) 100,00 %
28.12.2016 03:32 4,1 C 85 % 1037,1 hPa 0,0 l/m 22,4 km/h (4 Bft) W 264 0 min 0,000 mm 0,0 UV-I 0 W/m 1,8 C -5,3 C 33,8 km/h (5 Bft) 97,87 %
28.12.2016 03:34 4,1 C 85 % 1037,1 hPa 0,0 l/m 21,6 km/h (4 Bft) W-SW 244 0 min 0,000 mm 0,0 UV-I 0 W/m 1,8 C -5,0 C 35,4 km/h (5 Bft) 97,87 %
28.12.2016 03:36 4,1 C 85 % 1037,1 hPa 0,0 l/m 22,6 km/h (4 Bft) W 265 0 min 0,000 mm 0,0 UV-I 0 W/m 1,8 C -5,3 C 46,7 km/h (6 Bft) 96,00 %
28.12.2016 03:38 4,1 C 84 % 1037,0 hPa 0,0 l/m 22,4 km/h (4 Bft) SW 236 0 min 0,000 mm 0,0 UV-I 0 W/m 1,6 C -5,3 C 33,8 km/h (5 Bft) 97,87 %
28.12.2016 03:40 4,1 C 84 % 1037,0 hPa 0,0 l/m 22,8 km/h (4 Bft) W-SW 254 0 min 0,000 mm 0,0 UV-I 0 W/m 1,6 C -5,4 C 35,4 km/h (5 Bft) 97,37 %
28.12.2016 03:42 4,1 C 84 % 1037,1 hPa 0,0 l/m 18,2 km/h (3 Bft) W 260 0 min 0,000 mm 0,0 UV-I 0 W/m 1,6 C -3,6 C 27,4 km/h (4 Bft) 97,87 %
28.12.2016 03:44 4,1 C 84 % 1037,1 hPa 0,0 l/m 18,0 km/h (3 Bft) SW 233 0 min 0,000 mm 0,0 UV-I 0 W/m 1,6 C -3,5 C 24,1 km/h (4 Bft) 100,00 %
28.12.2016 03:46 4,1 C 84 % 1037,1 hPa 0,0 l/m 19,5 km/h (3 Bft) W 259 0 min 0,000 mm 0,0 UV-I 0 W/m 1,6 C -4,1 C 32,2 km/h (5 Bft) 97,87 %
28.12.2016 03:48 4,1 C 84 % 1037,1 hPa 0,0 l/m 26,2 km/h (4 Bft) W 265 0 min 0,000 mm 0,0 UV-I 0 W/m 1,6 C -6,5 C 45,1 km/h (6 Bft) 93,62 %
28.12.2016 03:50 4,1 C 84 % 1037,0 hPa 0,0 l/m 22,7 km/h (4 Bft) W-SW 254 0 min 0,000 mm 0,0 UV-I 0 W/m 1,6 C -5,4 C 35,4 km/h (5 Bft) 98,00 %
28.12.2016 03:52 4,1 C 84 % 1037,1 hPa 0,0 l/m 23,3 km/h (4 Bft) W-SW 247 0 min 0,000 mm 0,0 UV-I 0 W/m 1,6 C -5,6 C 37,0 km/h (5 Bft) 97,87 %
28.12.2016 03:54 4,1 C 84 % 1037,0 hPa 0,0 l/m 21,7 km/h (4 Bft) SW 236 0 min 0,000 mm 0,0 UV-I 0 W/m 1,6 C -5,0 C 41,8 km/h (6 Bft) 97,87 %
28.12.2016 03:56 4,1 C 84 % 1037,0 hPa 0,0 l/m 24,1 km/h (4 Bft) W 261 0 min 0,000 mm 0,0 UV-I 0 W/m 1,6 C -5,9 C 37,0 km/h (5 Bft) 97,87 %
28.12.2016 03:58 4,1 C 84 % 1037,0 hPa 0,0 l/m 22,8 km/h (4 Bft) SW 221 0 min 0,000 mm 0,0 UV-I 0 W/m 1,6 C -5,4 C 38,6 km/h (5 Bft) 97,87 %
28.12.2016 04:00 4,1 C 84 % 1037,0 hPa 0,0 l/m 20,7 km/h (4 Bft) W-SW 253 0 min 0,026 mm 0,0 UV-I 0 W/m 1,6 C -4,6 C 30,6 km/h (5 Bft) 95,83 %
28.12.2016 04:02 4,2 C 84 % 1036,9 hPa 0,0 l/m 20,0 km/h (4 Bft) W 262 0 min 0,000 mm 0,0 UV-I 0 W/m 1,7 C -4,2 C 41,8 km/h (6 Bft) 100,00 %
28.12.2016 04:04 4,2 C 84 % 1036,8 hPa 0,0 l/m 25,1 km/h (4 Bft) W 261 0 min 0,000 mm 0,0 UV-I 0 W/m 1,7 C -6,1 C 40,2 km/h (6 Bft) 95,74 %
28.12.2016 04:06 4,2 C 84 % 1036,9 hPa 0,0 l/m 20,5 km/h (4 Bft) W 261 0 min 0,000 mm 0,0 UV-I 0 W/m 1,7 C -4,4 C 41,8 km/h (6 Bft) 95,74 %
28.12.2016 04:08 4,2 C 84 % 1036,9 hPa 0,0 l/m 21,6 km/h (4 Bft) W-NW 293 0 min 0,000 mm 0,0 UV-I 0 W/m 1,7 C -4,8 C 32,2 km/h (5 Bft) 97,87 %
28.12.2016 04:10 4,2 C 84 % 1036,9 hPa 0,0 l/m 19,6 km/h (3 Bft) W-SW 246 0 min 0,000 mm 0,0 UV-I 0 W/m 1,7 C -4,0 C 35,4 km/h (5 Bft) 97,87 %
28.12.2016 04:12 4,2 C 84 % 1036,8 hPa 0,0 l/m 23,2 km/h (4 Bft) W 270 0 min 0,000 mm 0,0 UV-I 0 W/m 1,7 C -5,4 C 40,2 km/h (6 Bft) 95,74 %
28.12.2016 04:14 4,2 C 84 % 1036,8 hPa 0,0 l/m 26,9 km/h (4 Bft) W 275 0 min 0,000 mm 0,0 UV-I 0 W/m 1,7 C -6,6 C 41,8 km/h (6 Bft) 97,37 %
28.12.2016 04:16 4,2 C 84 % 1036,8 hPa 0,0 l/m 19,5 km/h (3 Bft) W-SW 252 0 min 0,000 mm 0,0 UV-I 0 W/m 1,7 C -4,0 C 24,1 km/h (4 Bft) 97,14 %
28.12.2016 04:18 4,2 C 84 % 1036,8 hPa 0,0 l/m 27,8 km/h (4 Bft) W-SW 257 0 min 0,000 mm 0,0 UV-I 0 W/m 1,7 C -6,9 C 41,8 km/h (6 Bft) 96,77 %
28.12.2016 04:20 4,2 C 84 % 1036,7 hPa 0,0 l/m 28,3 km/h (4 Bft) SW 232 0 min 0,000 mm 0,0 UV-I 0 W/m 1,7 C -7,0 C 49,9 km/h (6 Bft) 95,74 %
28.12.2016 04:22 4,2 C 84 % 1036,7 hPa 0,0 l/m 33,7 km/h (5 Bft) S-SW 197 0 min 0,000 mm 0,0 UV-I 0 W/m 1,7 C -8,4 C 48,3 km/h (6 Bft) 95,74 %
28.12.2016 04:24 4,2 C 84 % 1036,7 hPa 0,0 l/m 23,0 km/h (4 Bft) W-SW 245 0 min 0,000 mm 0,0 UV-I 0 W/m 1,7 C -5,3 C 41,8 km/h (6 Bft) 100,00 %
28.12.2016 04:26 4,2 C 84 % 1036,6 hPa 0,0 l/m 25,2 km/h (4 Bft) W-SW 252 0 min 0,000 mm 0,0 UV-I 0 W/m 1,7 C -6,1 C 38,6 km/h (5 Bft) 97,87 %
28.12.2016 04:28 4,2 C 84 % 1036,6 hPa 0,0 l/m 23,2 km/h (4 Bft) W-SW 252 0 min 0,000 mm 0,0 UV-I 0 W/m 1,7 C -5,4 C 32,2 km/h (5 Bft) 97,87 %
28.12.2016 04:30 4,2 C 84 % 1036,6 hPa 0,0 l/m 26,6 km/h (4 Bft) W-SW 243 0 min 0,000 mm 0,0 UV-I 0 W/m 1,7 C -6,5 C 41,8 km/h (6 Bft) 95,74 %
28.12.2016 04:32 4,2 C 84 % 1036,7 hPa 0,0 l/m 25,7 km/h (4 Bft) W 279 0 min 0,000 mm 0,0 UV-I 0 W/m 1,7 C -6,3 C 40,2 km/h (6 Bft) 97,87 %
28.12.2016 04:34 4,2 C 84 % 1036,7 hPa 0,0 l/m 29,2 km/h (5 Bft) W 259 0 min 0,000 mm 0,0 UV-I 0 W/m 1,7 C -7,3 C 49,9 km/h (6 Bft) 98,00 %
28.12.2016 04:36 4,2 C 84 % 1036,7 hPa 0,0 l/m 22,4 km/h (4 Bft) W-NW 285 0 min 0,000 mm 0,0 UV-I 0 W/m 1,7 C -5,1 C 30,6 km/h (5 Bft) 95,83 %
28.12.2016 04:38 4,2 C 84 % 1036,7 hPa 0,0 l/m 21,8 km/h (4 Bft) W-SW 252 0 min 0,000 mm 0,0 UV-I 0 W/m 1,7 C -4,9 C 35,4 km/h (5 Bft) 97,14 %
28.12.2016 04:40 4,2 C 84 % 1036,7 hPa 0,0 l/m 22,0 km/h (4 Bft) W-SW 250 0 min 0,000 mm 0,0 UV-I 0 W/m 1,7 C -5,0 C 33,8 km/h (5 Bft) 100,00 %
28.12.2016 04:42 4,2 C 85 % 1036,8 hPa 0,0 l/m 21,0 km/h (4 Bft) W-SW 251 0 min 0,000 mm 0,0 UV-I 0 W/m 1,9 C -4,6 C 30,6 km/h (5 Bft) 97,87 %
28.12.2016 04:44 4,1 C 85 % 1036,8 hPa 0,0 l/m 25,9 km/h (4 Bft) SW 224 0 min 0,000 mm 0,0 UV-I 0 W/m 1,8 C -6,5 C 38,6 km/h (5 Bft) 100,00 %
28.12.2016 04:46 4,1 C 85 % 1036,7 hPa 0,0 l/m 22,8 km/h (4 Bft) W-SW 258 0 min 0,000 mm 0,0 UV-I 0 W/m 1,8 C -5,4 C 32,2 km/h (5 Bft) 100,00 %
28.12.2016 04:48 4,1 C 85 % 1036,7 hPa 0,0 l/m 22,9 km/h (4 Bft) W-SW 250 0 min 0,000 mm 0,0 UV-I 0 W/m 1,8 C -5,4 C 38,6 km/h (5 Bft) 98,46 %
28.12.2016 04:50 4,1 C 85 % 1036,8 hPa 0,0 l/m 23,7 km/h (4 Bft) W-SW 252 0 min 0,000 mm 0,0 UV-I 0 W/m 1,8 C -5,7 C 32,2 km/h (5 Bft) 100,00 %
28.12.2016 04:52 4,0 C 85 % 1036,9 hPa 0,0 l/m 26,7 km/h (4 Bft) W-SW 250 0 min 0,000 mm 0,0 UV-I 0 W/m 1,7 C -6,8 C 40,2 km/h (6 Bft) 100,00 %
28.12.2016 04:54 4,0 C 85 % 1036,9 hPa 0,0 l/m 26,4 km/h (4 Bft) W-SW 257 0 min 0,000 mm 0,0 UV-I 0 W/m 1,7 C -6,7 C 37,0 km/h (5 Bft) 97,87 %
28.12.2016 04:56 4,0 C 85 % 1036,9 hPa 0,0 l/m 23,4 km/h (4 Bft) SW 234 0 min 0,000 mm 0,0 UV-I 0 W/m 1,7 C -5,8 C 37,0 km/h (5 Bft) 100,00 %
28.12.2016 04:58 4,0 C 85 % 1036,8 hPa 0,0 l/m 21,5 km/h (4 Bft) W 263 0 min 0,000 mm 0,0 UV-I 0 W/m 1,7 C -5,1 C 33,8 km/h (5 Bft) 100,00 %
28.12.2016 05:00 3,9 C 85 % 1036,8 hPa 0,0 l/m 23,4 km/h (4 Bft) W-SW 250 0 min 0,025 mm 0,0 UV-I 0 W/m 1,6 C -5,9 C 33,8 km/h (5 Bft) 100,00 %
28.12.2016 05:02 3,9 C 86 % 1036,8 hPa 0,0 l/m 20,8 km/h (4 Bft) W 267 0 min 0,000 mm 0,0 UV-I 0 W/m 1,8 C -4,9 C 33,8 km/h (5 Bft) 100,00 %
28.12.2016 05:04 3,9 C 86 % 1036,8 hPa 0,0 l/m 16,3 km/h (3 Bft) W-SW 254 0 min 0,000 mm 0,0 UV-I 0 W/m 1,8 C -2,9 C 30,6 km/h (5 Bft) 100,00 %
28.12.2016 05:06 3,9 C 86 % 1036,8 hPa 0,0 l/m 23,8 km/h (4 Bft) W-SW 256 0 min 0,000 mm 0,0 UV-I 0 W/m 1,8 C -6,0 C 41,8 km/h (6 Bft) 100,00 %
28.12.2016 05:08 3,9 C 86 % 1036,7 hPa 0,0 l/m 22,6 km/h (4 Bft) W-SW 244 0 min 0,000 mm 0,0 UV-I 0 W/m 1,8 C -5,6 C 32,2 km/h (5 Bft) 97,87 %
28.12.2016 05:10 3,9 C 86 % 1036,8 hPa 0,0 l/m 22,6 km/h (4 Bft) W 263 0 min 0,000 mm 0,0 UV-I 0 W/m 1,8 C -5,6 C 38,6 km/h (5 Bft) 97,87 %
28.12.2016 05:12 3,9 C 86 % 1036,7 hPa 0,0 l/m 22,7 km/h (4 Bft) W-SW 255 0 min 0,000 mm 0,0 UV-I 0 W/m 1,8 C -5,6 C 41,8 km/h (6 Bft) 97,87 %
28.12.2016 05:14 3,9 C 86 % 1036,7 hPa 0,0 l/m 22,0 km/h (4 Bft) W 275 0 min 0,000 mm 0,0 UV-I 0 W/m 1,8 C -5,4 C 33,8 km/h (5 Bft) 100,00 %
28.12.2016 05:16 3,9 C 86 % 1036,7 hPa 0,0 l/m 25,5 km/h (4 Bft) W-SW 256 0 min 0,000 mm 0,0 UV-I 0 W/m 1,8 C -6,6 C 32,2 km/h (5 Bft) 98,00 %
28.12.2016 05:18 3,9 C 86 % 1036,6 hPa 0,0 l/m 21,7 km/h (4 Bft) W-SW 250 0 min 0,000 mm 0,0 UV-I 0 W/m 1,8 C -5,3 C 38,6 km/h (5 Bft) 100,00 %
28.12.2016 05:20 3,9 C 86 % 1036,6 hPa 0,0 l/m 26,2 km/h (4 Bft) W-SW 242 0 min 0,000 mm 0,0 UV-I 0 W/m 1,8 C -6,8 C 43,5 km/h (6 Bft) 97,87 %
28.12.2016 05:22 3,9 C 86 % 1036,6 hPa 0,0 l/m 28,4 km/h (4 Bft) W-SW 254 0 min 0,000 mm 0,0 UV-I 0 W/m 1,8 C -7,5 C 45,1 km/h (6 Bft) 100,00 %
28.12.2016 05:24 3,9 C 86 % 1036,6 hPa 0,0 l/m 24,5 km/h (4 Bft) W-SW 245 0 min 0,000 mm 0,0 UV-I 0 W/m 1,8 C -6,3 C 35,4 km/h (5 Bft) 97,87 %
28.12.2016 05:26 3,9 C 86 % 1036,8 hPa 0,0 l/m 22,3 km/h (4 Bft) W 266 0 min 0,000 mm 0,0 UV-I 0 W/m 1,8 C -5,5 C 32,2 km/h (5 Bft) 100,00 %
28.12.2016 05:28 3,9 C 86 % 1036,6 hPa 0,0 l/m 22,8 km/h (4 Bft) W 267 0 min 0,000 mm 0,0 UV-I 0 W/m 1,8 C -5,7 C 37,0 km/h (5 Bft) 100,00 %
28.12.2016 05:30 3,9 C 86 % 1036,8 hPa 0,0 l/m 24,8 km/h (4 Bft) W-SW 248 0 min 0,000 mm 0,0 UV-I 0 W/m 1,8 C -6,4 C 40,2 km/h (6 Bft) 100,00 %
28.12.2016 05:32 3,9 C 86 % 1036,7 hPa 0,0 l/m 27,8 km/h (4 Bft) W-SW 252 0 min 0,000 mm 0,0 UV-I 0 W/m 1,8 C -7,3 C 41,8 km/h (6 Bft) 97,87 %
28.12.2016 05:34 3,9 C 86 % 1036,6 hPa 0,0 l/m 27,1 km/h (4 Bft) W-SW 258 0 min 0,000 mm 0,0 UV-I 0 W/m 1,8 C -7,1 C 40,2 km/h (6 Bft) 100,00 %
28.12.2016 05:36 3,9 C 86 % 1036,7 hPa 0,0 l/m 25,2 km/h (4 Bft) W 263 0 min 0,000 mm 0,0 UV-I 0 W/m 1,8 C -6,5 C 33,8 km/h (5 Bft) 100,00 %
28.12.2016 05:38 3,9 C 86 % 1036,7 hPa 0,0 l/m 24,8 km/h (4 Bft) W 273 0 min 0,000 mm 0,0 UV-I 0 W/m 1,8 C -6,4 C 38,6 km/h (5 Bft) 100,00 %
28.12.2016 05:40 3,9 C 86 % 1036,7 hPa 0,0 l/m 22,4 km/h (4 Bft) W 265 0 min 0,000 mm 0,0 UV-I 0 W/m 1,8 C -5,5 C 35,4 km/h (5 Bft) 100,00 %
28.12.2016 05:42 3,9 C 86 % 1036,7 hPa 0,0 l/m 23,4 km/h (4 Bft) SW 231 0 min 0,000 mm 0,0 UV-I 0 W/m 1,8 C -5,9 C 43,5 km/h (6 Bft) 97,87 %
28.12.2016 05:44 3,9 C 86 % 1036,7 hPa 0,0 l/m 26,1 km/h (4 Bft) W-NW 293 0 min 0,000 mm 0,0 UV-I 0 W/m 1,8 C -6,8 C 38,6 km/h (5 Bft) 100,00 %
28.12.2016 05:46 3,9 C 86 % 1036,5 hPa 0,0 l/m 23,7 km/h (4 Bft) W-SW 240 0 min 0,000 mm 0,0 UV-I 0 W/m 1,8 C -6,0 C 41,8 km/h (6 Bft) 97,87 %
28.12.2016 05:48 3,9 C 86 % 1036,6 hPa 0,0 l/m 25,9 km/h (4 Bft) SW 227 0 min 0,000 mm 0,0 UV-I 0 W/m 1,8 C -6,7 C 40,2 km/h (6 Bft) 100,00 %
28.12.2016 05:50 3,9 C 86 % 1036,6 hPa 0,0 l/m 21,5 km/h (4 Bft) W 264 0 min 0,000 mm 0,0 UV-I 0 W/m 1,8 C -5,2 C 29,0 km/h (5 Bft) 97,87 %
28.12.2016 05:52 3,9 C 86 % 1036,5 hPa 0,0 l/m 27,3 km/h (4 Bft) W-SW 255 0 min 0,000 mm 0,0 UV-I 0 W/m 1,8 C -7,2 C 38,6 km/h (5 Bft) 97,87 %
28.12.2016 05:54 3,9 C 86 % 1036,6 hPa 0,0 l/m 25,5 km/h (4 Bft) W 260 0 min 0,000 mm 0,0 UV-I 0 W/m 1,8 C -6,6 C 49,9 km/h (6 Bft) 97,37 %
28.12.2016 05:56 3,9 C 87 % 1036,5 hPa 0,0 l/m 28,0 km/h (4 Bft) W-SW 251 0 min 0,000 mm 0,0 UV-I 0 W/m 1,9 C -7,4 C 45,1 km/h (6 Bft) 97,87 %
28.12.2016 05:58 3,9 C 87 % 1036,5 hPa 0,0 l/m 18,5 km/h (3 Bft) W-SW 246 0 min 0,000 mm 0,0 UV-I 0 W/m 1,9 C -4,0 C 27,4 km/h (4 Bft) 97,87 %
28.12.2016 06:00 3,9 C 87 % 1036,6 hPa 0,0 l/m 29,4 km/h (5 Bft) W-SW 256 0 min 0,025 mm 0,0 UV-I 0 W/m 1,9 C -7,8 C 45,1 km/h (6 Bft) 97,87 %
28.12.2016 06:02 3,9 C 87 % 1036,6 hPa 0,0 l/m 26,6 km/h (4 Bft) W-SW 252 0 min 0,000 mm 0,0 UV-I 0 W/m 1,9 C -6,9 C 43,5 km/h (6 Bft) 98,00 %
28.12.2016 06:04 3,9 C 87 % 1036,6 hPa 0,0 l/m 25,1 km/h (4 Bft) W 267 0 min 0,000 mm 0,0 UV-I 0 W/m 1,9 C -6,5 C 37,0 km/h (5 Bft) 96,00 %
28.12.2016 06:06 3,8 C 87 % 1036,6 hPa 0,0 l/m 28,5 km/h (4 Bft) W-SW 242 0 min 0,000 mm 0,0 UV-I 0 W/m 1,8 C -7,6 C 40,2 km/h (6 Bft) 95,74 %
28.12.2016 06:08 3,8 C 87 % 1036,6 hPa 0,0 l/m 23,2 km/h (4 Bft) W 273 0 min 0,000 mm 0,0 UV-I 0 W/m 1,8 C -6,0 C 32,2 km/h (5 Bft) 97,87 %
28.12.2016 06:10 3,8 C 87 % 1036,6 hPa 0,0 l/m 23,7 km/h (4 Bft) W-SW 243 0 min 0,000 mm 0,0 UV-I 0 W/m 1,8 C -6,1 C 35,4 km/h (5 Bft) 97,87 %
28.12.2016 06:12 3,8 C 87 % 1036,7 hPa 0,0 l/m 23,7 km/h (4 Bft) W-SW 252 0 min 0,000 mm 0,0 UV-I 0 W/m 1,8 C -6,1 C 41,8 km/h (6 Bft) 95,74 %
28.12.2016 06:14 3,8 C 87 % 1036,7 hPa 0,0 l/m 29,4 km/h (5 Bft) W-SW 248 0 min 0,000 mm 0,0 UV-I 0 W/m 1,8 C -7,9 C 49,9 km/h (6 Bft) 95,00 %
28.12.2016 06:16 3,8 C 87 % 1036,6 hPa 0,0 l/m 21,6 km/h (4 Bft) W-SW 252 0 min 0,000 mm 0,0 UV-I 0 W/m 1,8 C -5,4 C 32,2 km/h (5 Bft) 98,00 %
28.12.2016 06:18 3,8 C 87 % 1036,5 hPa 0,0 l/m 24,4 km/h (4 Bft) W-SW 238 0 min 0,000 mm 0,0 UV-I 0 W/m 1,8 C -6,4 C 38,6 km/h (5 Bft) 98,00 %
28.12.2016 06:20 3,8 C 87 % 1036,5 hPa 0,0 l/m 26,5 km/h (4 Bft) W-SW 240 0 min 0,000 mm 0,0 UV-I 0 W/m 1,8 C -7,0 C 38,6 km/h (5 Bft) 95,74 %
28.12.2016 06:22 3,8 C 87 % 1036,5 hPa 0,0 l/m 23,2 km/h (4 Bft) W-SW 238 0 min 0,000 mm 0,0 UV-I 0 W/m 1,8 C -6,0 C 37,0 km/h (5 Bft) 97,87 %
28.12.2016 06:24 3,8 C 87 % 1036,5 hPa 0,0 l/m 22,2 km/h (4 Bft) W 259 0 min 0,000 mm 0,0 UV-I 0 W/m 1,8 C -5,6 C 32,2 km/h (5 Bft) 95,74 %
28.12.2016 06:26 3,8 C 88 % 1036,5 hPa 0,0 l/m 24,1 km/h (4 Bft) W-SW 249 0 min 0,000 mm 0,0 UV-I 0 W/m 2,0 C -6,3 C 33,8 km/h (5 Bft) 97,87 %
28.12.2016 06:28 3,8 C 88 % 1036,5 hPa 0,0 l/m 28,0 km/h (4 Bft) W-SW 257 0 min 0,000 mm 0,0 UV-I 0 W/m 2,0 C -7,5 C 43,5 km/h (6 Bft) 100,00 %
28.12.2016 06:30 3,8 C 87 % 1036,5 hPa 0,0 l/m 27,1 km/h (4 Bft) W-SW 251 0 min 0,000 mm 0,0 UV-I 0 W/m 1,8 C -7,2 C 43,5 km/h (6 Bft) 100,00 %
28.12.2016 06:32 3,8 C 87 % 1036,6 hPa 0,0 l/m 26,1 km/h (4 Bft) W-SW 238 0 min 0,000 mm 0,0 UV-I 0 W/m 1,8 C -6,9 C 41,8 km/h (6 Bft) 100,00 %
28.12.2016 06:34 3,8 C 87 % 1036,5 hPa 0,0 l/m 24,6 km/h (4 Bft) S-SW 213 0 min 0,000 mm 0,0 UV-I 0 W/m 1,8 C -6,4 C 35,4 km/h (5 Bft) 100,00 %
28.12.2016 06:36 3,8 C 87 % 1036,5 hPa 0,0 l/m 27,6 km/h (4 Bft) W-SW 256 0 min 0,000 mm 0,0 UV-I 0 W/m 1,8 C -7,4 C 43,5 km/h (6 Bft) 95,83 %
28.12.2016 06:38 3,8 C 87 % 1036,6 hPa 0,0 l/m 25,9 km/h (4 Bft) W 259 0 min 0,000 mm 0,0 UV-I 0 W/m 1,8 C -6,9 C 43,5 km/h (6 Bft) 97,87 %
28.12.2016 06:40 3,8 C 87 % 1036,7 hPa 0,0 l/m 25,7 km/h (4 Bft) W-SW 252 0 min 0,000 mm 0,0 UV-I 0 W/m 1,8 C -6,8 C 37,0 km/h (5 Bft) 100,00 %
28.12.2016 06:42 3,8 C 87 % 1036,7 hPa 0,0 l/m 27,1 km/h (4 Bft) W-SW 247 0 min 0,000 mm 0,0 UV-I 0 W/m 1,8 C -7,2 C 37,0 km/h (5 Bft) 100,00 %
28.12.2016 06:44 3,8 C 87 % 1036,8 hPa 0,0 l/m 23,1 km/h (4 Bft) W 261 0 min 0,000 mm 0,0 UV-I 0 W/m 1,8 C -5,9 C 40,2 km/h (6 Bft) 100,00 %
28.12.2016 06:46 3,8 C 87 % 1036,8 hPa 0,0 l/m 21,5 km/h (4 Bft) SW 224 0 min 0,000 mm 0,0 UV-I 0 W/m 1,8 C -5,3 C 32,2 km/h (5 Bft) 100,00 %
28.12.2016 06:48 3,8 C 87 % 1036,8 hPa 0,0 l/m 22,4 km/h (4 Bft) W 264 0 min 0,000 mm 0,0 UV-I 0 W/m 1,8 C -5,7 C 37,0 km/h (5 Bft) 100,00 %
28.12.2016 06:50 3,8 C 87 % 1036,9 hPa 0,0 l/m 25,3 km/h (4 Bft) W-SW 257 0 min 0,000 mm 0,0 UV-I 0 W/m 1,8 C -6,7 C 43,5 km/h (6 Bft) 100,00 %
28.12.2016 06:52 3,8 C 87 % 1036,9 hPa 0,0 l/m 27,2 km/h (4 Bft) W 261 0 min 0,000 mm 0,0 UV-I 0 W/m 1,8 C -7,3 C 37,0 km/h (5 Bft) 100,00 %
28.12.2016 06:54 3,9 C 87 % 1036,8 hPa 0,0 l/m 22,2 km/h (4 Bft) S-SW 207 0 min 0,000 mm 0,0 UV-I 0 W/m 1,9 C -5,5 C 29,0 km/h (5 Bft) 100,00 %
28.12.2016 06:56 3,9 C 87 % 1036,8 hPa 0,0 l/m 20,7 km/h (4 Bft) W-SW 242 0 min 0,000 mm 0,0 UV-I 0 W/m 1,9 C -4,9 C 30,6 km/h (5 Bft) 97,87 %
28.12.2016 06:58 3,9 C 87 % 1036,7 hPa 0,0 l/m 29,2 km/h (5 Bft) W-SW 255 0 min 0,000 mm 0,0 UV-I 0 W/m 1,9 C -7,7 C 40,2 km/h (6 Bft) 97,87 %
28.12.2016 07:00 3,9 C 86 % 1036,7 hPa 0,0 l/m 21,6 km/h (4 Bft) W-SW 242 0 min 0,026 mm 0,0 UV-I 0 W/m 1,8 C -5,2 C 30,6 km/h (5 Bft) 100,00 %
28.12.2016 07:02 3,9 C 86 % 1036,7 hPa 0,0 l/m 24,2 km/h (4 Bft) W 265 0 min 0,000 mm 0,0 UV-I 0 W/m 1,8 C -6,2 C 35,4 km/h (5 Bft) 100,00 %
28.12.2016 07:04 4,0 C 86 % 1036,7 hPa 0,0 l/m 23,3 km/h (4 Bft) W-SW 242 0 min 0,000 mm 0,0 UV-I 0 W/m 1,9 C -5,7 C 40,2 km/h (6 Bft) 100,00 %
28.12.2016 07:06 4,0 C 86 % 1036,9 hPa 0,0 l/m 26,4 km/h (4 Bft) W-SW 242 0 min 0,000 mm 0,0 UV-I 0 W/m 1,9 C -6,7 C 38,6 km/h (5 Bft) 100,00 %
28.12.2016 07:08 4,1 C 86 % 1036,8 hPa 0,0 l/m 26,5 km/h (4 Bft) W 268 0 min 0,000 mm 0,0 UV-I 0 W/m 2,0 C -6,6 C 40,2 km/h (6 Bft) 100,00 %
28.12.2016 07:10 4,1 C 86 % 1036,7 hPa 0,0 l/m 27,3 km/h (4 Bft) W-SW 254 0 min 0,000 mm 0,0 UV-I 0 W/m 2,0 C -6,9 C 45,1 km/h (6 Bft) 95,74 %
28.12.2016 07:12 4,1 C 86 % 1036,7 hPa 0,0 l/m 21,5 km/h (4 Bft) SW 230 0 min 0,000 mm 0,0 UV-I 0 W/m 2,0 C -4,9 C 32,2 km/h (5 Bft) 100,00 %
28.12.2016 07:14 4,1 C 86 % 1036,8 hPa 0,0 l/m 25,6 km/h (4 Bft) W-SW 248 0 min 0,000 mm 0,0 UV-I 0 W/m 2,0 C -6,4 C 43,5 km/h (6 Bft) 100,00 %
28.12.2016 07:16 4,1 C 86 % 1036,9 hPa 0,0 l/m 23,6 km/h (4 Bft) W 263 0 min 0,000 mm 0,0 UV-I 0 W/m 2,0 C -5,7 C 38,6 km/h (5 Bft) 100,00 %
28.12.2016 07:18 4,1 C 86 % 1036,9 hPa 0,0 l/m 29,3 km/h (5 Bft) W 266 0 min 0,000 mm 0,0 UV-I 0 W/m 2,0 C -7,5 C 43,5 km/h (6 Bft) 100,00 %
28.12.2016 07:20 4,1 C 86 % 1036,9 hPa 0,0 l/m 25,6 km/h (4 Bft) W-SW 246 0 min 0,000 mm 0,0 UV-I 0 W/m 2,0 C -6,4 C 45,1 km/h (6 Bft) 100,00 %
28.12.2016 07:22 4,1 C 86 % 1037,0 hPa 0,0 l/m 29,1 km/h (5 Bft) W 266 0 min 0,000 mm 0,0 UV-I 0 W/m 2,0 C -7,4 C 41,8 km/h (6 Bft) 100,00 %
28.12.2016 07:24 4,0 C 86 % 1036,9 hPa 0,0 l/m 27,3 km/h (4 Bft) W-SW 254 0 min 0,000 mm 0,0 UV-I 0 W/m 1,9 C -7,0 C 37,0 km/h (5 Bft) 95,74 %
28.12.2016 07:26 4,0 C 87 % 1037,0 hPa 0,0 l/m 25,3 km/h (4 Bft) W 263 0 min 0,000 mm 0,0 UV-I 0 W/m 2,0 C -6,4 C 46,7 km/h (6 Bft) 97,87 %
28.12.2016 07:28 4,0 C 87 % 1037,1 hPa 0,0 l/m 20,6 km/h (4 Bft) W-SW 242 0 min 0,000 mm 0,0 UV-I 0 W/m 2,0 C -4,7 C 30,6 km/h (5 Bft) 100,00 %
28.12.2016 07:30 4,0 C 86 % 1037,1 hPa 0,0 l/m 25,3 km/h (4 Bft) W-SW 256 0 min 0,000 mm 0,0 UV-I 0 W/m 1,9 C -6,4 C 48,3 km/h (6 Bft) 97,56 %
28.12.2016 07:32 4,0 C 87 % 1037,2 hPa 0,0 l/m 20,6 km/h (4 Bft) SW 229 0 min 0,000 mm 0,0 UV-I 0 W/m 2,0 C -4,7 C 29,0 km/h (5 Bft) 100,00 %
28.12.2016 07:34 4,0 C 87 % 1037,2 hPa 0,0 l/m 21,7 km/h (4 Bft) W-NW 286 0 min 0,000 mm 0,0 UV-I 0 W/m 2,0 C -5,1 C 30,6 km/h (5 Bft) 100,00 %
28.12.2016 07:36 4,0 C 86 % 1037,2 hPa 0,0 l/m 23,2 km/h (4 Bft) W 263 0 min 0,000 mm 0,0 UV-I 0 W/m 1,9 C -5,7 C 33,8 km/h (5 Bft) 100,00 %
28.12.2016 07:38 4,0 C 86 % 1037,3 hPa 0,0 l/m 17,3 km/h (3 Bft) NW 309 0 min 0,000 mm 0,0 UV-I 0 W/m 1,9 C -3,3 C 25,7 km/h (4 Bft) 93,62 %
28.12.2016 07:40 4,0 C 86 % 1037,3 hPa 0,0 l/m 18,8 km/h (3 Bft) W-SW 244 0 min 0,000 mm 0,0 UV-I 0 W/m 1,9 C -4,0 C 35,4 km/h (5 Bft) 100,00 %
28.12.2016 07:42 4,0 C 86 % 1037,3 hPa 0,0 l/m 24,1 km/h (4 Bft) W-SW 255 0 min 0,000 mm 0,0 UV-I 0 W/m 1,9 C -6,0 C 40,2 km/h (6 Bft) 100,00 %
28.12.2016 07:44 4,1 C 86 % 1037,4 hPa 0,0 l/m 23,9 km/h (4 Bft) SW 233 0 min 0,000 mm 0,0 UV-I 0 W/m 2,0 C -5,8 C 43,5 km/h (6 Bft) 100,00 %
28.12.2016 07:46 4,1 C 86 % 1037,3 hPa 0,0 l/m 22,3 km/h (4 Bft) W-SW 251 0 min 0,000 mm 0,0 UV-I 0 W/m 2,0 C -5,2 C 32,2 km/h (5 Bft) 100,00 %
28.12.2016 07:48 4,1 C 86 % 1037,4 hPa 0,0 l/m 23,9 km/h (4 Bft) SW 227 0 min 0,000 mm 0,0 UV-I 0 W/m 2,0 C -5,8 C 40,2 km/h (6 Bft) 100,00 %
28.12.2016 07:50 4,1 C 86 % 1037,3 hPa 0,0 l/m 23,6 km/h (4 Bft) W 265 0 min 0,000 mm 0,0 UV-I 0 W/m 2,0 C -5,7 C 35,4 km/h (5 Bft) 100,00 %
28.12.2016 07:52 4,1 C 86 % 1037,3 hPa 0,0 l/m 23,9 km/h (4 Bft) W 267 0 min 0,000 mm 0,0 UV-I 0 W/m 2,0 C -5,8 C 45,1 km/h (6 Bft) 96,00 %
28.12.2016 07:54 4,1 C 86 % 1037,3 hPa 0,0 l/m 21,3 km/h (4 Bft) W-SW 248 0 min 0,000 mm 0,0 UV-I 0 W/m 2,0 C -4,9 C 32,2 km/h (5 Bft) 97,87 %
28.12.2016 07:56 4,1 C 86 % 1037,3 hPa 0,0 l/m 24,2 km/h (4 Bft) SW 228 0 min 0,000 mm 0,0 UV-I 0 W/m 2,0 C -5,9 C 38,6 km/h (5 Bft) 97,87 %
28.12.2016 07:58 4,1 C 86 % 1037,4 hPa 0,0 l/m 20,1 km/h (4 Bft) W-SW 252 0 min 0,000 mm 0,0 UV-I 0 W/m 2,0 C -4,4 C 25,7 km/h (4 Bft) 93,62 %
28.12.2016 08:00 4,1 C 86 % 1037,4 hPa 0,0 l/m 27,8 km/h (4 Bft) W-SW 239 0 min 0,025 mm 0,0 UV-I 0 W/m 2,0 C -7,0 C 41,8 km/h (6 Bft) 93,62 %
28.12.2016 08:02 4,1 C 86 % 1037,5 hPa 0,0 l/m 22,9 km/h (4 Bft) W-SW 256 0 min 0,000 mm 0,0 UV-I 0 W/m 2,0 C -5,4 C 33,8 km/h (5 Bft) 97,87 %
28.12.2016 08:04 4,1 C 86 % 1037,5 hPa 0,0 l/m 24,7 km/h (4 Bft) SW 225 0 min 0,000 mm 0,0 UV-I 0 W/m 2,0 C -6,1 C 40,2 km/h (6 Bft) 95,74 %
28.12.2016 08:06 4,1 C 86 % 1037,5 hPa 0,0 l/m 20,1 km/h (4 Bft) W-SW 257 0 min 0,000 mm 0,0 UV-I 0 W/m 2,0 C -4,4 C 29,0 km/h (5 Bft) 95,74 %
28.12.2016 08:08 4,1 C 86 % 1037,6 hPa 0,0 l/m 23,7 km/h (4 Bft) SW 234 0 min 0,000 mm 0,0 UV-I 0 W/m 2,0 C -5,7 C 32,2 km/h (5 Bft) 97,87 %
28.12.2016 08:10 4,1 C 86 % 1037,6 hPa 0,0 l/m 23,3 km/h (4 Bft) W 263 0 min 0,000 mm 0,0 UV-I 0 W/m 2,0 C -5,6 C 38,6 km/h (5 Bft) 95,74 %
28.12.2016 08:12 4,1 C 87 % 1037,7 hPa 0,0 l/m 23,9 km/h (4 Bft) SW 231 0 min 0,000 mm 0,0 UV-I 0 W/m 2,1 C -5,8 C 29,0 km/h (5 Bft) 97,87 %
28.12.2016 08:14 4,1 C 87 % 1037,7 hPa 0,0 l/m 21,8 km/h (4 Bft) W 265 0 min 0,000 mm 0,0 UV-I 0 W/m 2,1 C -5,0 C 30,6 km/h (5 Bft) 98,00 %
28.12.2016 08:16 4,1 C 87 % 1037,7 hPa 0,0 l/m 18,7 km/h (3 Bft) SW 236 0 min 0,000 mm 0,0 UV-I 0 W/m 2,1 C -3,8 C 32,2 km/h (5 Bft) 98,00 %
28.12.2016 08:18 4,0 C 86 % 1037,7 hPa 0,0 l/m 21,8 km/h (4 Bft) SW 236 0 min 0,000 mm 0,0 UV-I 0 W/m 1,9 C -5,2 C 32,2 km/h (5 Bft) 97,37 %
28.12.2016 08:20 4,0 C 87 % 1037,7 hPa 0,0 l/m 21,0 km/h (4 Bft) W 262 0 min 0,000 mm 0,0 UV-I 0 W/m 2,0 C -4,9 C 27,4 km/h (4 Bft) 97,87 %
28.12.2016 08:22 4,0 C 87 % 1037,7 hPa 0,0 l/m 19,7 km/h (3 Bft) SW 228 0 min 0,000 mm 0,0 UV-I 0 W/m 2,0 C -4,3 C 30,6 km/h (5 Bft) 97,87 %
28.12.2016 08:24 4,1 C 87 % 1037,7 hPa 0,0 l/m 20,6 km/h (4 Bft) W 263 0 min 0,000 mm 0,0 UV-I 0 W/m 2,1 C -4,6 C 30,6 km/h (5 Bft) 97,87 %
28.12.2016 08:26 4,1 C 87 % 1037,7 hPa 0,0 l/m 26,2 km/h (4 Bft) W-SW 243 0 min 0,000 mm 0,0 UV-I 0 W/m 2,1 C -6,5 C 37,0 km/h (5 Bft) 96,00 %
28.12.2016 08:28 4,0 C 87 % 1037,8 hPa 0,0 l/m 20,4 km/h (4 Bft) S-SW 193 0 min 0,000 mm 0,0 UV-I 0 W/m 2,0 C -4,6 C 29,0 km/h (5 Bft) 100,00 %
28.12.2016 08:30 4,0 C 87 % 1037,8 hPa 0,0 l/m 22,2 km/h (4 Bft) W 272 0 min 0,000 mm 0,0 UV-I 4 W/m 2,0 C -5,3 C 30,6 km/h (5 Bft) 100,00 %
28.12.2016 08:32 4,0 C 86 % 1037,8 hPa 0,0 l/m 18,8 km/h (3 Bft) W-SW 250 0 min 0,000 mm 0,0 UV-I 5 W/m 1,9 C -4,0 C 25,7 km/h (4 Bft) 97,87 %
28.12.2016 08:34 4,0 C 86 % 1037,7 hPa 0,0 l/m 22,6 km/h (4 Bft) W 269 0 min 0,000 mm 0,0 UV-I 5 W/m 1,9 C -5,5 C 33,8 km/h (5 Bft) 100,00 %
28.12.2016 08:36 4,1 C 86 % 1037,7 hPa 0,0 l/m 21,2 km/h (4 Bft) W-SW 245 0 min 0,000 mm 0,0 UV-I 5 W/m 2,0 C -4,8 C 32,2 km/h (5 Bft) 97,92 %
28.12.2016 08:38 4,1 C 86 % 1037,8 hPa 0,0 l/m 19,2 km/h (3 Bft) W-NW 303 0 min 0,000 mm 0,0 UV-I 5 W/m 2,0 C -4,0 C 32,2 km/h (5 Bft) 100,00 %
28.12.2016 08:40 4,1 C 86 % 1037,9 hPa 0,0 l/m 17,5 km/h (3 Bft) W-SW 254 0 min 0,000 mm 0,0 UV-I 5 W/m 2,0 C -3,2 C 29,0 km/h (5 Bft) 97,87 %
28.12.2016 08:42 4,1 C 86 % 1037,9 hPa 0,0 l/m 21,0 km/h (4 Bft) W-NW 290 0 min 0,000 mm 0,0 UV-I 5 W/m 2,0 C -4,7 C 35,4 km/h (5 Bft) 97,87 %
28.12.2016 08:44 4,1 C 86 % 1037,9 hPa 0,0 l/m 20,0 km/h (4 Bft) W-SW 254 0 min 0,000 mm 0,0 UV-I 5 W/m 2,0 C -4,3 C 30,6 km/h (5 Bft) 100,00 %
28.12.2016 08:46 4,1 C 86 % 1037,9 hPa 0,0 l/m 22,6 km/h (4 Bft) SW 225 0 min 0,000 mm 0,0 UV-I 5 W/m 2,0 C -5,3 C 32,2 km/h (5 Bft) 100,00 %
28.12.2016 08:48 4,1 C 86 % 1037,9 hPa 0,0 l/m 18,5 km/h (3 Bft) W-SW 246 0 min 0,000 mm 0,0 UV-I 5 W/m 2,0 C -3,7 C 29,0 km/h (5 Bft) 100,00 %
28.12.2016 08:50 4,1 C 86 % 1037,9 hPa 0,0 l/m 17,0 km/h (3 Bft) W 264 0 min 0,000 mm 0,0 UV-I 5 W/m 2,0 C -3,0 C 22,5 km/h (4 Bft) 97,87 %
28.12.2016 08:52 4,1 C 86 % 1037,9 hPa 0,0 l/m 19,8 km/h (3 Bft) W-SW 252 0 min 0,000 mm 0,0 UV-I 5 W/m 2,0 C -4,3 C 29,0 km/h (5 Bft) 97,87 %
28.12.2016 08:54 4,1 C 86 % 1037,9 hPa 0,0 l/m 18,6 km/h (3 Bft) W-SW 251 0 min 0,000 mm 0,0 UV-I 5 W/m 2,0 C -3,7 C 32,2 km/h (5 Bft) 97,87 %
28.12.2016 08:56 4,1 C 86 % 1038,0 hPa 0,0 l/m 22,7 km/h (4 Bft) W 267 0 min 0,000 mm 0,0 UV-I 5 W/m 2,0 C -5,4 C 32,2 km/h (5 Bft) 100,00 %
28.12.2016 08:58 4,1 C 86 % 1037,9 hPa 0,0 l/m 23,2 km/h (4 Bft) SW 226 0 min 0,000 mm 0,0 UV-I 5 W/m 2,0 C -5,6 C 37,0 km/h (5 Bft) 98,00 %
28.12.2016 09:00 4,1 C 86 % 1038,1 hPa 0,0 l/m 26,2 km/h (4 Bft) W 269 0 min 0,026 mm 0,0 UV-I 5 W/m 2,0 C -6,5 C 38,6 km/h (5 Bft) 98,04 %
28.12.2016 09:02 4,1 C 86 % 1038,1 hPa 0,0 l/m 25,7 km/h (4 Bft) W 275 0 min 0,000 mm 0,0 UV-I 5 W/m 2,0 C -6,4 C 40,2 km/h (6 Bft) 100,00 %
28.12.2016 09:04 4,1 C 86 % 1038,1 hPa 0,0 l/m 23,1 km/h (4 Bft) W-SW 246 0 min 0,000 mm 0,0 UV-I 5 W/m 2,0 C -5,5 C 40,2 km/h (6 Bft) 95,74 %
28.12.2016 09:06 4,1 C 86 % 1038,2 hPa 0,0 l/m 23,4 km/h (4 Bft) W-SW 252 0 min 0,000 mm 0,0 UV-I 5 W/m 2,0 C -5,6 C 35,4 km/h (5 Bft) 100,00 %
28.12.2016 09:08 4,1 C 86 % 1038,2 hPa 0,0 l/m 24,1 km/h (4 Bft) W 263 0 min 0,000 mm 0,0 UV-I 5 W/m 2,0 C -5,9 C 37,0 km/h (5 Bft) 97,87 %
28.12.2016 09:10 4,1 C 87 % 1038,2 hPa 0,0 l/m 19,3 km/h (3 Bft) W 267 0 min 0,000 mm 0,0 UV-I 5 W/m 2,1 C -4,0 C 29,0 km/h (5 Bft) 100,00 %
28.12.2016 09:12 4,1 C 87 % 1038,2 hPa 0,0 l/m 22,9 km/h (4 Bft) W-SW 239 0 min 0,000 mm 0,0 UV-I 5 W/m 2,1 C -5,4 C 38,6 km/h (5 Bft) 100,00 %
28.12.2016 09:14 4,1 C 86 % 1038,3 hPa 0,0 l/m 20,3 km/h (4 Bft) W-SW 245 0 min 0,000 mm 0,0 UV-I 7 W/m 2,0 C -4,5 C 35,4 km/h (5 Bft) 100,00 %
28.12.2016 09:16 4,0 C 86 % 1038,3 hPa 0,0 l/m 23,7 km/h (4 Bft) SW 231 0 min 0,000 mm 0,0 UV-I 7 W/m 1,9 C -5,9 C 30,6 km/h (5 Bft) 100,00 %
28.12.2016 09:18 4,1 C 86 % 1038,2 hPa 0,0 l/m 23,0 km/h (4 Bft) W-SW 256 0 min 0,000 mm 0,0 UV-I 7 W/m 2,0 C -5,5 C 35,4 km/h (5 Bft) 100,00 %
28.12.2016 09:20 4,1 C 87 % 1038,4 hPa 0,0 l/m 27,9 km/h (4 Bft) W-SW 241 0 min 0,000 mm 0,0 UV-I 6 W/m 2,1 C -7,1 C 38,6 km/h (5 Bft) 97,92 %
28.12.2016 09:22 4,1 C 86 % 1038,3 hPa 0,0 l/m 20,5 km/h (4 Bft) W-SW 256 0 min 0,000 mm 0,0 UV-I 7 W/m 2,0 C -4,5 C 29,0 km/h (5 Bft) 97,87 %
28.12.2016 09:24 4,1 C 87 % 1038,4 hPa 0,0 l/m 24,3 km/h (4 Bft) W-SW 246 0 min 0,000 mm 0,0 UV-I 7 W/m 2,1 C -5,9 C 43,5 km/h (6 Bft) 100,00 %
28.12.2016 09:26 4,1 C 87 % 1038,3 hPa 0,0 l/m 24,0 km/h (4 Bft) W 269 0 min 0,000 mm 0,0 UV-I 7 W/m 2,1 C -5,8 C 40,2 km/h (6 Bft) 98,00 %
28.12.2016 09:28 4,1 C 87 % 1038,3 hPa 0,0 l/m 17,0 km/h (3 Bft) W 261 0 min 0,000 mm 0,0 UV-I 9 W/m 2,1 C -3,0 C 27,4 km/h (4 Bft) 100,00 %
28.12.2016 09:30 4,1 C 87 % 1038,3 hPa 0,0 l/m 18,9 km/h (3 Bft) W-SW 246 0 min 0,000 mm 0,0 UV-I 7 W/m 2,1 C -3,9 C 32,2 km/h (5 Bft) 97,87 %
28.12.2016 09:32 4,1 C 87 % 1038,4 hPa 0,0 l/m 20,9 km/h (4 Bft) W 259 0 min 0,000 mm 0,0 UV-I 7 W/m 2,1 C -4,7 C 29,0 km/h (5 Bft) 100,00 %
28.12.2016 09:34 4,1 C 86 % 1038,4 hPa 0,0 l/m 22,9 km/h (4 Bft) W-SW 249 0 min 0,000 mm 0,0 UV-I 9 W/m 2,0 C -5,4 C 40,2 km/h (6 Bft) 93,62 %
28.12.2016 09:36 4,1 C 86 % 1038,4 hPa 0,0 l/m 21,6 km/h (4 Bft) S-SW 200 0 min 0,000 mm 0,0 UV-I 10 W/m 2,0 C -5,0 C 37,0 km/h (5 Bft) 97,87 %
28.12.2016 09:38 4,2 C 86 % 1038,4 hPa 0,0 l/m 22,7 km/h (4 Bft) W-SW 254 0 min 0,000 mm 0,0 UV-I 11 W/m 2,1 C -5,2 C 30,6 km/h (5 Bft) 100,00 %
28.12.2016 09:40 4,2 C 86 % 1038,4 hPa 0,0 l/m 19,1 km/h (3 Bft) W 273 0 min 0,000 mm 0,0 UV-I 12 W/m 2,1 C -3,8 C 30,6 km/h (5 Bft) 100,00 %
28.12.2016 09:42 4,2 C 86 % 1038,3 hPa 0,0 l/m 20,9 km/h (4 Bft) W-SW 258 0 min 0,000 mm 0,0 UV-I 11 W/m 2,1 C -4,6 C 30,6 km/h (5 Bft) 100,00 %
28.12.2016 09:44 4,2 C 86 % 1038,3 hPa 0,0 l/m 20,8 km/h (4 Bft) W 260 0 min 0,000 mm 0,0 UV-I 11 W/m 2,1 C -4,5 C 32,2 km/h (5 Bft) 95,74 %
28.12.2016 09:46 4,2 C 85 % 1038,3 hPa 0,0 l/m 19,5 km/h (3 Bft) W-SW 254 0 min 0,000 mm 0,0 UV-I 10 W/m 1,9 C -4,0 C 29,0 km/h (5 Bft) 100,00 %
28.12.2016 09:48 4,2 C 85 % 1038,4 hPa 0,0 l/m 22,8 km/h (4 Bft) SW 226 0 min 0,000 mm 0,0 UV-I 11 W/m 1,9 C -5,3 C 30,6 km/h (5 Bft) 100,00 %
28.12.2016 09:50 4,2 C 85 % 1038,3 hPa 0,0 l/m 18,6 km/h (3 Bft) W 272 0 min 0,000 mm 0,0 UV-I 11 W/m 1,9 C -3,6 C 32,2 km/h (5 Bft) 100,00 %
28.12.2016 09:52 4,3 C 85 % 1038,3 hPa 0,0 l/m 19,5 km/h (3 Bft) SW 225 0 min 0,000 mm 0,0 UV-I 11 W/m 2,0 C -3,9 C 27,4 km/h (4 Bft) 100,00 %
28.12.2016 09:54 4,3 C 85 % 1038,4 hPa 0,0 l/m 22,5 km/h (4 Bft) W 275 0 min 0,000 mm 0,0 UV-I 9 W/m 2,0 C -5,0 C 32,2 km/h (5 Bft) 100,00 %
28.12.2016 09:56 4,3 C 85 % 1038,4 hPa 0,0 l/m 20,8 km/h (4 Bft) W 266 0 min 0,000 mm 0,0 UV-I 10 W/m 2,0 C -4,4 C 35,4 km/h (5 Bft) 97,92 %
28.12.2016 09:58 4,3 C 85 % 1038,6 hPa 0,0 l/m 20,4 km/h (4 Bft) W 268 0 min 0,000 mm 0,0 UV-I 12 W/m 2,0 C -4,2 C 30,6 km/h (5 Bft) 97,37 %
28.12.2016 10:00 4,3 C 85 % 1038,6 hPa 0,0 l/m 19,5 km/h (3 Bft) W-SW 246 0 min 0,025 mm 0,0 UV-I 13 W/m 2,0 C -3,9 C 29,0 km/h (5 Bft) 95,74 %
28.12.2016 10:02 4,3 C 85 % 1038,6 hPa 0,0 l/m 20,4 km/h (4 Bft) W-SW 246 0 min 0,000 mm 0,0 UV-I 12 W/m 2,0 C -4,2 C 32,2 km/h (5 Bft) 95,74 %
28.12.2016 10:04 4,3 C 85 % 1038,5 hPa 0,0 l/m 19,5 km/h (3 Bft) W-SW 250 0 min 0,000 mm 0,0 UV-I 12 W/m 2,0 C -3,9 C 29,0 km/h (5 Bft) 97,87 %
28.12.2016 10:06 4,3 C 85 % 1038,5 hPa 0,0 l/m 20,3 km/h (4 Bft) SW 234 0 min 0,000 mm 0,0 UV-I 12 W/m 2,0 C -4,2 C 35,4 km/h (5 Bft) 97,87 %
28.12.2016 10:08 4,3 C 85 % 1038,6 hPa 0,0 l/m 15,7 km/h (3 Bft) W 265 0 min 0,000 mm 0,0 UV-I 14 W/m 2,0 C -2,1 C 20,9 km/h (4 Bft) 97,87 %
28.12.2016 10:10 4,3 C 85 % 1038,7 hPa 0,0 l/m 17,6 km/h (3 Bft) SW 234 0 min 0,000 mm 0,0 UV-I 14 W/m 2,0 C -3,0 C 25,7 km/h (4 Bft) 95,74 %
28.12.2016 10:12 4,3 C 85 % 1038,7 hPa 0,0 l/m 20,3 km/h (4 Bft) W-SW 257 0 min 0,000 mm 0,0 UV-I 18 W/m 2,0 C -4,2 C 37,0 km/h (5 Bft) 97,87 %
28.12.2016 10:14 4,3 C 85 % 1038,7 hPa 0,0 l/m 22,2 km/h (4 Bft) W-SW 254 0 min 0,000 mm 0,0 UV-I 16 W/m 2,0 C -4,9 C 37,0 km/h (5 Bft) 98,00 %
28.12.2016 10:16 4,3 C 85 % 1038,8 hPa 0,0 l/m 22,8 km/h (4 Bft) W-SW 255 0 min 0,000 mm 0,0 UV-I 14 W/m 2,0 C -5,1 C 32,2 km/h (5 Bft) 97,87 %
28.12.2016 10:18 4,3 C 85 % 1038,7 hPa 0,0 l/m 21,2 km/h (4 Bft) W-SW 257 0 min 0,000 mm 0,0 UV-I 13 W/m 2,0 C -4,6 C 35,4 km/h (5 Bft) 97,87 %
28.12.2016 10:20 4,3 C 85 % 1038,8 hPa 0,0 l/m 20,5 km/h (4 Bft) W 269 0 min 0,000 mm 0,0 UV-I 12 W/m 2,0 C -4,3 C 32,2 km/h (5 Bft) 97,87 %
28.12.2016 10:22 4,3 C 85 % 1038,8 hPa 0,0 l/m 26,7 km/h (4 Bft) W-SW 253 0 min 0,000 mm 0,0 UV-I 13 W/m 2,0 C -6,4 C 38,6 km/h (5 Bft) 98,00 %
28.12.2016 10:24 4,3 C 85 % 1038,7 hPa 0,0 l/m 21,4 km/h (4 Bft) W 263 0 min 0,000 mm 0,0 UV-I 15 W/m 2,0 C -4,6 C 33,8 km/h (5 Bft) 95,74 %
28.12.2016 10:26 4,3 C 85 % 1038,9 hPa 0,0 l/m 19,3 km/h (3 Bft) W 271 0 min 0,000 mm 0,0 UV-I 15 W/m 2,0 C -3,8 C 27,4 km/h (4 Bft) 95,74 %
28.12.2016 10:28 4,3 C 85 % 1038,9 hPa 0,0 l/m 22,4 km/h (4 Bft) W 265 0 min 0,000 mm 0,0 UV-I 14 W/m 2,0 C -5,0 C 32,2 km/h (5 Bft) 97,37 %
28.12.2016 10:30 4,2 C 85 % 1038,8 hPa 0,0 l/m 18,0 km/h (3 Bft) W-NW 286 0 min 0,000 mm 0,0 UV-I 14 W/m 1,9 C -3,4 C 35,4 km/h (5 Bft) 95,83 %
28.12.2016 10:32 4,2 C 86 % 1038,9 hPa 0,0 l/m 16,9 km/h (3 Bft) W-SW 248 0 min 0,000 mm 0,0 UV-I 16 W/m 2,1 C -2,8 C 20,9 km/h (4 Bft) 97,87 %
28.12.2016 10:34 4,2 C 86 % 1038,8 hPa 0,0 l/m 18,9 km/h (3 Bft) W-SW 252 0 min 0,000 mm 0,0 UV-I 16 W/m 2,1 C -3,7 C 29,0 km/h (5 Bft) 97,87 %
28.12.2016 10:36 4,2 C 86 % 1038,8 hPa 0,0 l/m 19,8 km/h (3 Bft) W-SW 251 0 min 0,000 mm 0,0 UV-I 14 W/m 2,1 C -4,1 C 32,2 km/h (5 Bft) 100,00 %
28.12.2016 10:38 4,2 C 86 % 1038,9 hPa 0,0 l/m 17,6 km/h (3 Bft) W-SW 254 0 min 0,000 mm 0,0 UV-I 12 W/m 2,1 C -3,2 C 24,1 km/h (4 Bft) 98,00 %
28.12.2016 10:40 4,2 C 86 % 1039,0 hPa 0,0 l/m 16,3 km/h (3 Bft) W 263 0 min 0,000 mm 0,0 UV-I 12 W/m 2,1 C -2,6 C 22,5 km/h (4 Bft) 98,00 %
28.12.2016 10:42 4,1 C 86 % 1038,9 hPa 0,0 l/m 17,5 km/h (3 Bft) W 259 0 min 0,000 mm 0,0 UV-I 12 W/m 2,0 C -3,2 C 30,6 km/h (5 Bft) 100,00 %
28.12.2016 10:44 4,1 C 86 % 1038,9 hPa 0,0 l/m 22,5 km/h (4 Bft) W-SW 250 0 min 0,000 mm 0,0 UV-I 12 W/m 2,0 C -5,3 C 32,2 km/h (5 Bft) 98,00 %
28.12.2016 10:46 4,2 C 86 % 1038,9 hPa 0,0 l/m 18,2 km/h (3 Bft) W 267 0 min 0,000 mm 0,0 UV-I 13 W/m 2,1 C -3,4 C 22,5 km/h (4 Bft) 100,00 %
28.12.2016 10:48 4,1 C 86 % 1038,8 hPa 0,0 l/m 18,3 km/h (3 Bft) W 263 0 min 0,000 mm 0,0 UV-I 15 W/m 2,0 C -3,6 C 30,6 km/h (5 Bft) 100,00 %
28.12.2016 10:50 4,1 C 86 % 1038,8 hPa 0,0 l/m 20,1 km/h (4 Bft) SW 221 0 min 0,000 mm 0,0 UV-I 18 W/m 2,0 C -4,4 C 30,6 km/h (5 Bft) 97,87 %
28.12.2016 10:52 4,1 C 86 % 1038,7 hPa 0,0 l/m 22,3 km/h (4 Bft) W-SW 250 0 min 0,000 mm 0,0 UV-I 18 W/m 2,0 C -5,2 C 41,8 km/h (6 Bft) 100,00 %
28.12.2016 10:54 4,1 C 86 % 1038,8 hPa 0,0 l/m 20,0 km/h (4 Bft) W-SW 239 0 min 0,000 mm 0,0 UV-I 18 W/m 2,0 C -4,3 C 30,6 km/h (5 Bft) 96,00 %
28.12.2016 10:56 4,1 C 86 % 1038,7 hPa 0,0 l/m 25,2 km/h (4 Bft) W-SW 239 0 min 0,000 mm 0,0 UV-I 18 W/m 2,0 C -6,2 C 35,4 km/h (5 Bft) 100,00 %
28.12.2016 10:58 4,1 C 86 % 1038,8 hPa 0,0 l/m 24,5 km/h (4 Bft) W-SW 238 0 min 0,000 mm 0,0 UV-I 17 W/m 2,0 C -6,0 C 33,8 km/h (5 Bft) 100,00 %
28.12.2016 11:00 4,1 C 86 % 1038,8 hPa 0,0 l/m 22,6 km/h (4 Bft) W-SW 257 0 min 0,025 mm 0,0 UV-I 18 W/m 2,0 C -5,3 C 35,4 km/h (5 Bft) 100,00 %
28.12.2016 11:02 4,1 C 86 % 1038,8 hPa 0,0 l/m 20,4 km/h (4 Bft) SW 232 0 min 0,000 mm 0,0 UV-I 18 W/m 2,0 C -4,5 C 27,4 km/h (4 Bft) 97,87 %
28.12.2016 11:04 4,1 C 86 % 1038,8 hPa 0,0 l/m 22,5 km/h (4 Bft) W-SW 238 0 min 0,000 mm 0,0 UV-I 18 W/m 2,0 C -5,3 C 32,2 km/h (5 Bft) 100,00 %
28.12.2016 11:06 4,1 C 86 % 1038,8 hPa 0,0 l/m 21,0 km/h (4 Bft) W 262 0 min 0,000 mm 0,0 UV-I 19 W/m 2,0 C -4,7 C 30,6 km/h (5 Bft) 100,00 %
28.12.2016 11:08 4,1 C 86 % 1038,8 hPa 0,0 l/m 18,7 km/h (3 Bft) W-SW 255 0 min 0,000 mm 0,0 UV-I 20 W/m 2,0 C -3,8 C 30,6 km/h (5 Bft) 100,00 %
28.12.2016 11:10 4,1 C 86 % 1038,7 hPa 0,0 l/m 19,7 km/h (3 Bft) W-SW 238 0 min 0,000 mm 0,0 UV-I 21 W/m 2,0 C -4,2 C 32,2 km/h (5 Bft) 100,00 %
28.12.2016 11:12 4,1 C 86 % 1038,7 hPa 0,0 l/m 26,4 km/h (4 Bft) W-SW 254 0 min 0,000 mm 0,0 UV-I 25 W/m 2,0 C -6,6 C 45,1 km/h (6 Bft) 100,00 %
28.12.2016 11:14 4,1 C 86 % 1038,7 hPa 0,0 l/m 22,0 km/h (4 Bft) W-SW 247 0 min 0,000 mm 0,0 UV-I 25 W/m 2,0 C -5,1 C 41,8 km/h (6 Bft) 100,00 %
28.12.2016 11:16 4,1 C 86 % 1038,6 hPa 0,0 l/m 20,8 km/h (4 Bft) W 263 0 min 0,000 mm 0,0 UV-I 24 W/m 2,0 C -4,7 C 30,6 km/h (5 Bft) 100,00 %
28.12.2016 11:18 4,1 C 86 % 1038,6 hPa 0,0 l/m 21,2 km/h (4 Bft) W 259 0 min 0,000 mm 0,0 UV-I 26 W/m 2,0 C -4,8 C 35,4 km/h (5 Bft) 100,00 %
28.12.2016 11:20 4,1 C 86 % 1038,6 hPa 0,0 l/m 19,8 km/h (3 Bft) W-SW 255 0 min 0,000 mm 0,0 UV-I 27 W/m 2,0 C -4,3 C 33,8 km/h (5 Bft) 100,00 %
28.12.2016 11:22 4,1 C 86 % 1038,5 hPa 0,0 l/m 19,4 km/h (3 Bft) W 270 0 min 0,000 mm 0,0 UV-I 25 W/m 2,0 C -4,1 C 27,4 km/h (4 Bft) 100,00 %
28.12.2016 11:24 4,1 C 86 % 1038,6 hPa 0,0 l/m 22,5 km/h (4 Bft) SW 234 0 min 0,000 mm 0,0 UV-I 24 W/m 2,0 C -5,3 C 30,6 km/h (5 Bft) 100,00 %
28.12.2016 11:26 4,1 C 86 % 1038,5 hPa 0,0 l/m 23,9 km/h (4 Bft) W 271 0 min 0,000 mm 0,0 UV-I 25 W/m 2,0 C -5,8 C 35,4 km/h (5 Bft) 100,00 %
28.12.2016 11:28 4,1 C 86 % 1038,6 hPa 0,0 l/m 21,0 km/h (4 Bft) W 271 0 min 0,000 mm 0,0 UV-I 25 W/m 2,0 C -4,7 C 32,2 km/h (5 Bft) 93,62 %
28.12.2016 11:30 4,1 C 86 % 1038,5 hPa 0,0 l/m 21,2 km/h (4 Bft) W 259 0 min 0,000 mm 0,0 UV-I 23 W/m 2,0 C -4,8 C 32,2 km/h (5 Bft) 100,00 %
28.12.2016 11:32 4,1 C 86 % 1038,5 hPa 0,0 l/m 22,3 km/h (4 Bft) SW 223 0 min 0,000 mm 0,0 UV-I 23 W/m 2,0 C -5,2 C 32,2 km/h (5 Bft) 100,00 %
28.12.2016 11:34 4,1 C 86 % 1038,5 hPa 0,0 l/m 21,5 km/h (4 Bft) W-SW 254 0 min 0,000 mm 0,0 UV-I 21 W/m 2,0 C -4,9 C 32,2 km/h (5 Bft) 100,00 %
28.12.2016 11:36 4,1 C 86 % 1038,4 hPa 0,0 l/m 19,5 km/h (3 Bft) W-NW 287 0 min 0,000 mm 0,0 UV-I 21 W/m 2,0 C -4,1 C 29,0 km/h (5 Bft) 100,00 %
28.12.2016 11:38 4,1 C 86 % 1038,4 hPa 0,0 l/m 15,8 km/h (3 Bft) W-SW 256 0 min 0,000 mm 0,0 UV-I 24 W/m 2,0 C -2,4 C 20,9 km/h (4 Bft) 100,00 %
28.12.2016 11:40 4,1 C 86 % 1038,4 hPa 0,0 l/m 19,2 km/h (3 Bft) W-SW 252 0 min 0,000 mm 0,0 UV-I 24 W/m 2,0 C -4,0 C 25,7 km/h (4 Bft) 100,00 %
28.12.2016 11:42 4,1 C 86 % 1038,4 hPa 0,0 l/m 19,1 km/h (3 Bft) W-SW 249 0 min 0,000 mm 0,0 UV-I 24 W/m 2,0 C -4,0 C 27,4 km/h (4 Bft) 97,87 %
28.12.2016 11:44 4,1 C 86 % 1038,5 hPa 0,0 l/m 23,1 km/h (4 Bft) W 263 0 min 0,000 mm 0,0 UV-I 23 W/m 2,0 C -5,5 C 35,4 km/h (5 Bft) 100,00 %
28.12.2016 11:46 4,1 C 86 % 1038,4 hPa 0,0 l/m 21,0 km/h (4 Bft) W 268 0 min 0,000 mm 0,0 UV-I 27 W/m 2,0 C -4,7 C 29,0 km/h (5 Bft) 97,87 %
28.12.2016 11:48 4,1 C 86 % 1038,4 hPa 0,0 l/m 24,8 km/h (4 Bft) W 260 0 min 0,000 mm 0,0 UV-I 23 W/m 2,0 C -6,1 C 40,2 km/h (6 Bft) 100,00 %
28.12.2016 11:50 4,1 C 86 % 1038,4 hPa 0,0 l/m 27,2 km/h (4 Bft) W 273 0 min 0,000 mm 0,0 UV-I 23 W/m 2,0 C -6,9 C 35,4 km/h (5 Bft) 97,92 %
28.12.2016 11:52 4,2 C 85 % 1038,4 hPa 0,0 l/m 26,7 km/h (4 Bft) W-SW 258 0 min 0,000 mm 0,0 UV-I 24 W/m 1,9 C -6,6 C 37,0 km/h (5 Bft) 100,00 %
28.12.2016 11:54 4,2 C 85 % 1038,3 hPa 0,0 l/m 23,0 km/h (4 Bft) W-SW 255 0 min 0,000 mm 0,0 UV-I 25 W/m 1,9 C -5,3 C 32,2 km/h (5 Bft) 97,87 %
28.12.2016 11:56 4,2 C 85 % 1038,4 hPa 0,0 l/m 21,5 km/h (4 Bft) SW 236 0 min 0,000 mm 0,0 UV-I 23 W/m 1,9 C -4,8 C 32,2 km/h (5 Bft) 100,00 %
28.12.2016 11:58 4,2 C 85 % 1038,3 hPa 0,0 l/m 21,5 km/h (4 Bft) W-SW 257 0 min 0,000 mm 0,0 UV-I 24 W/m 1,9 C -4,8 C 29,0 km/h (5 Bft) 97,87 %
28.12.2016 12:00 4,2 C 85 % 1038,3 hPa 0,0 l/m 19,4 km/h (3 Bft) W-SW 240 0 min 0,026 mm 0,0 UV-I 27 W/m 1,9 C -4,0 C 27,4 km/h (4 Bft) 100,00 %
28.12.2016 12:02 4,2 C 85 % 1038,3 hPa 0,0 l/m 23,6 km/h (4 Bft) W 259 0 min 0,000 mm 0,0 UV-I 30 W/m 1,9 C -5,6 C 33,8 km/h (5 Bft) 97,87 %
28.12.2016 12:04 4,2 C 85 % 1038,3 hPa 0,0 l/m 24,5 km/h (4 Bft) W-SW 243 0 min 0,000 mm 0,0 UV-I 36 W/m 1,9 C -5,9 C 40,2 km/h (6 Bft) 97,87 %
28.12.2016 12:06 4,3 C 84 % 1038,2 hPa 0,0 l/m 32,4 km/h (5 Bft) W-SW 258 0 min 0,000 mm 0,0 UV-I 38 W/m 1,8 C -8,0 C 49,9 km/h (6 Bft) 97,87 %
28.12.2016 12:08 4,3 C 84 % 1038,3 hPa 0,0 l/m 23,9 km/h (4 Bft) SW 229 0 min 0,000 mm 0,0 UV-I 33 W/m 1,8 C -5,5 C 35,4 km/h (5 Bft) 95,74 %
28.12.2016 12:10 4,3 C 84 % 1038,2 hPa 0,0 l/m 20,7 km/h (4 Bft) W-NW 285 0 min 0,000 mm 0,0 UV-I 32 W/m 1,8 C -4,4 C 27,4 km/h (4 Bft) 95,74 %
28.12.2016 12:12 4,3 C 84 % 1038,3 hPa 0,0 l/m 22,2 km/h (4 Bft) W-NW 284 0 min 0,000 mm 0,0 UV-I 34 W/m 1,8 C -4,9 C 35,4 km/h (5 Bft) 97,87 %
28.12.2016 12:14 4,3 C 84 % 1038,3 hPa 0,0 l/m 20,4 km/h (4 Bft) W-SW 254 0 min 0,000 mm 0,0 UV-I 36 W/m 1,8 C -4,2 C 41,8 km/h (6 Bft) 95,74 %
28.12.2016 12:16 4,3 C 84 % 1038,3 hPa 0,0 l/m 25,1 km/h (4 Bft) W-SW 242 0 min 0,000 mm 0,0 UV-I 40 W/m 1,8 C -5,9 C 38,6 km/h (5 Bft) 95,74 %
28.12.2016 12:18 4,4 C 84 % 1038,3 hPa 0,0 l/m 24,6 km/h (4 Bft) W-SW 252 0 min 0,000 mm 0,0 UV-I 32 W/m 1,9 C -5,6 C 49,9 km/h (6 Bft) 97,96 %
28.12.2016 12:20 4,4 C 84 % 1038,3 hPa 0,0 l/m 22,8 km/h (4 Bft) W 263 0 min 0,000 mm 0,0 UV-I 30 W/m 1,9 C -5,0 C 33,8 km/h (5 Bft) 97,14 %
28.12.2016 12:22 4,4 C 84 % 1038,2 hPa 0,0 l/m 17,6 km/h (3 Bft) W 259 0 min 0,000 mm 0,0 UV-I 30 W/m 1,9 C -2,9 C 25,7 km/h (4 Bft) 97,87 %
28.12.2016 12:24 4,3 C 84 % 1038,2 hPa 0,0 l/m 18,1 km/h (3 Bft) W-SW 256 0 min 0,000 mm 0,0 UV-I 30 W/m 1,8 C -3,3 C 25,7 km/h (4 Bft) 97,87 %
28.12.2016 12:26 4,3 C 84 % 1038,2 hPa 0,0 l/m 20,1 km/h (4 Bft) W 271 0 min 0,000 mm 0,0 UV-I 28 W/m 1,8 C -4,1 C 33,8 km/h (5 Bft) 97,87 %
28.12.2016 12:28 4,3 C 84 % 1038,2 hPa 0,0 l/m 22,6 km/h (4 Bft) W 261 0 min 0,000 mm 0,0 UV-I 29 W/m 1,8 C -5,1 C 45,1 km/h (6 Bft) 97,92 %
28.12.2016 12:30 4,4 C 84 % 1038,2 hPa 0,0 l/m 21,3 km/h (4 Bft) W-SW 251 0 min 0,000 mm 0,0 UV-I 30 W/m 1,9 C -4,5 C 35,4 km/h (5 Bft) 96,00 %
28.12.2016 12:32 4,4 C 84 % 1038,1 hPa 0,0 l/m 26,0 km/h (4 Bft) W 263 0 min 0,000 mm 0,0 UV-I 28 W/m 1,9 C -6,1 C 46,7 km/h (6 Bft) 95,74 %
28.12.2016 12:34 4,3 C 84 % 1038,1 hPa 0,0 l/m 23,9 km/h (4 Bft) W-SW 255 0 min 0,000 mm 0,0 UV-I 30 W/m 1,8 C -5,5 C 45,1 km/h (6 Bft) 95,74 %
28.12.2016 12:36 4,4 C 83 % 1038,0 hPa 0,0 l/m 28,9 km/h (5 Bft) W 265 0 min 0,000 mm 0,0 UV-I 32 W/m 1,8 C -6,9 C 43,5 km/h (6 Bft) 97,87 %
28.12.2016 12:38 4,4 C 83 % 1037,9 hPa 0,0 l/m 22,5 km/h (4 Bft) W 262 0 min 0,000 mm 0,0 UV-I 33 W/m 1,8 C -4,9 C 37,0 km/h (5 Bft) 100,00 %
28.12.2016 12:40 4,4 C 83 % 1037,8 hPa 0,0 l/m 23,9 km/h (4 Bft) W 263 0 min 0,000 mm 0,0 UV-I 33 W/m 1,8 C -5,4 C 41,8 km/h (6 Bft) 100,00 %
28.12.2016 12:42 4,4 C 83 % 1037,9 hPa 0,0 l/m 24,5 km/h (4 Bft) W-SW 241 0 min 0,000 mm 0,0 UV-I 30 W/m 1,8 C -5,6 C 40,2 km/h (6 Bft) 98,00 %
28.12.2016 12:44 4,4 C 83 % 1038,0 hPa 0,0 l/m 17,4 km/h (3 Bft) W-SW 252 0 min 0,000 mm 0,0 UV-I 29 W/m 1,8 C -2,8 C 24,1 km/h (4 Bft) 97,50 %
28.12.2016 12:46 4,4 C 84 % 1037,9 hPa 0,0 l/m 26,3 km/h (4 Bft) W-SW 254 0 min 0,000 mm 0,0 UV-I 30 W/m 1,9 C -6,2 C 45,1 km/h (6 Bft) 100,00 %
28.12.2016 12:48 4,4 C 83 % 1037,9 hPa 0,0 l/m 24,7 km/h (4 Bft) W-SW 239 0 min 0,000 mm 0,0 UV-I 32 W/m 1,8 C -5,7 C 37,0 km/h (5 Bft) 100,00 %
28.12.2016 12:50 4,4 C 83 % 1037,9 hPa 0,0 l/m 27,5 km/h (4 Bft) W 263 0 min 0,000 mm 0,0 UV-I 36 W/m 1,8 C -6,5 C 37,0 km/h (5 Bft) 100,00 %
28.12.2016 12:52 4,4 C 83 % 1037,9 hPa 0,0 l/m 22,7 km/h (4 Bft) W 266 0 min 0,000 mm 0,0 UV-I 32 W/m 1,8 C -5,0 C 32,2 km/h (5 Bft) 97,37 %
28.12.2016 12:54 4,4 C 83 % 1037,9 hPa 0,0 l/m 23,5 km/h (4 Bft) W-SW 250 0 min 0,000 mm 0,0 UV-I 35 W/m 1,8 C -5,3 C 33,8 km/h (5 Bft) 98,11 %
28.12.2016 12:56 4,4 C 83 % 1037,7 hPa 0,0 l/m 20,5 km/h (4 Bft) SW 236 0 min 0,000 mm 0,0 UV-I 45 W/m 1,8 C -4,1 C 29,0 km/h (5 Bft) 100,00 %
28.12.2016 12:58 4,4 C 83 % 1037,8 hPa 0,0 l/m 22,2 km/h (4 Bft) W-NW 288 0 min 0,000 mm 0,0 UV-I 41 W/m 1,8 C -4,8 C 33,8 km/h (5 Bft) 97,87 %
28.12.2016 13:00 4,4 C 83 % 1037,9 hPa 0,0 l/m 27,5 km/h (4 Bft) W-SW 245 0 min 0,051 mm 0,0 UV-I 41 W/m 1,8 C -6,5 C 45,1 km/h (6 Bft) 95,74 %
28.12.2016 13:02 4,4 C 83 % 1037,7 hPa 0,0 l/m 27,5 km/h (4 Bft) W-SW 252 0 min 0,000 mm 0,0 UV-I 41 W/m 1,8 C -6,5 C 53,1 km/h (7 Bft) 97,87 %
28.12.2016 13:04 4,4 C 83 % 1037,6 hPa 0,0 l/m 26,1 km/h (4 Bft) W 265 0 min 0,000 mm 0,0 UV-I 43 W/m 1,8 C -6,1 C 48,3 km/h (6 Bft) 100,00 %
28.12.2016 13:06 4,4 C 83 % 1037,8 hPa 0,0 l/m 29,8 km/h (5 Bft) W 261 0 min 0,000 mm 0,0 UV-I 40 W/m 1,8 C -7,2 C 48,3 km/h (6 Bft) 100,00 %
28.12.2016 13:08 4,4 C 83 % 1037,6 hPa 0,0 l/m 21,6 km/h (4 Bft) W-NW 283 0 min 0,000 mm 0,0 UV-I 43 W/m 1,8 C -4,6 C 32,2 km/h (5 Bft) 100,00 %
28.12.2016 13:10 4,5 C 83 % 1037,7 hPa 0,0 l/m 19,3 km/h (3 Bft) W-SW 245 0 min 0,000 mm 0,0 UV-I 44 W/m 1,9 C -3,5 C 40,2 km/h (6 Bft) 97,87 %
28.12.2016 13:12 4,4 C 83 % 1037,7 hPa 0,0 l/m 27,9 km/h (4 Bft) W-SW 252 0 min 0,000 mm 0,0 UV-I 41 W/m 1,8 C -6,6 C 40,2 km/h (6 Bft) 97,87 %
28.12.2016 13:14 4,5 C 83 % 1037,7 hPa 0,0 l/m 22,2 km/h (4 Bft) W-SW 254 0 min 0,000 mm 0,0 UV-I 40 W/m 1,9 C -4,7 C 33,8 km/h (5 Bft) 100,00 %
28.12.2016 13:16 4,5 C 83 % 1037,6 hPa 0,0 l/m 28,3 km/h (4 Bft) W 260 0 min 0,000 mm 0,0 UV-I 37 W/m 1,9 C -6,6 C 43,5 km/h (6 Bft) 100,00 %
28.12.2016 13:18 4,5 C 83 % 1037,6 hPa 0,0 l/m 24,4 km/h (4 Bft) W-SW 254 0 min 0,000 mm 0,0 UV-I 32 W/m 1,9 C -5,4 C 33,8 km/h (5 Bft) 100,00 %
28.12.2016 13:20 4,5 C 83 % 1037,6 hPa 0,0 l/m 20,0 km/h (4 Bft) S-SW 198 0 min 0,000 mm 0,0 UV-I 31 W/m 1,9 C -3,8 C 27,4 km/h (4 Bft) 97,87 %
28.12.2016 13:22 4,5 C 83 % 1037,6 hPa 0,0 l/m 27,1 km/h (4 Bft) W-SW 257 0 min 0,000 mm 0,0 UV-I 32 W/m 1,9 C -6,3 C 40,2 km/h (6 Bft) 100,00 %
28.12.2016 13:24 4,5 C 83 % 1037,6 hPa 0,0 l/m 22,5 km/h (4 Bft) W 262 0 min 0,000 mm 0,0 UV-I 33 W/m 1,9 C -4,8 C 45,1 km/h (6 Bft) 97,87 %
28.12.2016 13:26 4,5 C 83 % 1037,6 hPa 0,0 l/m 24,1 km/h (4 Bft) W-SW 255 0 min 0,000 mm 0,0 UV-I 34 W/m 1,9 C -5,3 C 38,6 km/h (5 Bft) 100,00 %
28.12.2016 13:28 4,5 C 83 % 1037,6 hPa 0,0 l/m 26,7 km/h (4 Bft) W 270 0 min 0,000 mm 0,0 UV-I 31 W/m 1,9 C -6,2 C 43,5 km/h (6 Bft) 97,87 %
28.12.2016 13:30 4,5 C 83 % 1037,5 hPa 0,0 l/m 23,9 km/h (4 Bft) W 265 0 min 0,000 mm 0,0 UV-I 32 W/m 1,9 C -5,3 C 32,2 km/h (5 Bft) 95,74 %
28.12.2016 13:32 4,6 C 83 % 1037,4 hPa 0,0 l/m 25,7 km/h (4 Bft) SW 228 0 min 0,000 mm 0,0 UV-I 38 W/m 2,0 C -5,7 C 40,2 km/h (6 Bft) 100,00 %
28.12.2016 13:34 4,6 C 83 % 1037,4 hPa 0,0 l/m 27,7 km/h (4 Bft) W-SW 254 0 min 0,000 mm 0,0 UV-I 42 W/m 2,0 C -6,3 C 41,8 km/h (6 Bft) 100,00 %
28.12.2016 13:36 4,6 C 83 % 1037,5 hPa 0,0 l/m 20,6 km/h (4 Bft) W-SW 252 0 min 0,000 mm 0,0 UV-I 45 W/m 2,0 C -3,9 C 38,6 km/h (5 Bft) 97,87 %
28.12.2016 13:38 4,6 C 83 % 1037,5 hPa 0,0 l/m 20,4 km/h (4 Bft) W 261 0 min 0,000 mm 0,0 UV-I 44 W/m 2,0 C -3,8 C 32,2 km/h (5 Bft) 98,00 %
28.12.2016 13:40 4,6 C 83 % 1037,5 hPa 0,0 l/m 24,1 km/h (4 Bft) SW 236 0 min 0,000 mm 0,0 UV-I 41 W/m 2,0 C -5,2 C 35,4 km/h (5 Bft) 94,74 %
28.12.2016 13:42 4,6 C 83 % 1037,4 hPa 0,0 l/m 29,6 km/h (5 Bft) SW 232 0 min 0,000 mm 0,0 UV-I 42 W/m 2,0 C -6,8 C 43,5 km/h (6 Bft) 100,00 %
28.12.2016 13:44 4,6 C 83 % 1037,4 hPa 0,0 l/m 29,0 km/h (5 Bft) W-SW 245 0 min 0,000 mm 0,0 UV-I 46 W/m 2,0 C -6,7 C 49,9 km/h (6 Bft) 100,00 %
28.12.2016 13:46 4,6 C 83 % 1037,4 hPa 0,0 l/m 28,7 km/h (4 Bft) W 263 0 min 0,000 mm 0,0 UV-I 43 W/m 2,0 C -6,6 C 40,2 km/h (6 Bft) 100,00 %
28.12.2016 13:48 4,6 C 82 % 1037,3 hPa 0,0 l/m 27,8 km/h (4 Bft) SW 228 0 min 0,000 mm 0,0 UV-I 42 W/m 1,8 C -6,3 C 48,3 km/h (6 Bft) 100,00 %
28.12.2016 13:50 4,6 C 82 % 1037,4 hPa 0,0 l/m 25,1 km/h (4 Bft) W-SW 254 0 min 0,000 mm 0,0 UV-I 44 W/m 1,8 C -5,5 C 40,2 km/h (6 Bft) 100,00 %
28.12.2016 13:52 4,6 C 82 % 1037,4 hPa 0,0 l/m 22,7 km/h (4 Bft) W 267 0 min 0,000 mm 0,0 UV-I 41 W/m 1,8 C -4,7 C 33,8 km/h (5 Bft) 100,00 %
28.12.2016 13:54 4,6 C 82 % 1037,3 hPa 0,0 l/m 20,9 km/h (4 Bft) W-SW 250 0 min 0,000 mm 0,0 UV-I 40 W/m 1,8 C -4,0 C 32,2 km/h (5 Bft) 97,87 %
28.12.2016 13:56 4,6 C 82 % 1037,3 hPa 0,0 l/m 25,1 km/h (4 Bft) W 263 0 min 0,000 mm 0,0 UV-I 42 W/m 1,8 C -5,5 C 40,2 km/h (6 Bft) 96,00 %
28.12.2016 13:58 4,6 C 82 % 1037,3 hPa 0,0 l/m 21,1 km/h (4 Bft) W-SW 238 0 min 0,000 mm 0,0 UV-I 46 W/m 1,8 C -4,1 C 29,0 km/h (5 Bft) 100,00 %
28.12.2016 14:00 4,7 C 82 % 1037,3 hPa 0,0 l/m 19,6 km/h (3 Bft) W 259 0 min 0,050 mm 0,0 UV-I 50 W/m 1,9 C -3,4 C 30,6 km/h (5 Bft) 95,74 %
28.12.2016 14:02 4,7 C 83 % 1037,2 hPa 0,0 l/m 24,3 km/h (4 Bft) W 266 0 min 0,000 mm 0,0 UV-I 58 W/m 2,1 C -5,1 C 32,2 km/h (5 Bft) 100,00 %
28.12.2016 14:04 4,7 C 82 % 1037,2 hPa 0,0 l/m 23,8 km/h (4 Bft) W-SW 256 0 min 0,000 mm 0,0 UV-I 47 W/m 1,9 C -5,0 C 35,4 km/h (5 Bft) 93,62 %
28.12.2016 14:06 4,7 C 82 % 1037,2 hPa 0,0 l/m 26,5 km/h (4 Bft) SW 222 0 min 0,000 mm 0,0 UV-I 35 W/m 1,9 C -5,8 C 41,8 km/h (6 Bft) 97,87 %
28.12.2016 14:08 4,7 C 82 % 1037,1 hPa 0,0 l/m 22,8 km/h (4 Bft) W 275 0 min 0,000 mm 0,0 UV-I 40 W/m 1,9 C -4,6 C 41,8 km/h (6 Bft) 95,74 %
28.12.2016 14:10 4,7 C 82 % 1037,1 hPa 0,0 l/m 23,5 km/h (4 Bft) W-SW 251 0 min 0,000 mm 0,0 UV-I 44 W/m 1,9 C -4,9 C 45,1 km/h (6 Bft) 93,62 %
28.12.2016 14:12 4,7 C 82 % 1037,1 hPa 0,0 l/m 22,9 km/h (4 Bft) W-NW 294 0 min 0,000 mm 0,0 UV-I 40 W/m 1,9 C -4,6 C 33,8 km/h (5 Bft) 100,00 %
28.12.2016 14:14 4,7 C 82 % 1037,2 hPa 0,0 l/m 22,7 km/h (4 Bft) W 260 0 min 0,000 mm 0,0 UV-I 43 W/m 1,9 C -4,6 C 35,4 km/h (5 Bft) 91,49 %
28.12.2016 14:16 4,7 C 82 % 1037,5 hPa 0,0 l/m 26,7 km/h (4 Bft) W-SW 257 0 min 0,000 mm 0,0 UV-I 39 W/m 1,9 C -5,9 C 40,2 km/h (6 Bft) 95,74 %
28.12.2016 14:18 4,7 C 82 % 1037,3 hPa 0,0 l/m 20,7 km/h (4 Bft) W 265 0 min 0,000 mm 0,0 UV-I 34 W/m 1,9 C -3,8 C 33,8 km/h (5 Bft) 95,74 %
28.12.2016 14:20 4,7 C 82 % 1037,3 hPa 0,0 l/m 26,6 km/h (4 Bft) W 261 0 min 0,000 mm 0,0 UV-I 28 W/m 1,9 C -5,8 C 40,2 km/h (6 Bft) 97,87 %
28.12.2016 14:22 4,7 C 82 % 1037,4 hPa 0,0 l/m 23,8 km/h (4 Bft) W-SW 244 0 min 0,000 mm 0,0 UV-I 26 W/m 1,9 C -5,0 C 40,2 km/h (6 Bft) 96,00 %
28.12.2016 14:24 4,7 C 82 % 1037,3 hPa 0,0 l/m 21,0 km/h (4 Bft) W-SW 244 0 min 0,000 mm 0,0 UV-I 27 W/m 1,9 C -4,0 C 30,6 km/h (5 Bft) 96,00 %
28.12.2016 14:26 4,7 C 82 % 1037,3 hPa 0,0 l/m 20,6 km/h (4 Bft) W 271 0 min 0,000 mm 0,0 UV-I 27 W/m 1,9 C -3,8 C 25,7 km/h (4 Bft) 97,87 %
28.12.2016 14:28 4,7 C 82 % 1037,3 hPa 0,0 l/m 22,2 km/h (4 Bft) W 272 0 min 0,000 mm 0,0 UV-I 26 W/m 1,9 C -4,4 C 29,0 km/h (5 Bft) 94,44 %
28.12.2016 14:30 4,7 C 82 % 1037,3 hPa 0,0 l/m 25,0 km/h (4 Bft) NW 304 0 min 0,000 mm 0,0 UV-I 25 W/m 1,9 C -5,3 C 38,6 km/h (5 Bft) 96,00 %
28.12.2016 14:32 4,7 C 82 % 1037,3 hPa 0,0 l/m 21,1 km/h (4 Bft) W 272 0 min 0,000 mm 0,0 UV-I 25 W/m 1,9 C -4,0 C 30,6 km/h (5 Bft) 95,74 %
28.12.2016 14:34 4,7 C 82 % 1037,3 hPa 0,0 l/m 22,4 km/h (4 Bft) W 259 0 min 0,000 mm 0,0 UV-I 25 W/m 1,9 C -4,5 C 33,8 km/h (5 Bft) 98,00 %
28.12.2016 14:36 4,7 C 82 % 1037,1 hPa 0,0 l/m 24,7 km/h (4 Bft) W-NW 286 0 min 0,000 mm 0,0 UV-I 24 W/m 1,9 C -5,3 C 35,4 km/h (5 Bft) 97,87 %
28.12.2016 14:38 4,7 C 82 % 1037,2 hPa 0,0 l/m 19,1 km/h (3 Bft) W-SW 237 0 min 0,000 mm 0,0 UV-I 22 W/m 1,9 C -3,2 C 29,0 km/h (5 Bft) 95,74 %
28.12.2016 14:40 4,7 C 82 % 1037,3 hPa 0,0 l/m 21,5 km/h (4 Bft) W 265 0 min 0,000 mm 0,0 UV-I 21 W/m 1,9 C -4,1 C 43,5 km/h (6 Bft) 95,74 %
28.12.2016 14:42 4,7 C 82 % 1037,3 hPa 0,0 l/m 26,8 km/h (4 Bft) SW 232 0 min 0,000 mm 0,0 UV-I 20 W/m 1,9 C -5,9 C 38,6 km/h (5 Bft) 100,00 %
28.12.2016 14:44 4,7 C 82 % 1037,4 hPa 0,0 l/m 19,7 km/h (3 Bft) W 263 0 min 0,000 mm 0,0 UV-I 18 W/m 1,9 C -3,4 C 27,4 km/h (4 Bft) 100,00 %
28.12.2016 14:46 4,7 C 82 % 1037,4 hPa 0,0 l/m 16,2 km/h (3 Bft) W-NW 284 0 min 0,000 mm 0,0 UV-I 16 W/m 1,9 C -1,9 C 37,0 km/h (5 Bft) 100,00 %
28.12.2016 14:48 4,7 C 82 % 1037,5 hPa 0,0 l/m 22,2 km/h (4 Bft) W 260 0 min 0,000 mm 0,0 UV-I 16 W/m 1,9 C -4,4 C 33,8 km/h (5 Bft) 95,74 %
28.12.2016 14:50 4,7 C 82 % 1037,5 hPa 0,0 l/m 18,6 km/h (3 Bft) W 273 0 min 0,000 mm 0,0 UV-I 15 W/m 1,9 C -3,0 C 27,4 km/h (4 Bft) 98,00 %
28.12.2016 14:52 4,7 C 82 % 1037,4 hPa 0,0 l/m 20,6 km/h (4 Bft) W-SW 249 0 min 0,000 mm 0,0 UV-I 14 W/m 1,9 C -3,8 C 33,8 km/h (5 Bft) 100,00 %
28.12.2016 14:54 4,7 C 82 % 1037,5 hPa 0,0 l/m 20,1 km/h (4 Bft) W 261 0 min 0,000 mm 0,0 UV-I 13 W/m 1,9 C -3,6 C 29,0 km/h (5 Bft) 100,00 %
28.12.2016 14:56 4,7 C 82 % 1037,5 hPa 0,0 l/m 20,7 km/h (4 Bft) W-SW 250 0 min 0,000 mm 0,0 UV-I 14 W/m 1,9 C -3,8 C 38,6 km/h (5 Bft) 97,87 %
28.12.2016 14:58 4,7 C 82 % 1037,5 hPa 0,0 l/m 17,8 km/h (3 Bft) SW 228 0 min 0,000 mm 0,0 UV-I 13 W/m 1,9 C -2,6 C 27,4 km/h (4 Bft) 97,87 %
28.12.2016 15:00 4,7 C 82 % 1037,7 hPa 0,0 l/m 19,6 km/h (3 Bft) W 276 0 min 0,051 mm 0,0 UV-I 13 W/m 1,9 C -3,4 C 37,0 km/h (5 Bft) 100,00 %
28.12.2016 15:02 4,7 C 82 % 1037,6 hPa 0,0 l/m 17,6 km/h (3 Bft) W-SW 252 0 min 0,000 mm 0,0 UV-I 13 W/m 1,9 C -2,5 C 29,0 km/h (5 Bft) 100,00 %
28.12.2016 15:04 4,7 C 82 % 1037,7 hPa 0,0 l/m 15,8 km/h (3 Bft) W-SW 245 0 min 0,000 mm 0,0 UV-I 14 W/m 1,9 C -1,7 C 29,0 km/h (5 Bft) 100,00 %
28.12.2016 15:06 4,7 C 82 % 1037,8 hPa 0,0 l/m 21,2 km/h (4 Bft) W-SW 252 0 min 0,000 mm 0,0 UV-I 13 W/m 1,9 C -4,0 C 32,2 km/h (5 Bft) 100,00 %
28.12.2016 15:08 4,7 C 82 % 1037,8 hPa 0,0 l/m 20,7 km/h (4 Bft) W-NW 289 0 min 0,000 mm 0,0 UV-I 12 W/m 1,9 C -3,8 C 37,0 km/h (5 Bft) 97,87 %
28.12.2016 15:10 4,7 C 82 % 1037,9 hPa 0,0 l/m 21,7 km/h (4 Bft) W-SW 247 0 min 0,000 mm 0,0 UV-I 12 W/m 1,9 C -4,2 C 32,2 km/h (5 Bft) 100,00 %
28.12.2016 15:12 4,7 C 82 % 1037,8 hPa 0,0 l/m 18,5 km/h (3 Bft) W 263 0 min 0,000 mm 0,0 UV-I 11 W/m 1,9 C -2,9 C 25,7 km/h (4 Bft) 97,22 %
28.12.2016 15:14 4,7 C 82 % 1037,8 hPa 0,0 l/m 20,8 km/h (4 Bft) W-SW 248 0 min 0,000 mm 0,0 UV-I 11 W/m 1,9 C -3,9 C 27,4 km/h (4 Bft) 100,00 %
28.12.2016 15:16 4,7 C 82 % 1037,9 hPa 0,0 l/m 20,0 km/h (4 Bft) W-NW 284 0 min 0,000 mm 0,0 UV-I 11 W/m 1,9 C -3,6 C 25,7 km/h (4 Bft) 100,00 %
28.12.2016 15:18 4,7 C 82 % 1037,9 hPa 0,0 l/m 21,4 km/h (4 Bft) W-SW 253 0 min 0,000 mm 0,0 UV-I 9 W/m 1,9 C -4,1 C 30,6 km/h (5 Bft) 97,87 %
28.12.2016 15:20 4,8 C 81 % 1038,0 hPa 0,0 l/m 16,9 km/h (3 Bft) W 265 0 min 0,000 mm 0,0 UV-I 7 W/m 1,8 C -2,1 C 24,1 km/h (4 Bft) 100,00 %
28.12.2016 15:22 4,8 C 81 % 1038,0 hPa 0,0 l/m 19,0 km/h (3 Bft) W 265 0 min 0,000 mm 0,0 UV-I 7 W/m 1,8 C -3,0 C 29,0 km/h (5 Bft) 100,00 %
28.12.2016 15:24 4,8 C 82 % 1038,0 hPa 0,0 l/m 18,9 km/h (3 Bft) W 269 0 min 0,000 mm 0,0 UV-I 7 W/m 2,0 C -3,0 C 29,0 km/h (5 Bft) 97,87 %
28.12.2016 15:26 4,8 C 81 % 1038,0 hPa 0,0 l/m 21,4 km/h (4 Bft) W-SW 250 0 min 0,000 mm 0,0 UV-I 6 W/m 1,8 C -4,0 C 32,2 km/h (5 Bft) 97,87 %
28.12.2016 15:28 4,8 C 81 % 1037,9 hPa 0,0 l/m 21,6 km/h (4 Bft) W-SW 253 0 min 0,000 mm 0,0 UV-I 7 W/m 1,8 C -4,0 C 43,5 km/h (6 Bft) 100,00 %
28.12.2016 15:30 4,8 C 81 % 1038,0 hPa 0,0 l/m 15,7 km/h (3 Bft) W-SW 254 0 min 0,000 mm 0,0 UV-I 7 W/m 1,8 C -1,5 C 27,4 km/h (4 Bft) 100,00 %
28.12.2016 15:32 4,8 C 81 % 1038,0 hPa 0,0 l/m 20,3 km/h (4 Bft) W-NW 284 0 min 0,000 mm 0,0 UV-I 7 W/m 1,8 C -3,5 C 32,2 km/h (5 Bft) 100,00 %
28.12.2016 15:34 4,8 C 81 % 1038,0 hPa 0,0 l/m 16,7 km/h (3 Bft) W-SW 250 0 min 0,000 mm 0,0 UV-I 6 W/m 1,8 C -2,0 C 32,2 km/h (5 Bft) 100,00 %
28.12.2016 15:36 4,7 C 81 % 1038,1 hPa 0,0 l/m 17,6 km/h (3 Bft) W-SW 255 0 min 0,000 mm 0,0 UV-I 5 W/m 1,7 C -2,5 C 33,8 km/h (5 Bft) 97,87 %
28.12.2016 15:38 4,8 C 81 % 1038,1 hPa 0,0 l/m 19,1 km/h (3 Bft) W 261 0 min 0,000 mm 0,0 UV-I 5 W/m 1,8 C -3,1 C 29,0 km/h (5 Bft) 100,00 %
28.12.2016 15:40 4,8 C 81 % 1038,0 hPa 0,0 l/m 21,1 km/h (4 Bft) W-SW 241 0 min 0,000 mm 0,0 UV-I 5 W/m 1,8 C -3,9 C 30,6 km/h (5 Bft) 100,00 %
28.12.2016 15:42 4,8 C 81 % 1038,0 hPa 0,0 l/m 17,3 km/h (3 Bft) W-SW 254 0 min 0,000 mm 0,0 UV-I 7 W/m 1,8 C -2,3 C 24,1 km/h (4 Bft) 95,74 %
28.12.2016 15:44 4,7 C 81 % 1038,1 hPa 0,0 l/m 15,6 km/h (3 Bft) W 264 0 min 0,000 mm 0,0 UV-I 6 W/m 1,7 C -1,6 C 24,1 km/h (4 Bft) 97,87 %
28.12.2016 15:46 4,7 C 81 % 1038,0 hPa 0,0 l/m 23,9 km/h (4 Bft) W 279 0 min 0,000 mm 0,0 UV-I 5 W/m 1,7 C -5,0 C 33,8 km/h (5 Bft) 100,00 %
28.12.2016 15:48 4,7 C 81 % 1038,0 hPa 0,0 l/m 18,7 km/h (3 Bft) W 266 0 min 0,000 mm 0,0 UV-I 5 W/m 1,7 C -3,0 C 33,8 km/h (5 Bft) 97,87 %
28.12.2016 15:50 4,7 C 81 % 1038,1 hPa 0,0 l/m 16,6 km/h (3 Bft) W-SW 244 0 min 0,000 mm 0,0 UV-I 5 W/m 1,7 C -2,1 C 22,5 km/h (4 Bft) 100,00 %
28.12.2016 15:52 4,7 C 81 % 1038,1 hPa 0,0 l/m 20,2 km/h (4 Bft) W-SW 254 0 min 0,000 mm 0,0 UV-I 5 W/m 1,7 C -3,6 C 29,0 km/h (5 Bft) 97,87 %
28.12.2016 15:54 4,7 C 81 % 1038,0 hPa 0,0 l/m 25,3 km/h (4 Bft) W 273 0 min 0,000 mm 0,0 UV-I 5 W/m 1,7 C -5,4 C 35,4 km/h (5 Bft) 97,92 %
28.12.2016 15:56 4,8 C 80 % 1038,1 hPa 0,0 l/m 23,8 km/h (4 Bft) W-SW 252 0 min 0,000 mm 0,0 UV-I 5 W/m 1,6 C -4,8 C 32,2 km/h (5 Bft) 97,87 %
28.12.2016 15:58 4,8 C 80 % 1038,1 hPa 0,0 l/m 26,4 km/h (4 Bft) W 263 0 min 0,000 mm 0,0 UV-I 5 W/m 1,6 C -5,6 C 40,2 km/h (6 Bft) 97,14 %
28.12.2016 16:00 4,8 C 80 % 1038,1 hPa 0,0 l/m 17,1 km/h (3 Bft) W-SW 256 0 min 0,026 mm 0,0 UV-I 5 W/m 1,6 C -2,2 C 25,7 km/h (4 Bft) 100,00 %
28.12.2016 16:02 4,8 C 81 % 1038,1 hPa 0,0 l/m 21,0 km/h (4 Bft) W 273 0 min 0,000 mm 0,0 UV-I 5 W/m 1,8 C -3,8 C 32,2 km/h (5 Bft) 97,87 %
28.12.2016 16:04 4,8 C 80 % 1038,1 hPa 0,0 l/m 17,6 km/h (3 Bft) W 276 0 min 0,000 mm 0,0 UV-I 5 W/m 1,6 C -2,4 C 25,7 km/h (4 Bft) 100,00 %
28.12.2016 16:06 4,8 C 81 % 1038,1 hPa 0,0 l/m 20,6 km/h (4 Bft) W-NW 284 0 min 0,000 mm 0,0 UV-I 5 W/m 1,8 C -3,7 C 27,4 km/h (4 Bft) 100,00 %
28.12.2016 16:08 4,7 C 81 % 1038,1 hPa 0,0 l/m 25,1 km/h (4 Bft) W-NW 294 0 min 0,000 mm 0,0 UV-I 5 W/m 1,7 C -5,4 C 38,6 km/h (5 Bft) 97,87 %
28.12.2016 16:10 4,7 C 81 % 1038,1 hPa 0,0 l/m 20,8 km/h (4 Bft) W-SW 247 0 min 0,000 mm 0,0 UV-I 5 W/m 1,7 C -3,9 C 32,2 km/h (5 Bft) 95,74 %
28.12.2016 16:12 4,7 C 81 % 1038,2 hPa 0,0 l/m 20,8 km/h (4 Bft) W-SW 256 0 min 0,000 mm 0,0 UV-I 5 W/m 1,7 C -3,9 C 29,0 km/h (5 Bft) 97,87 %
28.12.2016 16:14 4,7 C 80 % 1038,1 hPa 0,0 l/m 25,5 km/h (4 Bft) W-SW 250 0 min 0,000 mm 0,0 UV-I 5 W/m 1,6 C -5,5 C 38,6 km/h (5 Bft) 95,74 %
28.12.2016 16:16 4,7 C 80 % 1038,1 hPa 0,0 l/m 23,0 km/h (4 Bft) W-SW 257 0 min 0,000 mm 0,0 UV-I 5 W/m 1,6 C -4,7 C 35,4 km/h (5 Bft) 95,74 %
28.12.2016 16:18 4,7 C 80 % 1038,1 hPa 0,0 l/m 25,8 km/h (4 Bft) W-NW 286 0 min 0,000 mm 0,0 UV-I 5 W/m 1,6 C -5,6 C 38,6 km/h (5 Bft) 97,87 %
28.12.2016 16:20 4,7 C 80 % 1038,1 hPa 0,0 l/m 18,5 km/h (3 Bft) W 260 0 min 0,000 mm 0,0 UV-I 5 W/m 1,6 C -2,9 C 30,6 km/h (5 Bft) 97,87 %
28.12.2016 16:22 4,7 C 81 % 1038,1 hPa 0,0 l/m 21,5 km/h (4 Bft) SW 231 0 min 0,000 mm 0,0 UV-I 5 W/m 1,7 C -4,1 C 29,0 km/h (5 Bft) 97,87 %
28.12.2016 16:24 4,7 C 81 % 1038,1 hPa 0,0 l/m 20,6 km/h (4 Bft) W-SW 247 0 min 0,000 mm 0,0 UV-I 5 W/m 1,7 C -3,8 C 25,7 km/h (4 Bft) 95,74 %
28.12.2016 16:26 4,7 C 80 % 1038,1 hPa 0,0 l/m 22,4 km/h (4 Bft) W 259 0 min 0,000 mm 0,0 UV-I 1 W/m 1,6 C -4,5 C 45,1 km/h (6 Bft) 95,74 %
28.12.2016 16:28 4,7 C 81 % 1038,1 hPa 0,0 l/m 19,2 km/h (3 Bft) W 263 0 min 0,000 mm 0,0 UV-I 0 W/m 1,7 C -3,2 C 30,6 km/h (5 Bft) 97,92 %
28.12.2016 16:30 4,7 C 81 % 1038,2 hPa 0,0 l/m 19,5 km/h (3 Bft) W-SW 257 0 min 0,000 mm 0,0 UV-I 0 W/m 1,7 C -3,4 C 25,7 km/h (4 Bft) 97,87 %
28.12.2016 16:32 4,7 C 80 % 1038,2 hPa 0,0 l/m 20,0 km/h (4 Bft) W-SW 241 0 min 0,000 mm 0,0 UV-I 0 W/m 1,6 C -3,6 C 29,0 km/h (5 Bft) 95,74 %
28.12.2016 16:34 4,7 C 81 % 1038,2 hPa 0,0 l/m 19,0 km/h (3 Bft) W-SW 251 0 min 0,000 mm 0,0 UV-I 0 W/m 1,7 C -3,1 C 25,7 km/h (4 Bft) 98,00 %
28.12.2016 16:36 4,7 C 81 % 1038,2 hPa 0,0 l/m 19,9 km/h (4 Bft) W 264 0 min 0,000 mm 0,0 UV-I 0 W/m 1,7 C -3,5 C 29,0 km/h (5 Bft) 97,87 %
28.12.2016 16:38 4,7 C 81 % 1038,2 hPa 0,0 l/m 18,3 km/h (3 Bft) SW 227 0 min 0,000 mm 0,0 UV-I 0 W/m 1,7 C -2,9 C 27,4 km/h (4 Bft) 97,87 %
28.12.2016 16:40 4,7 C 81 % 1038,3 hPa 0,0 l/m 22,2 km/h (4 Bft) SW 234 0 min 0,000 mm 0,0 UV-I 0 W/m 1,7 C -4,4 C 33,8 km/h (5 Bft) 97,87 %
28.12.2016 16:42 4,7 C 81 % 1038,3 hPa 0,0 l/m 15,8 km/h (3 Bft) SW 234 0 min 0,000 mm 0,0 UV-I 0 W/m 1,7 C -1,7 C 22,5 km/h (4 Bft) 97,87 %
28.12.2016 16:44 4,7 C 81 % 1038,3 hPa 0,0 l/m 22,0 km/h (4 Bft) W 273 0 min 0,000 mm 0,0 UV-I 0 W/m 1,7 C -4,3 C 29,0 km/h (5 Bft) 97,87 %
28.12.2016 16:46 4,7 C 81 % 1038,3 hPa 0,0 l/m 19,4 km/h (3 Bft) W 263 0 min 0,000 mm 0,0 UV-I 0 W/m 1,7 C -3,3 C 27,4 km/h (4 Bft) 97,37 %
28.12.2016 16:48 4,6 C 81 % 1038,3 hPa 0,0 l/m 19,7 km/h (3 Bft) W 261 0 min 0,000 mm 0,0 UV-I 0 W/m 1,6 C -3,6 C 32,2 km/h (5 Bft) 97,87 %
28.12.2016 16:50 4,6 C 81 % 1038,3 hPa 0,0 l/m 25,5 km/h (4 Bft) W-SW 241 0 min 0,000 mm 0,0 UV-I 0 W/m 1,6 C -5,6 C 35,4 km/h (5 Bft) 100,00 %
28.12.2016 16:52 4,6 C 81 % 1038,3 hPa 0,0 l/m 19,5 km/h (3 Bft) W-SW 256 0 min 0,000 mm 0,0 UV-I 0 W/m 1,6 C -3,5 C 30,6 km/h (5 Bft) 97,87 %
28.12.2016 16:54 4,6 C 81 % 1038,4 hPa 0,0 l/m 18,3 km/h (3 Bft) W-SW 250 0 min 0,000 mm 0,0 UV-I 0 W/m 1,6 C -3,0 C 25,7 km/h (4 Bft) 95,74 %
28.12.2016 16:56 4,7 C 81 % 1038,5 hPa 0,0 l/m 22,9 km/h (4 Bft) W-NW 282 0 min 0,000 mm 0,0 UV-I 0 W/m 1,7 C -4,6 C 30,6 km/h (5 Bft) 100,00 %
28.12.2016 16:58 4,7 C 81 % 1038,3 hPa 0,0 l/m 19,9 km/h (4 Bft) SW 227 0 min 0,000 mm 0,0 UV-I 0 W/m 1,7 C -3,5 C 40,2 km/h (6 Bft) 100,00 %
28.12.2016 17:00 4,7 C 81 % 1038,4 hPa 0,0 l/m 23,5 km/h (4 Bft) W-SW 257 0 min 0,000 mm 0,0 UV-I 0 W/m 1,7 C -4,9 C 29,0 km/h (5 Bft) 100,00 %
28.12.2016 17:02 4,6 C 81 % 1038,4 hPa 0,0 l/m 19,8 km/h (3 Bft) W 259 0 min 0,025 mm 0,0 UV-I 0 W/m 1,6 C -3,6 C 30,6 km/h (5 Bft) 98,00 %
28.12.2016 17:04 4,7 C 81 % 1038,4 hPa 0,0 l/m 19,4 km/h (3 Bft) W-SW 257 0 min 0,000 mm 0,0 UV-I 0 W/m 1,7 C -3,3 C 30,6 km/h (5 Bft) 96,00 %
28.12.2016 17:06 4,6 C 81 % 1038,4 hPa 0,0 l/m 18,3 km/h (3 Bft) W 281 0 min 0,000 mm 0,0 UV-I 0 W/m 1,6 C -3,0 C 25,7 km/h (4 Bft) 97,87 %
28.12.2016 17:08 4,6 C 81 % 1038,4 hPa 0,0 l/m 18,6 km/h (3 Bft) SW 225 0 min 0,000 mm 0,0 UV-I 0 W/m 1,6 C -3,1 C 37,0 km/h (5 Bft) 97,87 %
28.12.2016 17:10 4,6 C 81 % 1038,4 hPa 0,0 l/m 18,1 km/h (3 Bft) W-SW 238 0 min 0,000 mm 0,0 UV-I 0 W/m 1,6 C -2,9 C 30,6 km/h (5 Bft) 100,00 %
28.12.2016 17:12 4,6 C 81 % 1038,4 hPa 0,0 l/m 23,5 km/h (4 Bft) W-SW 246 0 min 0,000 mm 0,0 UV-I 0 W/m 1,6 C -5,0 C 35,4 km/h (5 Bft) 100,00 %
28.12.2016 17:14 4,6 C 81 % 1038,4 hPa 0,0 l/m 27,0 km/h (4 Bft) W-SW 252 0 min 0,000 mm 0,0 UV-I 0 W/m 1,6 C -6,1 C 41,8 km/h (6 Bft) 100,00 %
28.12.2016 17:16 4,6 C 81 % 1038,5 hPa 0,0 l/m 19,8 km/h (3 Bft) W 269 0 min 0,000 mm 0,0 UV-I 0 W/m 1,6 C -3,6 C 27,4 km/h (4 Bft) 100,00 %
28.12.2016 17:18 4,6 C 82 % 1038,5 hPa 0,0 l/m 18,0 km/h (3 Bft) W-SW 254 0 min 0,000 mm 0,0 UV-I 0 W/m 1,8 C -2,8 C 29,0 km/h (5 Bft) 100,00 %
28.12.2016 17:20 4,6 C 82 % 1038,5 hPa 0,0 l/m 20,4 km/h (4 Bft) W 269 0 min 0,000 mm 0,0 UV-I 0 W/m 1,8 C -3,8 C 29,0 km/h (5 Bft) 97,87 %
28.12.2016 17:22 4,6 C 81 % 1038,5 hPa 0,0 l/m 20,4 km/h (4 Bft) W-SW 252 0 min 0,000 mm 0,0 UV-I 0 W/m 1,6 C -3,8 C 29,0 km/h (5 Bft) 100,00 %
28.12.2016 17:24 4,6 C 81 % 1038,5 hPa 0,0 l/m 24,3 km/h (4 Bft) W 266 0 min 0,000 mm 0,0 UV-I 0 W/m 1,6 C -5,3 C 33,8 km/h (5 Bft) 100,00 %
28.12.2016 17:26 4,6 C 81 % 1038,5 hPa 0,0 l/m 22,1 km/h (4 Bft) SW 233 0 min 0,000 mm 0,0 UV-I 0 W/m 1,6 C -4,5 C 32,2 km/h (5 Bft) 100,00 %
28.12.2016 17:28 4,6 C 81 % 1038,5 hPa 0,0 l/m 23,1 km/h (4 Bft) W-SW 253 0 min 0,000 mm 0,0 UV-I 0 W/m 1,6 C -4,8 C 35,4 km/h (5 Bft) 97,87 %
28.12.2016 17:30 4,6 C 81 % 1038,5 hPa 0,0 l/m 19,3 km/h (3 Bft) W-SW 252 0 min 0,000 mm 0,0 UV-I 0 W/m 1,6 C -3,4 C 30,6 km/h (5 Bft) 97,87 %
28.12.2016 17:32 4,6 C 81 % 1038,5 hPa 0,0 l/m 16,9 km/h (3 Bft) W-SW 246 0 min 0,000 mm 0,0 UV-I 0 W/m 1,6 C -2,3 C 24,1 km/h (4 Bft) 97,87 %
28.12.2016 17:34 4,6 C 81 % 1038,5 hPa 0,0 l/m 25,1 km/h (4 Bft) W-SW 255 0 min 0,000 mm 0,0 UV-I 0 W/m 1,6 C -5,5 C 40,2 km/h (6 Bft) 100,00 %
28.12.2016 17:36 4,6 C 81 % 1038,4 hPa 0,0 l/m 22,0 km/h (4 Bft) W-NW 291 0 min 0,000 mm 0,0 UV-I 0 W/m 1,6 C -4,5 C 29,0 km/h (5 Bft) 98,08 %
28.12.2016 17:38 4,6 C 82 % 1038,5 hPa 0,0 l/m 18,4 km/h (3 Bft) W-SW 248 0 min 0,000 mm 0,0 UV-I 0 W/m 1,8 C -3,0 C 29,0 km/h (5 Bft) 100,00 %
28.12.2016 17:40 4,5 C 81 % 1038,5 hPa 0,0 l/m 23,7 km/h (4 Bft) W-SW 252 0 min 0,000 mm 0,0 UV-I 0 W/m 1,5 C -5,2 C 35,4 km/h (5 Bft) 97,14 %
28.12.2016 17:42 4,5 C 81 % 1038,5 hPa 0,0 l/m 20,7 km/h (4 Bft) W-SW 243 0 min 0,000 mm 0,0 UV-I 0 W/m 1,5 C -4,1 C 27,4 km/h (4 Bft) 100,00 %
28.12.2016 17:44 4,5 C 81 % 1038,6 hPa 0,0 l/m 17,8 km/h (3 Bft) W-SW 254 0 min 0,000 mm 0,0 UV-I 0 W/m 1,5 C -2,9 C 30,6 km/h (5 Bft) 100,00 %
28.12.2016 17:46 4,5 C 81 % 1038,7 hPa 0,0 l/m 17,2 km/h (3 Bft) W 272 0 min 0,000 mm 0,0 UV-I 0 W/m 1,5 C -2,6 C 22,5 km/h (4 Bft) 97,96 %
28.12.2016 17:48 4,5 C 81 % 1038,7 hPa 0,0 l/m 20,0 km/h (4 Bft) W-SW 252 0 min 0,000 mm 0,0 UV-I 0 W/m 1,5 C -3,8 C 30,6 km/h (5 Bft) 100,00 %
28.12.2016 17:50 4,5 C 81 % 1038,7 hPa 0,0 l/m 22,9 km/h (4 Bft) W-SW 257 0 min 0,000 mm 0,0 UV-I 0 W/m 1,5 C -4,9 C 32,2 km/h (5 Bft) 100,00 %
28.12.2016 17:52 4,5 C 81 % 1038,7 hPa 0,0 l/m 21,1 km/h (4 Bft) SW 222 0 min 0,000 mm 0,0 UV-I 0 W/m 1,5 C -4,3 C 29,0 km/h (5 Bft) 100,00 %
28.12.2016 17:54 4,6 C 81 % 1038,7 hPa 0,0 l/m 20,2 km/h (4 Bft) W-SW 238 0 min 0,000 mm 0,0 UV-I 0 W/m 1,6 C -3,8 C 27,4 km/h (4 Bft) 100,00 %
28.12.2016 17:56 4,5 C 81 % 1038,7 hPa 0,0 l/m 20,6 km/h (4 Bft) W-SW 254 0 min 0,000 mm 0,0 UV-I 0 W/m 1,5 C -4,1 C 27,4 km/h (4 Bft) 97,37 %
28.12.2016 17:58 4,6 C 81 % 1038,7 hPa 0,0 l/m 21,5 km/h (4 Bft) W 272 0 min 0,000 mm 0,0 UV-I 0 W/m 1,6 C -4,3 C 35,4 km/h (5 Bft) 98,00 %
28.12.2016 18:00 4,6 C 81 % 1038,6 hPa 0,0 l/m 21,1 km/h (4 Bft) W-SW 243 0 min 0,000 mm 0,0 UV-I 0 W/m 1,6 C -4,1 C 29,0 km/h (5 Bft) 100,00 %
28.12.2016 18:02 4,6 C 81 % 1038,6 hPa 0,0 l/m 17,7 km/h (3 Bft) W-SW 244 0 min 0,025 mm 0,0 UV-I 0 W/m 1,6 C -2,7 C 25,7 km/h (4 Bft) 97,87 %
28.12.2016 18:04 4,6 C 81 % 1038,6 hPa 0,0 l/m 19,9 km/h (4 Bft) W-SW 238 0 min 0,000 mm 0,0 UV-I 0 W/m 1,6 C -3,6 C 32,2 km/h (5 Bft) 100,00 %
28.12.2016 18:06 4,6 C 81 % 1038,6 hPa 0,0 l/m 22,3 km/h (4 Bft) W-SW 253 0 min 0,000 mm 0,0 UV-I 0 W/m 1,6 C -4,6 C 33,8 km/h (5 Bft) 100,00 %
28.12.2016 18:08 4,5 C 81 % 1038,6 hPa 0,0 l/m 23,2 km/h (4 Bft) W 272 0 min 0,000 mm 0,0 UV-I 0 W/m 1,5 C -5,0 C 33,8 km/h (5 Bft) 97,87 %
28.12.2016 18:10 4,5 C 81 % 1038,6 hPa 0,0 l/m 20,0 km/h (4 Bft) W-SW 255 0 min 0,000 mm 0,0 UV-I 0 W/m 1,5 C -3,8 C 29,0 km/h (5 Bft) 100,00 %
28.12.2016 18:12 4,6 C 81 % 1038,7 hPa 0,0 l/m 16,9 km/h (3 Bft) W 268 0 min 0,000 mm 0,0 UV-I 0 W/m 1,6 C -2,3 C 25,7 km/h (4 Bft) 100,00 %
28.12.2016 18:14 4,5 C 81 % 1038,8 hPa 0,0 l/m 19,6 km/h (3 Bft) W-SW 250 0 min 0,000 mm 0,0 UV-I 0 W/m 1,5 C -3,7 C 35,4 km/h (5 Bft) 93,62 %
28.12.2016 18:16 4,5 C 81 % 1038,7 hPa 0,0 l/m 23,8 km/h (4 Bft) W-SW 250 0 min 0,000 mm 0,0 UV-I 0 W/m 1,5 C -5,2 C 33,8 km/h (5 Bft) 93,62 %
28.12.2016 18:18 4,6 C 81 % 1038,8 hPa 0,0 l/m 16,3 km/h (3 Bft) W-SW 253 0 min 0,000 mm 0,0 UV-I 0 W/m 1,6 C -2,1 C 22,5 km/h (4 Bft) 94,74 %
28.12.2016 18:20 4,6 C 81 % 1038,8 hPa 0,0 l/m 16,5 km/h (3 Bft) W-SW 253 0 min 0,000 mm 0,0 UV-I 0 W/m 1,6 C -2,2 C 30,6 km/h (5 Bft) 97,87 %
28.12.2016 18:22 4,5 C 81 % 1038,9 hPa 0,0 l/m 14,2 km/h (3 Bft) W 262 0 min 0,000 mm 0,0 UV-I 0 W/m 1,5 C -1,1 C 19,3 km/h (3 Bft) 95,74 %
28.12.2016 18:24 4,5 C 81 % 1038,9 hPa 0,0 l/m 18,4 km/h (3 Bft) SW 232 0 min 0,000 mm 0,0 UV-I 0 W/m 1,5 C -3,1 C 25,7 km/h (4 Bft) 97,92 %
28.12.2016 18:26 4,5 C 81 % 1039,0 hPa 0,0 l/m 19,9 km/h (4 Bft) W 264 0 min 0,000 mm 0,0 UV-I 0 W/m 1,5 C -3,8 C 27,4 km/h (4 Bft) 95,74 %
28.12.2016 18:28 4,5 C 81 % 1038,9 hPa 0,0 l/m 15,8 km/h (3 Bft) W 263 0 min 0,000 mm 0,0 UV-I 0 W/m 1,5 C -1,9 C 24,1 km/h (4 Bft) 97,87 %
28.12.2016 18:30 4,5 C 81 % 1038,8 hPa 0,0 l/m 16,9 km/h (3 Bft) W-SW 252 0 min 0,000 mm 0,0 UV-I 0 W/m 1,5 C -2,5 C 25,7 km/h (4 Bft) 97,87 %
28.12.2016 18:32 4,5 C 81 % 1038,8 hPa 0,0 l/m 17,3 km/h (3 Bft) W 263 0 min 0,000 mm 0,0 UV-I 0 W/m 1,5 C -2,7 C 24,1 km/h (4 Bft) 93,62 %
28.12.2016 18:34 4,5 C 81 % 1038,8 hPa 0,0 l/m 17,8 km/h (3 Bft) W-SW 252 0 min 0,000 mm 0,0 UV-I 0 W/m 1,5 C -2,9 C 30,6 km/h (5 Bft) 94,00 %
28.12.2016 18:36 4,5 C 81 % 1038,8 hPa 0,0 l/m 18,1 km/h (3 Bft) W-SW 241 0 min 0,000 mm 0,0 UV-I 0 W/m 1,5 C -3,0 C 27,4 km/h (4 Bft) 95,74 %
28.12.2016 18:38 4,5 C 81 % 1038,7 hPa 0,0 l/m 18,1 km/h (3 Bft) W-SW 245 0 min 0,000 mm 0,0 UV-I 0 W/m 1,5 C -3,0 C 32,2 km/h (5 Bft) 95,74 %
28.12.2016 18:40 4,5 C 81 % 1038,7 hPa 0,0 l/m 19,8 km/h (3 Bft) W 260 0 min 0,000 mm 0,0 UV-I 0 W/m 1,5 C -3,7 C 29,0 km/h (5 Bft) 93,62 %
28.12.2016 18:42 4,5 C 81 % 1038,8 hPa 0,0 l/m 16,8 km/h (3 Bft) W 267 0 min 0,000 mm 0,0 UV-I 0 W/m 1,5 C -2,4 C 24,1 km/h (4 Bft) 98,00 %
28.12.2016 18:44 4,5 C 81 % 1038,8 hPa 0,0 l/m 15,3 km/h (3 Bft) W 263 0 min 0,000 mm 0,0 UV-I 0 W/m 1,5 C -1,7 C 24,1 km/h (4 Bft) 93,62 %
28.12.2016 18:46 4,4 C 81 % 1038,7 hPa 0,0 l/m 16,3 km/h (3 Bft) W-SW 248 0 min 0,000 mm 0,0 UV-I 0 W/m 1,4 C -2,3 C 24,1 km/h (4 Bft) 95,74 %
28.12.2016 18:48 4,4 C 81 % 1038,7 hPa 0,0 l/m 15,4 km/h (3 Bft) W 273 0 min 0,000 mm 0,0 UV-I 0 W/m 1,4 C -1,9 C 25,7 km/h (4 Bft) 97,87 %
28.12.2016 18:50 4,4 C 81 % 1038,7 hPa 0,0 l/m 16,7 km/h (3 Bft) W-SW 242 0 min 0,000 mm 0,0 UV-I 0 W/m 1,4 C -2,5 C 25,7 km/h (4 Bft) 95,74 %
28.12.2016 18:52 4,4 C 81 % 1038,7 hPa 0,0 l/m 17,7 km/h (3 Bft) W 267 0 min 0,000 mm 0,0 UV-I 0 W/m 1,4 C -3,0 C 29,0 km/h (5 Bft) 100,00 %
28.12.2016 18:54 4,4 C 81 % 1038,8 hPa 0,0 l/m 17,3 km/h (3 Bft) W 265 0 min 0,000 mm 0,0 UV-I 0 W/m 1,4 C -2,8 C 24,1 km/h (4 Bft) 100,00 %
28.12.2016 18:56 4,4 C 81 % 1038,8 hPa 0,0 l/m 18,0 km/h (3 Bft) W-SW 249 0 min 0,000 mm 0,0 UV-I 0 W/m 1,4 C -3,1 C 25,7 km/h (4 Bft) 100,00 %
28.12.2016 18:58 4,4 C 81 % 1038,8 hPa 0,0 l/m 18,3 km/h (3 Bft) W 273 0 min 0,000 mm 0,0 UV-I 0 W/m 1,4 C -3,2 C 29,0 km/h (5 Bft) 100,00 %
28.12.2016 19:00 4,4 C 81 % 1038,8 hPa 0,0 l/m 14,6 km/h (3 Bft) W 260 0 min 0,026 mm 0,0 UV-I 0 W/m 1,4 C -1,4 C 22,5 km/h (4 Bft) 97,87 %
28.12.2016 19:02 4,4 C 81 % 1038,7 hPa 0,0 l/m 14,0 km/h (3 Bft) W-SW 244 0 min 0,000 mm 0,0 UV-I 0 W/m 1,4 C -1,1 C 20,9 km/h (4 Bft) 100,00 %
28.12.2016 19:04 4,4 C 81 % 1038,7 hPa 0,0 l/m 16,4 km/h (3 Bft) W 261 0 min 0,000 mm 0,0 UV-I 0 W/m 1,4 C -2,4 C 27,4 km/h (4 Bft) 97,87 %
28.12.2016 19:06 4,4 C 81 % 1038,9 hPa 0,0 l/m 15,5 km/h (3 Bft) W-SW 252 0 min 0,000 mm 0,0 UV-I 0 W/m 1,4 C -1,9 C 20,9 km/h (4 Bft) 97,87 %
28.12.2016 19:08 4,4 C 81 % 1038,9 hPa 0,0 l/m 14,9 km/h (3 Bft) W 261 0 min 0,000 mm 0,0 UV-I 0 W/m 1,4 C -1,6 C 24,1 km/h (4 Bft) 100,00 %
28.12.2016 19:10 4,4 C 81 % 1038,9 hPa 0,0 l/m 15,8 km/h (3 Bft) W 263 0 min 0,000 mm 0,0 UV-I 0 W/m 1,4 C -2,1 C 25,7 km/h (4 Bft) 97,92 %
28.12.2016 19:12 4,4 C 81 % 1038,9 hPa 0,0 l/m 17,9 km/h (3 Bft) W 269 0 min 0,000 mm 0,0 UV-I 0 W/m 1,4 C -3,1 C 29,0 km/h (5 Bft) 100,00 %
28.12.2016 19:14 4,4 C 81 % 1039,0 hPa 0,0 l/m 17,1 km/h (3 Bft) W 260 0 min 0,000 mm 0,0 UV-I 0 W/m 1,4 C -2,7 C 24,1 km/h (4 Bft) 97,87 %
28.12.2016 19:16 4,4 C 81 % 1038,9 hPa 0,0 l/m 16,4 km/h (3 Bft) W 259 0 min 0,000 mm 0,0 UV-I 0 W/m 1,4 C -2,4 C 24,1 km/h (4 Bft) 100,00 %
28.12.2016 19:18 4,4 C 81 % 1038,9 hPa 0,0 l/m 19,4 km/h (3 Bft) W 261 0 min 0,000 mm 0,0 UV-I 0 W/m 1,4 C -3,7 C 30,6 km/h (5 Bft) 96,92 %
28.12.2016 19:20 4,4 C 81 % 1039,0 hPa 0,0 l/m 18,1 km/h (3 Bft) W 267 0 min 0,000 mm 0,0 UV-I 0 W/m 1,4 C -3,1 C 24,1 km/h (4 Bft) 97,87 %
28.12.2016 19:22 4,4 C 81 % 1039,0 hPa 0,0 l/m 17,8 km/h (3 Bft) W-SW 248 0 min 0,000 mm 0,0 UV-I 0 W/m 1,4 C -3,0 C 27,4 km/h (4 Bft) 100,00 %
28.12.2016 19:24 4,4 C 81 % 1039,0 hPa 0,0 l/m 22,0 km/h (4 Bft) W-SW 246 0 min 0,000 mm 0,0 UV-I 0 W/m 1,4 C -4,7 C 32,2 km/h (5 Bft) 100,00 %
28.12.2016 19:26 4,4 C 81 % 1039,0 hPa 0,0 l/m 18,1 km/h (3 Bft) W-SW 238 0 min 0,000 mm 0,0 UV-I 0 W/m 1,4 C -3,1 C 35,4 km/h (5 Bft) 100,00 %
28.12.2016 19:28 4,3 C 81 % 1039,0 hPa 0,0 l/m 22,7 km/h (4 Bft) W-SW 254 0 min 0,000 mm 0,0 UV-I 0 W/m 1,3 C -5,1 C 37,0 km/h (5 Bft) 100,00 %
28.12.2016 19:30 4,4 C 81 % 1039,0 hPa 0,0 l/m 19,3 km/h (3 Bft) W 265 0 min 0,000 mm 0,0 UV-I 0 W/m 1,4 C -3,7 C 25,7 km/h (4 Bft) 100,00 %
28.12.2016 19:32 4,4 C 81 % 1038,9 hPa 0,0 l/m 16,1 km/h (3 Bft) W-SW 251 0 min 0,000 mm 0,0 UV-I 0 W/m 1,4 C -2,2 C 25,7 km/h (4 Bft) 100,00 %
28.12.2016 19:34 4,4 C 81 % 1039,0 hPa 0,0 l/m 19,9 km/h (4 Bft) W-SW 252 0 min 0,000 mm 0,0 UV-I 0 W/m 1,4 C -3,9 C 25,7 km/h (4 Bft) 100,00 %
28.12.2016 19:36 4,3 C 81 % 1039,0 hPa 0,0 l/m 21,1 km/h (4 Bft) W 274 0 min 0,000 mm 0,0 UV-I 0 W/m 1,3 C -4,5 C 33,8 km/h (5 Bft) 97,87 %
28.12.2016 19:38 4,4 C 81 % 1039,0 hPa 0,0 l/m 22,8 km/h (4 Bft) W-SW 245 0 min 0,000 mm 0,0 UV-I 0 W/m 1,4 C -5,0 C 33,8 km/h (5 Bft) 100,00 %
28.12.2016 19:40 4,4 C 81 % 1039,0 hPa 0,0 l/m 25,5 km/h (4 Bft) W-SW 243 0 min 0,000 mm 0,0 UV-I 0 W/m 1,4 C -5,9 C 33,8 km/h (5 Bft) 98,00 %
28.12.2016 19:42 4,4 C 81 % 1039,1 hPa 0,0 l/m 18,4 km/h (3 Bft) W 259 0 min 0,000 mm 0,0 UV-I 0 W/m 1,4 C -3,3 C 27,4 km/h (4 Bft) 100,00 %
28.12.2016 19:44 4,4 C 81 % 1039,1 hPa 0,0 l/m 19,6 km/h (3 Bft) W 278 0 min 0,000 mm 0,0 UV-I 0 W/m 1,4 C -3,8 C 27,4 km/h (4 Bft) 97,87 %
28.12.2016 19:46 4,3 C 81 % 1039,1 hPa 0,0 l/m 16,2 km/h (3 Bft) W-SW 254 0 min 0,000 mm 0,0 UV-I 0 W/m 1,3 C -2,4 C 25,7 km/h (4 Bft) 93,75 %
28.12.2016 19:48 4,3 C 81 % 1039,1 hPa 0,0 l/m 15,9 km/h (3 Bft) W 269 0 min 0,000 mm 0,0 UV-I 0 W/m 1,3 C -2,2 C 25,7 km/h (4 Bft) 100,00 %
28.12.2016 19:50 4,3 C 81 % 1039,0 hPa 0,0 l/m 19,1 km/h (3 Bft) W 259 0 min 0,000 mm 0,0 UV-I 0 W/m 1,3 C -3,7 C 27,4 km/h (4 Bft) 100,00 %
28.12.2016 19:52 4,3 C 81 % 1039,0 hPa 0,0 l/m 18,8 km/h (3 Bft) W 277 0 min 0,000 mm 0,0 UV-I 0 W/m 1,3 C -3,6 C 27,4 km/h (4 Bft) 97,87 %
28.12.2016 19:54 4,3 C 81 % 1039,1 hPa 0,0 l/m 16,2 km/h (3 Bft) W 264 0 min 0,000 mm 0,0 UV-I 0 W/m 1,3 C -2,4 C 22,5 km/h (4 Bft) 100,00 %
28.12.2016 19:56 4,3 C 81 % 1039,0 hPa 0,0 l/m 20,7 km/h (4 Bft) W 259 0 min 0,000 mm 0,0 UV-I 0 W/m 1,3 C -4,4 C 27,4 km/h (4 Bft) 100,00 %
28.12.2016 19:58 4,3 C 81 % 1039,1 hPa 0,0 l/m 19,5 km/h (3 Bft) SW 228 0 min 0,000 mm 0,0 UV-I 0 W/m 1,3 C -3,9 C 30,6 km/h (5 Bft) 100,00 %
28.12.2016 20:00 4,3 C 81 % 1039,2 hPa 0,0 l/m 17,8 km/h (3 Bft) W 262 0 min 0,000 mm 0,0 UV-I 0 W/m 1,3 C -3,1 C 30,6 km/h (5 Bft) 100,00 %
28.12.2016 20:02 4,3 C 81 % 1039,3 hPa 0,0 l/m 18,1 km/h (3 Bft) W 273 0 min 0,025 mm 0,0 UV-I 0 W/m 1,3 C -3,3 C 27,4 km/h (4 Bft) 100,00 %
28.12.2016 20:04 4,3 C 82 % 1039,3 hPa 0,0 l/m 14,1 km/h (3 Bft) W-SW 238 0 min 0,000 mm 0,0 UV-I 0 W/m 1,5 C -1,3 C 22,5 km/h (4 Bft) 100,00 %
28.12.2016 20:06 4,3 C 82 % 1039,3 hPa 0,0 l/m 15,6 km/h (3 Bft) W-SW 249 0 min 0,000 mm 0,0 UV-I 0 W/m 1,5 C -2,1 C 24,1 km/h (4 Bft) 100,00 %
28.12.2016 20:08 4,3 C 82 % 1039,3 hPa 0,0 l/m 22,5 km/h (4 Bft) W-SW 258 0 min 0,000 mm 0,0 UV-I 0 W/m 1,5 C -5,0 C 29,0 km/h (5 Bft) 100,00 %
28.12.2016 20:10 4,3 C 82 % 1039,2 hPa 0,0 l/m 21,0 km/h (4 Bft) W-SW 257 0 min 0,000 mm 0,0 UV-I 0 W/m 1,5 C -4,5 C 33,8 km/h (5 Bft) 100,00 %
28.12.2016 20:12 4,3 C 82 % 1039,2 hPa 0,0 l/m 22,3 km/h (4 Bft) W 263 0 min 0,000 mm 0,0 UV-I 0 W/m 1,5 C -5,0 C 30,6 km/h (5 Bft) 97,87 %
28.12.2016 20:14 4,3 C 82 % 1039,2 hPa 0,0 l/m 17,7 km/h (3 Bft) W 263 0 min 0,000 mm 0,0 UV-I 0 W/m 1,5 C -3,1 C 29,0 km/h (5 Bft) 100,00 %
28.12.2016 20:16 4,2 C 82 % 1039,2 hPa 0,0 l/m 15,8 km/h (3 Bft) W-SW 251 0 min 0,000 mm 0,0 UV-I 0 W/m 1,4 C -2,3 C 22,5 km/h (4 Bft) 100,00 %
28.12.2016 20:18 4,3 C 82 % 1039,2 hPa 0,0 l/m 19,6 km/h (3 Bft) W 260 0 min 0,000 mm 0,0 UV-I 0 W/m 1,5 C -3,9 C 29,0 km/h (5 Bft) 100,00 %
28.12.2016 20:20 4,2 C 82 % 1039,2 hPa 0,0 l/m 19,9 km/h (4 Bft) W 271 0 min 0,000 mm 0,0 UV-I 0 W/m 1,4 C -4,2 C 30,6 km/h (5 Bft) 96,00 %
28.12.2016 20:22 4,2 C 81 % 1039,2 hPa 0,0 l/m 19,6 km/h (3 Bft) W 260 0 min 0,000 mm 0,0 UV-I 0 W/m 1,2 C -4,0 C 25,7 km/h (4 Bft) 97,87 %
28.12.2016 20:24 4,2 C 82 % 1039,2 hPa 0,0 l/m 18,3 km/h (3 Bft) SW 215 0 min 0,000 mm 0,0 UV-I 0 W/m 1,4 C -3,5 C 29,0 km/h (5 Bft) 97,87 %
28.12.2016 20:26 4,2 C 82 % 1039,3 hPa 0,0 l/m 18,1 km/h (3 Bft) W-SW 257 0 min 0,000 mm 0,0 UV-I 0 W/m 1,4 C -3,4 C 29,0 km/h (5 Bft) 97,87 %
28.12.2016 20:28 4,3 C 82 % 1039,3 hPa 0,0 l/m 17,6 km/h (3 Bft) W 275 0 min 0,000 mm 0,0 UV-I 0 W/m 1,5 C -3,0 C 27,4 km/h (4 Bft) 97,87 %
28.12.2016 20:30 4,3 C 82 % 1039,3 hPa 0,0 l/m 21,1 km/h (4 Bft) W-SW 252 0 min 0,000 mm 0,0 UV-I 0 W/m 1,5 C -4,5 C 30,6 km/h (5 Bft) 97,92 %
28.12.2016 20:32 4,3 C 82 % 1039,3 hPa 0,0 l/m 18,0 km/h (3 Bft) W-SW 254 0 min 0,000 mm 0,0 UV-I 0 W/m 1,5 C -3,2 C 25,7 km/h (4 Bft) 97,37 %
28.12.2016 20:34 4,3 C 82 % 1039,3 hPa 0,0 l/m 15,3 km/h (3 Bft) W-NW 282 0 min 0,000 mm 0,0 UV-I 0 W/m 1,5 C -1,9 C 22,5 km/h (4 Bft) 97,87 %
28.12.2016 20:36 4,2 C 82 % 1039,3 hPa 0,0 l/m 19,3 km/h (3 Bft) W 261 0 min 0,000 mm 0,0 UV-I 0 W/m 1,4 C -3,9 C 37,0 km/h (5 Bft) 93,62 %
28.12.2016 20:38 4,2 C 82 % 1039,4 hPa 0,0 l/m 20,3 km/h (4 Bft) W-SW 253 0 min 0,000 mm 0,0 UV-I 0 W/m 1,4 C -4,3 C 32,2 km/h (5 Bft) 95,74 %
28.12.2016 20:40 4,2 C 82 % 1039,5 hPa 0,0 l/m 15,0 km/h (3 Bft) W-SW 245 0 min 0,000 mm 0,0 UV-I 0 W/m 1,4 C -1,9 C 19,3 km/h (3 Bft) 97,87 %
28.12.2016 20:42 4,2 C 82 % 1039,5 hPa 0,0 l/m 20,9 km/h (4 Bft) W-SW 240 0 min 0,000 mm 0,0 UV-I 0 W/m 1,4 C -4,6 C 27,4 km/h (4 Bft) 97,87 %
28.12.2016 20:44 4,2 C 82 % 1039,5 hPa 0,0 l/m 16,7 km/h (3 Bft) W 260 0 min 0,000 mm 0,0 UV-I 0 W/m 1,4 C -2,7 C 24,1 km/h (4 Bft) 96,00 %
28.12.2016 20:46 4,2 C 82 % 1039,5 hPa 0,0 l/m 13,8 km/h (3 Bft) W-NW 287 0 min 0,000 mm 0,0 UV-I 0 W/m 1,4 C -1,2 C 19,3 km/h (3 Bft) 97,87 %
28.12.2016 20:48 4,2 C 82 % 1039,5 hPa 0,0 l/m 13,2 km/h (3 Bft) W 259 0 min 0,000 mm 0,0 UV-I 0 W/m 1,4 C -0,9 C 27,4 km/h (4 Bft) 97,87 %
28.12.2016 20:50 4,2 C 82 % 1039,5 hPa 0,0 l/m 24,4 km/h (4 Bft) W-SW 238 0 min 0,000 mm 0,0 UV-I 0 W/m 1,4 C -5,8 C 38,6 km/h (5 Bft) 95,74 %
28.12.2016 20:52 4,2 C 82 % 1039,5 hPa 0,0 l/m 17,8 km/h (3 Bft) W 267 0 min 0,000 mm 0,0 UV-I 0 W/m 1,4 C -3,3 C 24,1 km/h (4 Bft) 97,87 %
28.12.2016 20:54 4,2 C 82 % 1039,6 hPa 0,0 l/m 17,2 km/h (3 Bft) W-SW 258 0 min 0,000 mm 0,0 UV-I 0 W/m 1,4 C -3,0 C 30,6 km/h (5 Bft) 98,00 %
28.12.2016 20:56 4,2 C 82 % 1039,6 hPa 0,0 l/m 17,2 km/h (3 Bft) W-SW 250 0 min 0,000 mm 0,0 UV-I 0 W/m 1,4 C -3,0 C 30,6 km/h (5 Bft) 95,74 %
28.12.2016 20:58 4,2 C 82 % 1039,4 hPa 0,0 l/m 20,5 km/h (4 Bft) W 261 0 min 0,000 mm 0,0 UV-I 0 W/m 1,4 C -4,4 C 32,2 km/h (5 Bft) 97,87 %
28.12.2016 21:00 4,2 C 82 % 1039,5 hPa 0,0 l/m 17,0 km/h (3 Bft) W-SW 248 0 min 0,000 mm 0,0 UV-I 0 W/m 1,4 C -2,9 C 20,9 km/h (4 Bft) 100,00 %
28.12.2016 21:02 4,2 C 82 % 1039,5 hPa 0,0 l/m 16,6 km/h (3 Bft) W 260 0 min 0,026 mm 0,0 UV-I 0 W/m 1,4 C -2,7 C 22,5 km/h (4 Bft) 100,00 %
28.12.2016 21:04 4,2 C 82 % 1039,5 hPa 0,0 l/m 18,7 km/h (3 Bft) W-NW 282 0 min 0,000 mm 0,0 UV-I 0 W/m 1,4 C -3,7 C 24,1 km/h (4 Bft) 97,87 %
28.12.2016 21:06 4,1 C 83 % 1039,5 hPa 0,0 l/m 14,1 km/h (3 Bft) W 262 0 min 0,000 mm 0,0 UV-I 0 W/m 1,5 C -1,5 C 24,1 km/h (4 Bft) 95,74 %
28.12.2016 21:08 4,1 C 83 % 1039,6 hPa 0,0 l/m 18,3 km/h (3 Bft) W-SW 240 0 min 0,000 mm 0,0 UV-I 0 W/m 1,5 C -3,6 C 32,2 km/h (5 Bft) 97,92 %
28.12.2016 21:10 4,1 C 83 % 1039,6 hPa 0,0 l/m 18,1 km/h (3 Bft) W 281 0 min 0,000 mm 0,0 UV-I 0 W/m 1,5 C -3,5 C 24,1 km/h (4 Bft) 100,00 %
28.12.2016 21:12 4,1 C 83 % 1039,6 hPa 0,0 l/m 12,7 km/h (3 Bft) W-SW 240 0 min 0,000 mm 0,0 UV-I 0 W/m 1,5 C -0,7 C 22,5 km/h (4 Bft) 100,00 %
28.12.2016 21:14 4,1 C 83 % 1039,6 hPa 0,0 l/m 14,3 km/h (3 Bft) W-SW 248 0 min 0,000 mm 0,0 UV-I 0 W/m 1,5 C -1,6 C 20,9 km/h (4 Bft) 95,74 %
28.12.2016 21:16 4,1 C 83 % 1039,5 hPa 0,0 l/m 15,7 km/h (3 Bft) W 261 0 min 0,000 mm 0,0 UV-I 0 W/m 1,5 C -2,4 C 24,1 km/h (4 Bft) 100,00 %
28.12.2016 21:18 4,1 C 83 % 1039,5 hPa 0,0 l/m 17,0 km/h (3 Bft) W-SW 238 0 min 0,000 mm 0,0 UV-I 0 W/m 1,5 C -3,0 C 30,6 km/h (5 Bft) 100,00 %
28.12.2016 21:20 4,1 C 83 % 1039,5 hPa 0,0 l/m 17,7 km/h (3 Bft) W-SW 249 0 min 0,000 mm 0,0 UV-I 0 W/m 1,5 C -3,3 C 25,7 km/h (4 Bft) 97,87 %
28.12.2016 21:22 4,1 C 83 % 1039,6 hPa 0,0 l/m 13,2 km/h (3 Bft) W 272 0 min 0,000 mm 0,0 UV-I 0 W/m 1,5 C -1,0 C 19,3 km/h (3 Bft) 95,74 %
28.12.2016 21:24 4,1 C 84 % 1039,6 hPa 0,0 l/m 15,3 km/h (3 Bft) W 264 0 min 0,000 mm 0,0 UV-I 0 W/m 1,6 C -2,2 C 20,9 km/h (4 Bft) 95,74 %
28.12.2016 21:26 4,0 C 83 % 1039,6 hPa 0,0 l/m 16,7 km/h (3 Bft) W 267 0 min 0,000 mm 0,0 UV-I 0 W/m 1,4 C -3,0 C 25,7 km/h (4 Bft) 97,87 %
28.12.2016 21:28 4,0 C 83 % 1039,6 hPa 0,0 l/m 17,8 km/h (3 Bft) W-SW 256 0 min 0,000 mm 0,0 UV-I 0 W/m 1,4 C -3,5 C 25,7 km/h (4 Bft) 100,00 %
28.12.2016 21:30 4,0 C 83 % 1039,7 hPa 0,0 l/m 13,4 km/h (3 Bft) W-NW 288 0 min 0,000 mm 0,0 UV-I 0 W/m 1,4 C -1,2 C 20,9 km/h (4 Bft) 96,36 %
28.12.2016 21:32 4,0 C 83 % 1039,7 hPa 0,0 l/m 12,9 km/h (3 Bft) W-NW 295 0 min 0,000 mm 0,0 UV-I 0 W/m 1,4 C -1,0 C 19,3 km/h (3 Bft) 100,00 %
28.12.2016 21:34 4,0 C 83 % 1039,8 hPa 0,0 l/m 9,5 km/h (2 Bft) W-SW 257 0 min 0,000 mm 0,0 UV-I 0 W/m 1,4 C 1,3 C 19,3 km/h (3 Bft) 100,00 %
28.12.2016 21:36 4,0 C 83 % 1039,7 hPa 0,0 l/m 12,1 km/h (2 Bft) W-SW 254 0 min 0,000 mm 0,0 UV-I 0 W/m 1,4 C -0,5 C 19,3 km/h (3 Bft) 100,00 %
28.12.2016 21:38 4,0 C 83 % 1039,8 hPa 0,0 l/m 11,1 km/h (2 Bft) SW 228 0 min 0,000 mm 0,0 UV-I 0 W/m 1,4 C 0,2 C 19,3 km/h (3 Bft) 100,00 %
28.12.2016 21:40 4,0 C 83 % 1040,0 hPa 0,0 l/m 9,9 km/h (2 Bft) W 278 0 min 0,000 mm 0,0 UV-I 0 W/m 1,4 C 1,0 C 17,7 km/h (3 Bft) 100,00 %
28.12.2016 21:42 4,0 C 83 % 1040,0 hPa 0,0 l/m 10,2 km/h (2 Bft) W 263 0 min 0,000 mm 0,0 UV-I 0 W/m 1,4 C 0,8 C 17,7 km/h (3 Bft) 100,00 %
28.12.2016 21:44 4,0 C 83 % 1040,0 hPa 0,0 l/m 13,6 km/h (3 Bft) W 280 0 min 0,000 mm 0,0 UV-I 0 W/m 1,4 C -1,4 C 19,3 km/h (3 Bft) 94,87 %
28.12.2016 21:46 4,0 C 83 % 1040,1 hPa 0,0 l/m 5,9 km/h (2 Bft) W-NW 284 0 min 0,000 mm 0,0 UV-I 0 W/m 1,4 C 4,0 C 11,3 km/h (2 Bft) 100,00 %
28.12.2016 21:48 4,0 C 83 % 1040,1 hPa 0,0 l/m 10,8 km/h (2 Bft) W-SW 245 0 min 0,000 mm 0,0 UV-I 0 W/m 1,4 C 0,4 C 19,3 km/h (3 Bft) 100,00 %
28.12.2016 21:50 4,0 C 83 % 1040,1 hPa 0,0 l/m 6,3 km/h (2 Bft) W-SW 249 0 min 0,000 mm 0,0 UV-I 0 W/m 1,4 C 4,0 C 14,5 km/h (3 Bft) 97,96 %
28.12.2016 21:52 4,0 C 83 % 1040,1 hPa 0,0 l/m 5,3 km/h (1 Bft) W 266 0 min 0,000 mm 0,0 UV-I 0 W/m 1,4 C 4,0 C 12,9 km/h (3 Bft) 98,00 %
28.12.2016 21:54 4,0 C 83 % 1040,2 hPa 0,0 l/m 10,2 km/h (2 Bft) W 275 0 min 0,000 mm 0,0 UV-I 0 W/m 1,4 C 0,8 C 16,1 km/h (3 Bft) 100,00 %
28.12.2016 21:56 4,0 C 83 % 1040,2 hPa 0,0 l/m 5,8 km/h (2 Bft) W-NW 284 0 min 0,000 mm 0,0 UV-I 0 W/m 1,4 C 4,0 C 12,9 km/h (3 Bft) 100,00 %
28.12.2016 21:58 4,0 C 83 % 1040,2 hPa 0,0 l/m 4,1 km/h (1 Bft) W-SW 257 0 min 0,000 mm 0,0 UV-I 0 W/m 1,4 C 4,0 C 8,0 km/h (2 Bft) 100,00 %
28.12.2016 22:00 4,0 C 84 % 1040,2 hPa 0,0 l/m 7,5 km/h (2 Bft) W 262 0 min 0,000 mm 0,0 UV-I 0 W/m 1,5 C 3,0 C 11,3 km/h (2 Bft) 95,92 %
28.12.2016 22:02 3,9 C 84 % 1040,3 hPa 0,0 l/m 5,3 km/h (1 Bft) W-SW 253 0 min 0,025 mm 0,0 UV-I 0 W/m 1,4 C 3,9 C 11,3 km/h (2 Bft) 100,00 %
28.12.2016 22:04 3,9 C 84 % 1040,3 hPa 0,0 l/m 3,2 km/h (1 Bft) NW 307 0 min 0,000 mm 0,0 UV-I 0 W/m 1,4 C 3,9 C 11,3 km/h (2 Bft) 100,00 %
28.12.2016 22:06 3,9 C 84 % 1040,3 hPa 0,0 l/m 5,3 km/h (1 Bft) W-NW 297 0 min 0,000 mm 0,0 UV-I 0 W/m 1,4 C 3,9 C 14,5 km/h (3 Bft) 97,87 %
28.12.2016 22:08 3,9 C 84 % 1040,3 hPa 0,0 l/m 5,1 km/h (1 Bft) W-NW 284 0 min 0,000 mm 0,0 UV-I 0 W/m 1,4 C 3,9 C 11,3 km/h (2 Bft) 100,00 %
28.12.2016 22:10 3,9 C 84 % 1040,3 hPa 0,0 l/m 3,5 km/h (1 Bft) W-NW 282 0 min 0,000 mm 0,0 UV-I 0 W/m 1,4 C 3,9 C 6,4 km/h (2 Bft) 100,00 %
28.12.2016 22:12 3,9 C 85 % 1040,4 hPa 0,0 l/m 8,0 km/h (2 Bft) W-NW 300 0 min 0,000 mm 0,0 UV-I 0 W/m 1,6 C 2,4 C 17,7 km/h (3 Bft) 97,87 %
28.12.2016 22:14 3,8 C 85 % 1040,3 hPa 0,0 l/m 3,1 km/h (1 Bft) W-NW 292 0 min 0,000 mm 0,0 UV-I 0 W/m 1,5 C 3,8 C 6,4 km/h (2 Bft) 97,87 %
28.12.2016 22:16 3,8 C 85 % 1040,4 hPa 0,0 l/m 0,4 km/h (0 Bft) W-NW 292 0 min 0,000 mm 0,0 UV-I 0 W/m 1,5 C 3,8 C 1,6 km/h (1 Bft) 97,87 %
28.12.2016 22:18 3,8 C 86 % 1040,4 hPa 0,0 l/m 3,6 km/h (1 Bft) NW 304 0 min 0,000 mm 0,0 UV-I 0 W/m 1,7 C 3,8 C 6,4 km/h (2 Bft) 100,00 %
28.12.2016 22:20 3,8 C 86 % 1040,4 hPa 0,0 l/m 2,9 km/h (1 Bft) NW 319 0 min 0,000 mm 0,0 UV-I 0 W/m 1,7 C 3,8 C 8,0 km/h (2 Bft) 96,15 %
28.12.2016 22:22 3,7 C 86 % 1040,4 hPa 0,0 l/m 1,8 km/h (1 Bft) NW 318 0 min 0,000 mm 0,0 UV-I 0 W/m 1,6 C 3,7 C 4,8 km/h (1 Bft) 97,87 %
28.12.2016 22:24 3,7 C 87 % 1040,5 hPa 0,0 l/m 3,4 km/h (1 Bft) NW 313 0 min 0,000 mm 0,0 UV-I 0 W/m 1,7 C 3,7 C 6,4 km/h (2 Bft) 97,92 %
28.12.2016 22:26 3,7 C 87 % 1040,4 hPa 0,0 l/m 2,2 km/h (1 Bft) W-NW 299 0 min 0,000 mm 0,0 UV-I 0 W/m 1,7 C 3,7 C 4,8 km/h (1 Bft) 97,87 %
28.12.2016 22:28 3,6 C 87 % 1040,5 hPa 0,0 l/m 3,1 km/h (1 Bft) W-NW 292 0 min 0,000 mm 0,0 UV-I 0 W/m 1,6 C 3,6 C 8,0 km/h (2 Bft) 91,49 %
28.12.2016 22:30 3,6 C 87 % 1040,4 hPa 0,0 l/m 2,8 km/h (1 Bft) N-NW 342 0 min 0,000 mm 0,0 UV-I 0 W/m 1,6 C 3,6 C 4,8 km/h (1 Bft) 97,87 %
28.12.2016 22:32 3,6 C 87 % 1040,5 hPa 0,0 l/m 11,7 km/h (2 Bft) O-NO 57 0 min 0,000 mm 0,0 UV-I 0 W/m 1,6 C -0,7 C 17,7 km/h (3 Bft) 94,00 %
28.12.2016 22:34 3,4 C 87 % 1040,5 hPa 0,0 l/m 12,3 km/h (3 Bft) O-NO 65 0 min 0,000 mm 0,0 UV-I 0 W/m 1,4 C -1,3 C 19,3 km/h (3 Bft) 95,74 %
28.12.2016 22:36 3,2 C 88 % 1040,5 hPa 0,0 l/m 12,2 km/h (2 Bft) O-NO 66 0 min 0,000 mm 0,0 UV-I 0 W/m 1,4 C -1,4 C 16,1 km/h (3 Bft) 97,87 %
28.12.2016 22:38 2,9 C 88 % 1040,6 hPa 0,0 l/m 13,5 km/h (3 Bft) O-NO 68 0 min 0,000 mm 0,0 UV-I 0 W/m 1,1 C -2,6 C 16,1 km/h (3 Bft) 97,87 %
28.12.2016 22:40 2,7 C 89 % 1040,6 hPa 0,0 l/m 11,6 km/h (2 Bft) O-NO 65 0 min 0,000 mm 0,0 UV-I 0 W/m 1,1 C -1,6 C 14,5 km/h (3 Bft) 97,87 %
28.12.2016 22:42 2,5 C 89 % 1040,7 hPa 0,2 l/m 13,1 km/h (3 Bft) O-NO 65 0 min 0,000 mm 0,0 UV-I 0 W/m 0,9 C -2,8 C 17,7 km/h (3 Bft) 95,74 %
28.12.2016 22:44 2,3 C 90 % 1040,8 hPa 0,0 l/m 12,8 km/h (3 Bft) O-NO 69 0 min 0,000 mm 0,0 UV-I 0 W/m 0,8 C -2,9 C 16,1 km/h (3 Bft) 97,37 %
28.12.2016 22:46 2,1 C 90 % 1040,8 hPa 0,0 l/m 13,1 km/h (3 Bft) O-NO 67 0 min 0,000 mm 0,0 UV-I 0 W/m 0,6 C -3,3 C 16,1 km/h (3 Bft) 97,87 %
28.12.2016 22:48 1,9 C 90 % 1040,8 hPa 0,0 l/m 13,5 km/h (3 Bft) O-NO 61 0 min 0,000 mm 0,0 UV-I 0 W/m 0,4 C -3,8 C 17,7 km/h (3 Bft) 97,87 %
28.12.2016 22:50 1,8 C 91 % 1040,8 hPa 0,0 l/m 11,2 km/h (2 Bft) O-NO 61 0 min 0,000 mm 0,0 UV-I 0 W/m 0,5 C -2,4 C 14,5 km/h (3 Bft) 97,87 %
28.12.2016 22:52 1,7 C 91 % 1040,8 hPa 0,0 l/m 9,6 km/h (2 Bft) O-NO 65 0 min 0,000 mm 0,0 UV-I 0 W/m 0,4 C -1,3 C 12,9 km/h (3 Bft) 95,74 %
28.12.2016 22:54 1,6 C 92 % 1040,8 hPa 0,2 l/m 8,6 km/h (2 Bft) O-NO 66 0 min 0,000 mm 0,0 UV-I 0 W/m 0,4 C -0,5 C 14,5 km/h (3 Bft) 95,74 %
28.12.2016 22:56 1,6 C 92 % 1040,8 hPa 0,0 l/m 7,3 km/h (2 Bft) O-NO 67 0 min 0,000 mm 0,0 UV-I 0 W/m 0,4 C 0,7 C 11,3 km/h (2 Bft) 93,62 %
28.12.2016 22:58 1,5 C 92 % 1040,8 hPa 0,0 l/m 8,8 km/h (2 Bft) O-NO 78 0 min 0,000 mm 0,0 UV-I 0 W/m 0,3 C -0,8 C 14,5 km/h (3 Bft) 98,00 %
28.12.2016 23:00 1,5 C 92 % 1040,8 hPa 0,0 l/m 8,9 km/h (2 Bft) O-NO 69 0 min 0,000 mm 0,0 UV-I 0 W/m 0,3 C -0,9 C 11,3 km/h (2 Bft) 95,74 %
28.12.2016 23:02 1,4 C 92 % 1040,8 hPa 0,0 l/m 8,6 km/h (2 Bft) O-NO 63 0 min 0,000 mm 0,0 UV-I 0 W/m 0,2 C -0,7 C 12,9 km/h (3 Bft) 95,74 %
28.12.2016 23:04 1,4 C 93 % 1040,8 hPa 0,2 l/m 6,6 km/h (2 Bft) O-NO 65 0 min 0,000 mm 0,0 UV-I 0 W/m 0,4 C 1,2 C 11,3 km/h (2 Bft) 97,92 %
28.12.2016 23:06 1,3 C 93 % 1040,8 hPa 0,0 l/m 7,5 km/h (2 Bft) O-NO 61 0 min 0,000 mm 0,0 UV-I 0 W/m 0,3 C 0,2 C 11,3 km/h (2 Bft) 100,00 %
28.12.2016 23:08 1,3 C 93 % 1040,8 hPa 0,0 l/m 5,7 km/h (1 Bft) NO 53 0 min 0,000 mm 0,0 UV-I 0 W/m 0,3 C 1,3 C 8,0 km/h (2 Bft) 100,00 %
28.12.2016 23:10 1,3 C 93 % 1040,8 hPa 0,0 l/m 4,8 km/h (1 Bft) NO 53 0 min 0,000 mm 0,0 UV-I 0 W/m 0,3 C 1,3 C 6,4 km/h (2 Bft) 97,87 %
28.12.2016 23:12 1,3 C 93 % 1040,8 hPa 0,0 l/m 5,1 km/h (1 Bft) O-NO 58 0 min 0,000 mm 0,0 UV-I 0 W/m 0,3 C 1,3 C 6,4 km/h (2 Bft) 100,00 %
28.12.2016 23:14 1,2 C 93 % 1040,8 hPa 0,0 l/m 5,4 km/h (1 Bft) NO 51 0 min 0,000 mm 0,0 UV-I 0 W/m 0,2 C 1,2 C 8,0 km/h (2 Bft) 100,00 %
28.12.2016 23:16 1,2 C 94 % 1040,8 hPa 0,0 l/m 6,1 km/h (2 Bft) O-NO 61 0 min 0,000 mm 0,0 UV-I 0 W/m 0,3 C 1,2 C 8,0 km/h (2 Bft) 97,87 %
28.12.2016 23:18 1,2 C 93 % 1040,8 hPa 0,0 l/m 5,7 km/h (1 Bft) NO 55 0 min 0,000 mm 0,0 UV-I 0 W/m 0,2 C 1,2 C 8,0 km/h (2 Bft) 97,87 %
28.12.2016 23:20 1,2 C 94 % 1040,8 hPa 0,0 l/m 6,5 km/h (2 Bft) O-NO 62 0 min 0,000 mm 0,0 UV-I 0 W/m 0,3 C 1,1 C 8,0 km/h (2 Bft) 97,87 %
28.12.2016 23:22 1,2 C 94 % 1040,8 hPa 0,0 l/m 6,3 km/h (2 Bft) O-NO 68 0 min 0,000 mm 0,0 UV-I 0 W/m 0,3 C 1,2 C 8,0 km/h (2 Bft) 97,87 %
28.12.2016 23:24 1,2 C 94 % 1040,7 hPa 0,0 l/m 5,3 km/h (1 Bft) O-NO 68 0 min 0,000 mm 0,0 UV-I 0 W/m 0,3 C 1,2 C 8,0 km/h (2 Bft) 97,37 %
28.12.2016 23:26 1,2 C 94 % 1040,7 hPa 0,2 l/m 5,1 km/h (1 Bft) O-NO 67 0 min 0,000 mm 0,0 UV-I 0 W/m 0,3 C 1,2 C 8,0 km/h (2 Bft) 98,00 %
28.12.2016 23:28 1,1 C 94 % 1040,7 hPa 0,0 l/m 4,5 km/h (1 Bft) O 81 0 min 0,000 mm 0,0 UV-I 0 W/m 0,2 C 1,1 C 6,4 km/h (2 Bft) 100,00 %
28.12.2016 23:30 1,1 C 94 % 1040,6 hPa 0,0 l/m 4,2 km/h (1 Bft) O 88 0 min 0,000 mm 0,0 UV-I 0 W/m 0,2 C 1,1 C 6,4 km/h (2 Bft) 100,00 %
28.12.2016 23:32 1,1 C 94 % 1040,6 hPa 0,0 l/m 3,9 km/h (1 Bft) O 88 0 min 0,000 mm 0,0 UV-I 0 W/m 0,2 C 1,1 C 4,8 km/h (1 Bft) 100,00 %
28.12.2016 23:34 1,1 C 94 % 1040,6 hPa 0,0 l/m 2,6 km/h (1 Bft) O 88 0 min 0,000 mm 0,0 UV-I 0 W/m 0,2 C 1,1 C 4,8 km/h (1 Bft) 100,00 %
28.12.2016 23:36 1,1 C 94 % 1040,6 hPa 0,0 l/m 2,2 km/h (1 Bft) O 88 0 min 0,000 mm 0,0 UV-I 0 W/m 0,2 C 1,1 C 4,8 km/h (1 Bft) 100,00 %
28.12.2016 23:38 1,1 C 94 % 1040,6 hPa 0,0 l/m 1,5 km/h (1 Bft) O 88 0 min 0,000 mm 0,0 UV-I 0 W/m 0,2 C 1,1 C 3,2 km/h (1 Bft) 95,74 %
28.12.2016 23:40 1,2 C 94 % 1040,7 hPa 0,0 l/m 2,2 km/h (1 Bft) O 88 0 min 0,000 mm 0,0 UV-I 0 W/m 0,3 C 1,2 C 4,8 km/h (1 Bft) 98,00 %
28.12.2016 23:42 1,2 C 95 % 1040,7 hPa 0,0 l/m 2,2 km/h (1 Bft) O 91 0 min 0,000 mm 0,0 UV-I 0 W/m 0,5 C 1,2 C 4,8 km/h (1 Bft) 100,00 %
28.12.2016 23:44 1,2 C 95 % 1040,7 hPa 0,0 l/m 0,8 km/h (0 Bft) O 91 0 min 0,000 mm 0,0 UV-I 0 W/m 0,5 C 1,2 C 3,2 km/h (1 Bft) 100,00 %
28.12.2016 23:46 1,1 C 95 % 1040,7 hPa 0,0 l/m 1,8 km/h (1 Bft) O 91 0 min 0,000 mm 0,0 UV-I 0 W/m 0,4 C 1,1 C 3,2 km/h (1 Bft) 97,87 %
28.12.2016 23:48 1,2 C 95 % 1040,7 hPa 0,0 l/m 3,5 km/h (1 Bft) O-SO 117 0 min 0,000 mm 0,0 UV-I 0 W/m 0,5 C 1,2 C 4,8 km/h (1 Bft) 100,00 %
28.12.2016 23:50 1,1 C 95 % 1040,7 hPa 0,0 l/m 4,0 km/h (1 Bft) O-SO 117 0 min 0,000 mm 0,0 UV-I 0 W/m 0,4 C 1,1 C 6,4 km/h (2 Bft) 95,74 %
28.12.2016 23:52 1,1 C 95 % 1040,7 hPa 0,0 l/m 3,5 km/h (1 Bft) O-SO 117 0 min 0,000 mm 0,0 UV-I 0 W/m 0,4 C 1,1 C 4,8 km/h (1 Bft) 97,87 %
28.12.2016 23:54 1,1 C 95 % 1040,7 hPa 0,0 l/m 3,5 km/h (1 Bft) O-SO 120 0 min 0,000 mm 0,0 UV-I 0 W/m 0,4 C 1,1 C 6,4 km/h (2 Bft) 97,87 %
28.12.2016 23:56 1,1 C 95 % 1040,7 hPa 0,0 l/m 2,1 km/h (1 Bft) O-SO 121 0 min 0,000 mm 0,0 UV-I 0 W/m 0,4 C 1,1 C 4,8 km/h (1 Bft) 100,00 %
28.12.2016 23:58 1,1 C 95 % 1040,7 hPa 0,0 l/m 0,9 km/h (0 Bft) O-SO 121 0 min 0,000 mm 0,0 UV-I 0 W/m 0,4 C 1,1 C 1,6 km/h (1 Bft) 97,87 %
_ Min-Zeit 23:26 15:56 05:46 - 22:16 - - - - - - 23:14 01:56 22:16 14:14
Minimum _ 1,1 C 80 % 1036,5 hPa - 0,4 km/h (0 Bft) - - - - - - 0,2 C -8,5 C 1,6 km/h (1 Bft) 91,49 %
_ Max-Zeit 15:20 23:42 22:44 22:42 04:22 - - 00:00 13:00 00:00 14:02 08:12 21:46 02:28 00:02
Maximum _ 4,8 C 95 % 1040,8 hPa 0,2 l/m 33,7 km/h
S-SW (5 Bft)
- - 0 min 0,051 mm 0,0 UV-I 58 W/m 2,1 C 4,0 C 53,1 km/h
W (7 Bft)
100,00 %
Durchschnitt _ 4,0 C 85 % 1038,1 hPa #0,8 l/m 20,4 km/h (4 Bft) W-SW - #0 min. #0,635 mm 0,0 UV-I 20 W/m 1,7 C -4,2 C 31,5 km/h (5 Bft) 98,34 %